[[{"header":{"parameterUnit":"m.s-1","parameterCategory":1,"la1":30.6,"la2":29.2853,"lo1":-89.7004,"lo2":-87.6739,"dy":0.0162,"dx":0.0183,"nx":112,"ny":82,"refTime":"2023-09-01T06:00:00:Z","depth":0,"parameterNumber":2,"parameterNumberName":"U-component_of_WINDS"},"data":[0.0,0.0,0.0,0.0,0.0,0.0,0.0,0.0,0.0,0.0,0.0,0.0,0.0,0.0,0.0,0.0,0.0,0.0,0.0,0.0,0.0,0.0,0.0,0.0,0.0,0.0,0.0,0.0,0.0,0.0,0.0,0.0,0.0,0.0,0.0,0.0,0.0,0.0,0.0,0.0,0.0,0.0,0.0,0.0,0.0,0.0,0.0,0.0,0.0,0.0,0.0,0.0,0.0,0.0,0.0,0.0,0.0,0.0,0.0,0.0,0.0,0.0,0.0,0.0,0.0,0.0,0.0,0.0,0.0,0.0,0.0,0.0,0.0,0.0,0.0,0.0,0.0,0.0,0.0,0.0,0.0,0.0,0.0,0.0,0.0,0.0,0.0,0.0,0.0,0.0,0.0,-3.5572,-3.5794,-3.5938,-3.5996,-3.5996,-3.5953,-3.5875,0.0,0.0,0.0,0.0,0.0,0.0,0.0,0.0,0.0,0.0,0.0,0.0,0.0,0.0,0.0,0.0,0.0,0.0,0.0,0.0,0.0,0.0,0.0,0.0,0.0,0.0,0.0,0.0,0.0,0.0,0.0,0.0,0.0,0.0,0.0,0.0,0.0,0.0,0.0,0.0,0.0,0.0,0.0,0.0,0.0,0.0,0.0,0.0,0.0,0.0,0.0,0.0,0.0,0.0,0.0,0.0,0.0,0.0,0.0,0.0,0.0,0.0,0.0,0.0,0.0,0.0,0.0,0.0,0.0,0.0,0.0,0.0,0.0,0.0,0.0,0.0,0.0,0.0,0.0,0.0,0.0,0.0,0.0,0.0,0.0,0.0,0.0,0.0,0.0,0.0,0.0,0.0,0.0,0.0,0.0,0.0,0.0,0.0,0.0,0.0,0.0,0.0,0.0,0.0,-3.5502,-3.5663,-3.5805,-3.5938,-3.5996,-3.5996,-3.5928,-3.5735,0.0,0.0,0.0,0.0,0.0,0.0,0.0,0.0,0.0,0.0,0.0,0.0,0.0,0.0,0.0,0.0,0.0,0.0,0.0,0.0,0.0,0.0,0.0,0.0,0.0,0.0,0.0,0.0,0.0,0.0,0.0,0.0,0.0,0.0,0.0,0.0,0.0,0.0,0.0,0.0,0.0,0.0,0.0,0.0,0.0,0.0,0.0,0.0,0.0,0.0,0.0,0.0,0.0,0.0,0.0,0.0,0.0,0.0,0.0,0.0,0.0,0.0,0.0,0.0,0.0,0.0,0.0,0.0,0.0,0.0,0.0,0.0,0.0,0.0,0.0,0.0,0.0,0.0,0.0,0.0,0.0,0.0,0.0,0.0,0.0,0.0,0.0,0.0,0.0,0.0,0.0,0.0,0.0,0.0,0.0,0.0,0.0,0.0,0.0,0.0,0.0,0.0,0.0,-3.5516,-3.5657,-3.5794,-3.5892,-3.5972,-3.5996,-3.5996,-3.5951,-3.5812,-3.5729,0.0,0.0,0.0,0.0,0.0,0.0,0.0,0.0,0.0,0.0,0.0,0.0,0.0,0.0,0.0,0.0,0.0,0.0,0.0,0.0,0.0,0.0,0.0,0.0,0.0,0.0,0.0,0.0,0.0,0.0,0.0,0.0,0.0,0.0,0.0,0.0,0.0,0.0,0.0,0.0,0.0,0.0,0.0,0.0,0.0,0.0,0.0,0.0,0.0,0.0,0.0,0.0,0.0,0.0,0.0,0.0,0.0,0.0,0.0,0.0,0.0,0.0,0.0,0.0,0.0,0.0,0.0,0.0,0.0,0.0,0.0,0.0,0.0,0.0,0.0,0.0,0.0,0.0,0.0,0.0,0.0,0.0,0.0,0.0,0.0,0.0,0.0,0.0,0.0,0.0,0.0,0.0,0.0,0.0,0.0,0.0,0.0,0.0,0.0,0.0,0.0,0.0,-3.5663,-3.5758,-3.5896,-3.5951,-3.5996,-3.5996,-3.5996,-3.5953,-3.5869,-3.5761,0.0,0.0,0.0,0.0,0.0,0.0,0.0,0.0,0.0,0.0,0.0,0.0,0.0,0.0,0.0,0.0,0.0,0.0,0.0,0.0,0.0,0.0,0.0,0.0,0.0,0.0,0.0,0.0,0.0,0.0,0.0,0.0,0.0,0.0,0.0,0.0,0.0,0.0,0.0,0.0,0.0,0.0,0.0,0.0,0.0,0.0,0.0,0.0,0.0,0.0,0.0,0.0,0.0,0.0,0.0,0.0,0.0,0.0,0.0,0.0,0.0,0.0,0.0,0.0,0.0,0.0,0.0,0.0,0.0,0.0,0.0,0.0,0.0,0.0,0.0,0.0,0.0,0.0,0.0,0.0,0.0,0.0,0.0,0.0,0.0,0.0,0.0,0.0,0.0,0.0,0.0,0.0,0.0,0.0,0.0,0.0,0.0,0.0,0.0,0.0,0.0,0.0,-3.5663,-3.5758,-3.5896,-3.5951,-3.5996,-3.5996,-3.5996,-3.5927,-3.5726,-3.571,0.0,0.0,0.0,0.0,0.0,0.0,0.0,0.0,0.0,0.0,0.0,0.0,0.0,0.0,0.0,0.0,0.0,0.0,0.0,0.0,0.0,0.0,0.0,0.0,0.0,0.0,0.0,0.0,0.0,0.0,0.0,0.0,0.0,0.0,0.0,0.0,0.0,0.0,0.0,0.0,0.0,0.0,0.0,0.0,0.0,0.0,0.0,0.0,0.0,0.0,0.0,0.0,0.0,0.0,0.0,0.0,0.0,0.0,0.0,0.0,0.0,0.0,0.0,0.0,0.0,0.0,0.0,0.0,0.0,0.0,0.0,0.0,0.0,0.0,0.0,0.0,0.0,0.0,0.0,0.0,0.0,0.0,0.0,0.0,0.0,0.0,0.0,0.0,0.0,0.0,0.0,0.0,0.0,0.0,0.0,0.0,0.0,0.0,0.0,0.0,0.0,0.0,-3.5682,-3.5775,0.0,-3.5976,-3.5996,-3.5996,-3.5996,-3.5975,-3.588,0.0,0.0,0.0,0.0,0.0,0.0,0.0,0.0,0.0,0.0,0.0,0.0,0.0,0.0,0.0,0.0,0.0,0.0,0.0,0.0,0.0,0.0,0.0,0.0,0.0,0.0,0.0,0.0,0.0,0.0,0.0,0.0,0.0,0.0,0.0,0.0,0.0,0.0,0.0,0.0,0.0,0.0,0.0,0.0,0.0,0.0,0.0,0.0,0.0,0.0,0.0,0.0,0.0,0.0,0.0,0.0,0.0,0.0,0.0,0.0,0.0,0.0,0.0,0.0,0.0,0.0,0.0,0.0,0.0,0.0,0.0,0.0,0.0,0.0,0.0,0.0,0.0,0.0,0.0,0.0,0.0,0.0,0.0,0.0,0.0,0.0,0.0,0.0,0.0,0.0,0.0,0.0,0.0,0.0,0.0,0.0,0.0,0.0,0.0,0.0,0.0,0.0,-3.5682,-3.5707,-3.5785,0.0,-3.5996,-3.5996,-3.5996,-3.5996,-3.5996,-3.5973,0.0,0.0,0.0,0.0,0.0,0.0,0.0,0.0,0.0,0.0,0.0,0.0,0.0,0.0,0.0,0.0,0.0,0.0,0.0,0.0,0.0,0.0,0.0,0.0,0.0,0.0,0.0,0.0,0.0,0.0,0.0,0.0,0.0,0.0,0.0,0.0,0.0,0.0,0.0,0.0,0.0,0.0,0.0,0.0,0.0,0.0,0.0,0.0,0.0,0.0,0.0,0.0,0.0,0.0,0.0,0.0,0.0,0.0,0.0,0.0,0.0,0.0,0.0,0.0,0.0,0.0,0.0,0.0,0.0,0.0,0.0,0.0,0.0,0.0,0.0,0.0,0.0,0.0,0.0,0.0,0.0,0.0,0.0,0.0,0.0,0.0,0.0,0.0,0.0,0.0,0.0,0.0,0.0,0.0,0.0,0.0,0.0,0.0,0.0,0.0,0.0,0.0,-3.5682,-3.5707,-3.5785,-3.5976,-3.5996,-3.5996,-3.5996,-3.5996,-3.5973,0.0,0.0,0.0,0.0,0.0,0.0,0.0,0.0,0.0,0.0,0.0,0.0,0.0,0.0,0.0,0.0,0.0,0.0,0.0,0.0,0.0,0.0,0.0,0.0,0.0,0.0,0.0,0.0,0.0,0.0,0.0,0.0,0.0,0.0,0.0,0.0,0.0,0.0,0.0,0.0,0.0,0.0,0.0,0.0,0.0,0.0,0.0,0.0,0.0,0.0,0.0,0.0,0.0,0.0,0.0,0.0,0.0,0.0,0.0,0.0,0.0,0.0,0.0,0.0,0.0,0.0,0.0,0.0,0.0,0.0,0.0,0.0,0.0,0.0,0.0,0.0,0.0,0.0,0.0,0.0,0.0,0.0,0.0,0.0,0.0,0.0,0.0,0.0,0.0,0.0,0.0,0.0,0.0,0.0,0.0,0.0,0.0,0.0,0.0,0.0,0.0,0.0,0.0,-3.5682,-3.5707,-3.5785,-3.5976,-3.5996,-3.5996,-3.5996,-3.5996,-3.5996,-3.5973,0.0,0.0,0.0,0.0,0.0,0.0,0.0,0.0,0.0,0.0,0.0,0.0,0.0,0.0,0.0,0.0,0.0,0.0,0.0,0.0,0.0,0.0,0.0,0.0,0.0,0.0,0.0,0.0,0.0,0.0,0.0,0.0,0.0,0.0,0.0,0.0,0.0,0.0,0.0,0.0,0.0,0.0,0.0,0.0,0.0,0.0,0.0,0.0,0.0,0.0,0.0,0.0,0.0,0.0,0.0,0.0,0.0,0.0,0.0,0.0,0.0,0.0,0.0,0.0,0.0,0.0,0.0,0.0,0.0,0.0,0.0,0.0,0.0,0.0,0.0,0.0,0.0,0.0,0.0,0.0,0.0,0.0,0.0,0.0,0.0,0.0,0.0,0.0,0.0,0.0,0.0,0.0,0.0,0.0,0.0,0.0,0.0,0.0,0.0,0.0,0.0,0.0,-3.5682,-3.5707,-3.5785,-3.5976,-3.5996,-3.5996,-3.5996,-3.5996,-3.5996,-3.5996,0.0,0.0,0.0,0.0,0.0,0.0,0.0,0.0,0.0,0.0,0.0,0.0,0.0,0.0,0.0,0.0,0.0,0.0,0.0,0.0,0.0,0.0,0.0,0.0,0.0,0.0,0.0,0.0,0.0,0.0,0.0,0.0,0.0,0.0,0.0,0.0,0.0,0.0,0.0,0.0,0.0,0.0,0.0,0.0,0.0,0.0,0.0,0.0,0.0,0.0,0.0,0.0,0.0,0.0,0.0,0.0,0.0,0.0,0.0,0.0,0.0,0.0,0.0,0.0,0.0,0.0,0.0,0.0,0.0,0.0,0.0,0.0,0.0,0.0,0.0,0.0,0.0,0.0,0.0,0.0,0.0,0.0,0.0,0.0,0.0,0.0,0.0,0.0,0.0,0.0,0.0,0.0,0.0,0.0,0.0,0.0,0.0,0.0,0.0,0.0,0.0,0.0,-3.5667,-3.5693,-3.5775,-3.5975,-3.5996,-3.5996,-3.5996,-3.5996,-3.5996,-3.5996,0.0,0.0,0.0,0.0,0.0,0.0,0.0,0.0,0.0,0.0,0.0,0.0,0.0,0.0,0.0,0.0,0.0,0.0,0.0,0.0,0.0,0.0,0.0,0.0,0.0,0.0,0.0,0.0,0.0,0.0,0.0,0.0,0.0,0.0,0.0,0.0,0.0,0.0,0.0,0.0,0.0,0.0,0.0,0.0,0.0,0.0,0.0,0.0,0.0,0.0,0.0,0.0,0.0,0.0,0.0,0.0,0.0,0.0,0.0,0.0,-4.0718,0.0,0.0,0.0,0.0,0.0,0.0,0.0,0.0,0.0,0.0,0.0,0.0,0.0,0.0,0.0,0.0,0.0,0.0,0.0,0.0,0.0,0.0,0.0,0.0,0.0,0.0,0.0,0.0,0.0,0.0,0.0,0.0,0.0,0.0,0.0,0.0,0.0,0.0,0.0,0.0,0.0,-3.5611,-3.5611,-3.5702,-3.5907,-3.5916,-3.5946,-3.5996,-3.5996,-3.5996,-3.5996,-3.5996,0.0,0.0,0.0,0.0,0.0,0.0,0.0,0.0,0.0,0.0,0.0,0.0,0.0,0.0,0.0,0.0,0.0,0.0,0.0,0.0,0.0,0.0,0.0,0.0,0.0,0.0,0.0,0.0,0.0,0.0,0.0,0.0,0.0,0.0,0.0,0.0,0.0,0.0,0.0,0.0,0.0,0.0,0.0,0.0,0.0,0.0,0.0,0.0,0.0,0.0,0.0,0.0,0.0,0.0,0.0,0.0,0.0,0.0,0.0,0.0,-4.0364,0.0,0.0,0.0,0.0,0.0,0.0,0.0,0.0,0.0,0.0,0.0,0.0,0.0,0.0,0.0,0.0,0.0,0.0,0.0,0.0,0.0,0.0,0.0,0.0,0.0,0.0,0.0,0.0,0.0,0.0,0.0,0.0,0.0,0.0,0.0,0.0,0.0,0.0,0.0,0.0,-3.559,-3.5611,-3.5644,-3.5791,-3.5869,-3.5911,-3.5948,-3.5975,-3.5996,-3.5996,-3.5996,0.0,0.0,0.0,0.0,0.0,0.0,0.0,0.0,0.0,0.0,0.0,0.0,0.0,0.0,0.0,0.0,0.0,0.0,0.0,0.0,0.0,0.0,0.0,0.0,0.0,0.0,0.0,0.0,0.0,0.0,0.0,0.0,0.0,0.0,0.0,0.0,0.0,0.0,0.0,0.0,0.0,0.0,0.0,0.0,0.0,0.0,0.0,0.0,0.0,0.0,0.0,0.0,0.0,-4.0096,-4.0096,-4.0096,-4.0096,-3.9774,-3.9282,-4.0821,-4.0045,-3.7862,0.0,0.0,0.0,0.0,0.0,0.0,0.0,0.0,0.0,0.0,0.0,0.0,0.0,0.0,0.0,0.0,0.0,0.0,0.0,0.0,0.0,0.0,0.0,0.0,0.0,-3.1968,-3.1933,0.0,0.0,0.0,0.0,0.0,0.0,0.0,0.0,0.0,0.0,0.0,0.0,-3.5577,-3.5574,-3.5606,-3.569,-3.5783,-3.5858,-3.5869,-3.5946,-3.5975,-3.5975,-3.5975,-3.5975,0.0,0.0,0.0,0.0,0.0,0.0,0.0,0.0,0.0,0.0,0.0,0.0,0.0,0.0,0.0,0.0,0.0,0.0,0.0,0.0,0.0,0.0,0.0,0.0,0.0,0.0,0.0,0.0,0.0,0.0,0.0,0.0,-3.2038,-3.3529,0.0,0.0,0.0,0.0,0.0,0.0,0.0,0.0,0.0,0.0,0.0,0.0,0.0,-4.0096,-4.0096,-4.0096,-4.0096,-4.0096,-4.0096,-4.0096,-4.0096,-4.0096,-4.0045,-3.996,-4.022,0.0,-3.849,-3.8834,0.0,0.0,0.0,0.0,0.0,0.0,0.0,0.0,0.0,0.0,0.0,0.0,0.0,0.0,0.0,0.0,0.0,0.0,0.0,0.0,0.0,0.0,-3.123,-3.1349,-3.1329,-3.1411,0.0,-3.2614,-3.3214,-3.3273,0.0,0.0,0.0,0.0,0.0,0.0,0.0,0.0,-3.5515,-3.5515,-3.5547,-3.5601,-3.5631,-3.5666,-3.5717,-3.5845,-3.5911,-3.5911,-3.5911,-3.5911,-3.5911,-3.5809,0.0,0.0,0.0,0.0,0.0,0.0,0.0,0.0,0.0,0.0,0.0,0.0,0.0,0.0,0.0,0.0,0.0,0.0,0.0,0.0,0.0,0.0,0.0,0.0,0.0,0.0,0.0,0.0,0.0,-3.1511,-3.188,-3.292,-3.4296,-3.5565,0.0,0.0,0.0,0.0,0.0,0.0,0.0,0.0,0.0,-4.0096,-4.0096,-4.0096,-4.0096,-4.0096,-4.0096,-4.0096,-4.0096,-4.0096,-4.0096,-4.0096,-4.0096,-4.0096,-4.0096,-3.9855,-3.9474,-3.9773,-3.9524,-3.9031,0.0,0.0,0.0,0.0,-3.7669,-3.7344,-3.6571,-3.6161,0.0,0.0,0.0,0.0,0.0,0.0,0.0,0.0,0.0,0.0,0.0,0.0,0.0,-3.119,-3.119,-3.1249,-3.143,-3.1968,-3.2565,0.0,-3.3522,-3.3889,-3.414,0.0,0.0,0.0,0.0,0.0,-3.5281,-3.5417,-3.5515,-3.5527,-3.5577,-3.5616,-3.5633,-3.573,-3.5797,-3.5797,-3.5797,-3.5797,-3.5797,-3.5726,-3.5723,0.0,0.0,0.0,0.0,0.0,0.0,0.0,0.0,0.0,0.0,0.0,0.0,0.0,0.0,0.0,0.0,0.0,0.0,0.0,0.0,0.0,0.0,0.0,0.0,0.0,0.0,0.0,0.0,-3.175,-3.1989,-3.2691,-3.4039,-3.5095,0.0,0.0,0.0,0.0,0.0,0.0,-3.8881,-3.9463,-3.9901,-4.0096,-4.0096,-4.0096,-4.0096,-4.0096,-4.0096,-4.0096,-4.0096,-4.0096,-4.0096,-4.0096,-4.0096,-4.0096,-4.0096,-4.0096,-4.0121,-4.0528,-4.0025,-3.9083,-4.0065,-3.9854,-3.8883,-3.816,-3.765,-3.7235,-3.6248,-3.591,-3.5836,-3.5453,0.0,-3.4218,-3.4218,0.0,0.0,0.0,0.0,-3.1427,-3.1241,-3.119,-3.119,-3.119,-3.119,-3.119,-3.119,-3.1526,-3.2039,0.0,-3.3361,-3.3738,-3.4056,0.0,0.0,0.0,0.0,-3.499,-3.499,-3.5182,-3.5312,-3.5383,-3.5245,-3.517,-3.5242,-3.5105,-3.5033,-3.5033,-3.5224,-3.5341,-3.5341,-3.5546,-3.5659,-3.5667,0.0,0.0,0.0,0.0,0.0,0.0,0.0,0.0,0.0,0.0,0.0,0.0,0.0,0.0,0.0,0.0,0.0,0.0,0.0,0.0,0.0,0.0,0.0,0.0,0.0,0.0,0.0,0.0,0.0,-3.3365,-3.4698,0.0,0.0,0.0,0.0,-3.7793,-3.7835,-3.8161,-3.8854,-3.8935,-3.9315,-4.007,-4.0096,-4.0096,-4.0096,-4.0096,-4.0096,-4.0096,-4.0096,-4.0096,-4.0096,-4.0096,-4.0096,-4.0096,-4.0096,-4.0096,-4.0096,-4.0121,-4.0095,-4.0027,-4.0103,-4.0086,-3.9943,-3.9189,-3.8894,-3.8667,-3.7252,-3.6745,-3.6508,-3.5013,-3.4066,-3.3457,-3.3457,-3.3406,0.0,0.0,-3.2242,-3.209,-3.1376,-3.119,-3.119,-3.119,-3.119,-3.119,-3.119,-3.1526,-3.195,0.0,-3.2921,-3.3361,-3.3748,0.0,-3.42,-3.4211,-3.4518,-3.4714,-3.4714,-3.4724,-3.4851,-3.5096,-3.4386,-3.4003,-3.4244,-3.3638,-3.3237,-3.3237,-3.3945,-3.4362,-3.4362,-3.5096,-3.5547,-3.5596,-3.5534,0.0,0.0,0.0,0.0,0.0,0.0,0.0,0.0,0.0,0.0,0.0,0.0,0.0,0.0,0.0,0.0,0.0,0.0,0.0,0.0,0.0,0.0,0.0,0.0,0.0,0.0,0.0,0.0,-3.3993,-3.4588,0.0,-3.5485,-3.5995,-3.6321,-3.6321,-3.6753,-3.7144,-3.7424,-3.7889,-3.8318,-3.8596,-3.864,-3.864,-3.864,-3.9102,-3.9342,-3.9342,-3.9342,-3.9342,-3.9315,-3.8859,-3.864,-3.864,-3.9129,-3.9342,-3.9368,-3.9901,-4.0096,-4.0096,-4.0096,-4.0096,-4.0011,-3.9259,-3.8988,-3.8853,-3.7855,-3.7218,-3.6557,-3.5054,-3.4399,-3.4076,-3.3605,-3.3778,-3.3947,-3.322,-3.2682,-3.2242,-3.1989,-3.1565,-3.119,-3.119,-3.119,-3.119,-3.119,-3.131,-3.1545,-3.1968,-3.2663,-3.3243,-3.3375,-3.3711,-3.3935,-3.3935,-3.4183,-3.4379,-3.4379,-3.4083,-3.3904,-3.3998,-3.3258,-3.2879,-3.3142,-3.2933,-3.2827,-3.2962,-3.3232,-3.3657,-3.4216,-3.4501,-3.4937,-3.5515,-3.5515,-3.5515,0.0,0.0,0.0,0.0,0.0,0.0,0.0,0.0,0.0,0.0,0.0,0.0,0.0,0.0,0.0,0.0,0.0,0.0,0.0,0.0,0.0,0.0,0.0,0.0,0.0,0.0,-3.3219,-3.4665,-3.4848,-3.4996,-3.5459,-3.5504,-3.5504,-3.5504,-3.5943,-3.6337,-3.6584,-3.71,-3.7515,-3.7777,-3.7793,-3.7793,-3.7793,-3.8274,-3.8525,-3.8525,-3.8525,-3.8525,-3.8497,-3.8035,-3.7793,-3.7822,-3.8302,-3.8525,-3.858,-3.9102,-3.9305,-3.9332,-3.961,-3.9705,-3.9612,-3.8868,-3.8737,-3.8858,-3.8137,-3.7068,-3.5892,-3.4906,-3.4456,-3.4178,-3.3681,-3.4001,-3.4387,-3.3644,-3.3241,-3.2936,-3.2429,-3.1938,-3.1495,-3.1258,-3.119,-3.119,-3.119,-3.119,-3.1271,-3.1564,-3.2196,-3.2777,-3.2937,-3.3317,-3.3592,-3.3592,-3.3631,-3.366,-3.366,-3.3109,-3.2758,-3.285,-3.2127,-3.176,-3.2034,-3.184,-3.1748,-3.1814,-3.2158,-3.2593,-3.3092,-3.3475,-3.4059,-3.4904,-3.5215,-3.5369,-3.5369,0.0,0.0,0.0,0.0,0.0,0.0,0.0,0.0,0.0,0.0,0.0,0.0,0.0,0.0,0.0,0.0,0.0,0.0,0.0,0.0,0.0,0.0,0.0,-3.1954,-3.2698,-3.3692,-3.5285,-3.5472,-3.5504,-3.5504,-3.5504,-3.5504,-3.5504,-3.5504,-3.5814,-3.6523,-3.6584,-3.6919,-3.7706,-3.7735,-3.7735,-3.7735,-3.7764,-3.7748,-3.7748,-3.7748,-3.7748,-3.7748,-3.7735,-3.7735,-3.7735,-3.7764,-3.7748,-3.7748,-3.7777,-3.7793,-3.7863,-3.858,-3.8881,-3.8772,-3.8064,-3.8246,-3.8755,-3.8021,-3.6393,-3.4606,-3.4574,-3.4122,-3.3588,-3.3572,-3.4037,-3.442,-3.3705,-3.3945,-3.4107,-3.2638,-3.2249,-3.2046,-3.134,-3.1171,-3.1171,-3.119,-3.119,-3.119,-3.119,-3.1507,-3.1933,-3.2401,-3.2838,-3.313,-3.313,-3.2798,0.0,-3.2538,-3.1836,-3.1421,-3.17,-3.1012,-3.0632,-3.0931,-3.0352,-2.9901,-2.9713,-3.0679,-3.1167,-3.1013,-3.2004,-3.2935,-3.3764,-3.4647,-3.5088,-3.5088,0.0,0.0,0.0,0.0,0.0,0.0,0.0,0.0,0.0,0.0,0.0,0.0,0.0,0.0,0.0,0.0,0.0,0.0,0.0,0.0,0.0,0.0,-2.9757,-3.1536,-3.2558,-3.3431,-3.4321,-3.5067,-3.5504,-3.5504,-3.5504,-3.5504,-3.5504,-3.5504,-3.5587,-3.5782,-3.5814,-3.5894,-3.6148,-3.6148,-3.6148,-3.6148,-3.6661,-3.6934,-3.6934,-3.6934,-3.6934,-3.6904,-3.6368,-3.6148,-3.6164,-3.6692,-3.6934,-3.698,-3.7573,-3.7793,-3.7822,-3.8035,-3.8121,-3.8092,-3.7863,-3.7921,-3.7995,-3.7242,-3.6253,-3.5154,-3.4138,-3.3685,-3.3451,-3.3009,-3.3339,-3.3838,-3.3636,-3.3315,-3.2836,-3.1941,-3.1323,-3.0859,-3.06,-3.0539,-3.0679,-3.1112,-3.119,-3.119,-3.119,-3.1291,-3.1506,-3.1915,-3.1941,-3.1889,-3.1889,-3.1354,0.0,-3.0926,-3.0227,-2.9845,-3.017,-2.949,-2.923,-2.9791,-2.9673,-2.9607,-2.9696,-2.9973,-3.0406,-3.0986,-3.1274,-3.2094,-3.3477,-3.4358,-3.4803,0.0,0.0,0.0,0.0,0.0,0.0,0.0,0.0,0.0,0.0,0.0,0.0,0.0,0.0,0.0,0.0,0.0,0.0,0.0,0.0,0.0,0.0,-2.8687,-2.9363,-3.0665,-3.1687,-3.2584,-3.3352,-3.4293,-3.4872,-3.4872,-3.5246,-3.5504,-3.5504,-3.5504,-3.5504,-3.5504,-3.5504,-3.5504,-3.5504,-3.5504,-3.5504,-3.5504,-3.5926,-3.6134,-3.6134,-3.6134,-3.6134,-3.6102,-3.5701,-3.5504,0.0,-3.5943,-3.6134,-3.6165,-3.6646,-3.6829,0.0,0.0,0.0,0.0,0.0,-3.7115,-3.6813,-3.6688,-3.599,-3.4942,-3.3844,-3.331,-3.2959,-3.2331,-3.2625,-3.3198,-3.3198,-3.3079,-3.2741,-3.1766,-3.1182,-3.0708,-3.007,-2.9913,-3.0016,-3.0372,-3.0456,-3.0357,-3.0083,0.0,0.0,-3.0306,-3.0751,-3.0999,-3.0699,-3.0152,-2.9796,-2.9796,-2.9089,-2.8667,-2.8877,-2.8465,-2.8402,-2.8948,-2.9086,0.0,0.0,0.0,-2.9805,-3.0312,-3.064,0.0,0.0,0.0,-3.414,-3.4497,0.0,0.0,0.0,-3.4714,-3.4694,0.0,0.0,0.0,0.0,0.0,0.0,0.0,0.0,0.0,0.0,0.0,0.0,0.0,0.0,0.0,0.0,-2.8988,-2.9202,-2.9716,-3.052,-3.1389,-3.2321,-3.3276,-3.3842,-3.3842,-3.4739,-3.5326,-3.5326,-3.5439,-3.5504,-3.5504,0.0,0.0,0.0,0.0,-3.5504,-3.5504,-3.5504,-3.5504,-3.5504,-3.5504,-3.5504,-3.5504,-3.5504,-3.5504,-3.5504,-3.5504,-3.5504,-3.5504,-3.5504,-3.5504,-3.5569,-3.6228,-3.6477,-3.6477,-3.6477,-3.6054,-3.5587,-3.6244,0.0,0.0,-3.3709,-3.3051,-3.2363,-3.1705,-3.1966,-3.2492,-3.2492,-3.2859,-3.2962,-3.1626,-3.1229,-3.0871,-2.9612,-2.9293,-2.9316,-2.9384,-2.9406,-2.9204,-2.8527,-2.8781,-2.8861,-2.8115,-2.93,-3.0145,-2.9504,-2.908,-2.8832,-2.8832,-2.8203,-2.7783,-2.7826,0.0,0.0,-2.8298,-2.8561,-2.8777,-2.8929,-2.9203,-2.9361,-2.9361,-3.0137,-3.0926,-3.1749,-3.2541,-3.3341,-3.414,-3.3928,-3.391,-3.4171,-3.4464,-3.4601,0.0,0.0,0.0,0.0,0.0,0.0,0.0,0.0,0.0,0.0,0.0,0.0,0.0,0.0,0.0,-2.9528,-2.9628,-2.9666,-2.9779,-2.9972,-3.0419,-3.1365,-3.2321,-3.289,-3.289,-3.3739,-3.4279,-3.4279,-3.5019,-3.5504,-3.5504,-3.5504,0.0,-3.5504,-3.5504,-3.5504,-3.5504,-3.5504,-3.5504,-3.5504,0.0,0.0,-3.5504,-3.5504,-3.5504,-3.5504,-3.5504,-3.5504,-3.5504,-3.5504,-3.5504,-3.5504,-3.5651,-3.5701,-3.5701,-3.5701,-3.5619,-3.5537,-3.5668,-3.5185,-3.4399,-3.3709,-3.3051,-3.2363,-3.1705,-3.1611,0.0,-3.171,-3.1416,-3.0919,-3.016,-2.9568,-2.9073,-2.8745,-2.8662,-2.8803,-2.9293,-2.9406,-2.9204,-2.8527,-2.8485,-2.8141,-2.6893,-2.7607,-2.832,-2.8167,-2.7589,-2.716,-2.716,-2.7024,-2.7051,-2.7378,-2.7426,-2.7574,-2.795,-2.8043,-2.8192,-2.8502,-2.8868,-2.9078,-2.9078,-2.9844,-3.0654,-3.1464,-3.2262,-3.3072,-3.3876,-3.3815,-3.3829,-3.3876,-3.3941,-3.3967,0.0,0.0,0.0,0.0,0.0,0.0,0.0,0.0,0.0,0.0,0.0,-2.6113,0.0,0.0,-2.8607,-2.89,-2.9443,-2.9792,-2.9792,-2.9792,-2.996,-3.0457,-3.1328,-3.1888,-3.1888,-3.2749,-3.331,-3.331,-3.3754,-3.4056,-3.4056,-3.4056,-3.4056,-3.4056,-3.4056,-3.4056,-3.4056,-3.4056,-3.4056,-3.4056,-3.4509,-3.4509,-3.4056,-3.4543,-3.4476,-3.4056,-3.4056,-3.4327,-3.4758,-3.4758,-3.4476,-3.4056,-3.4056,-3.4624,-3.5504,-3.5504,-3.5504,-3.5504,-3.5504,-3.5055,-3.4399,-3.3709,-3.3051,-3.2363,-3.1705,-3.1511,-3.1511,-3.1511,-3.1017,-3.0357,-2.9771,-2.9086,-2.8505,-2.8136,-2.8042,-2.8125,-2.8424,-2.8256,-2.7791,-2.7131,-2.6933,-2.6577,-2.5526,-2.6002,-2.6506,-2.6506,-2.6193,-2.5946,-2.5946,-2.6192,-2.6436,-2.664,-2.6873,-2.7162,-2.7577,-2.7779,-2.7982,-2.8143,-2.8334,-2.8456,-2.8456,-2.8835,-2.9439,-3.0229,-3.1014,-3.1791,-3.26,-3.2967,-3.3148,-3.3148,-3.3148,-3.3372,0.0,0.0,0.0,0.0,0.0,0.0,0.0,0.0,-2.3897,-2.4898,-2.5243,-2.5595,-2.6341,-2.7209,-2.7804,-2.7804,-2.8569,-2.9248,-2.9456,-2.9495,-2.9534,-2.9753,-3.0482,-3.0932,-3.0932,-3.1792,-3.2321,-3.2321,-3.25,-3.2593,-3.2593,-3.2593,-3.2593,-3.2593,-3.2593,-3.2593,-3.2593,-3.2593,-3.2593,-3.2593,-3.338,-3.3345,-3.2629,-3.338,-3.331,-3.2593,-3.2593,-3.3031,-3.3739,-3.3739,-3.3276,-3.2593,-3.2593,-3.3547,-3.492,-3.492,-3.492,-3.4905,-3.482,-3.4333,-3.3655,-3.3037,-3.2371,-3.1707,-3.1191,-3.0999,-3.0999,-3.0881,-3.0394,-2.9715,-2.9138,-2.8583,-2.8055,-2.7516,-2.7382,-2.7382,-2.7382,-2.6762,-2.6022,-2.5506,-2.5213,-2.4891,-2.4327,-2.4597,-2.4969,-2.5182,-2.5202,-2.5202,-2.5202,-2.5577,-2.5852,-2.5852,-2.6192,-2.659,-2.7018,-2.75,-2.7779,-2.7779,-2.7855,-2.7897,-2.7897,-2.7897,-2.828,-2.9071,-2.9824,-3.0603,-3.1397,-3.2128,-3.2501,-3.2501,-3.2501,-3.2887,-2.1132,-2.1553,-2.176,-2.1439,-2.1381,-2.163,0.0,0.0,-2.231,-2.4963,-2.4922,-2.4789,-2.6229,-2.6607,-2.6678,-2.6678,-2.6812,-2.7209,-2.8148,-2.8307,-2.8688,-2.9663,-2.9895,-2.9972,-2.9972,-3.0809,-3.1352,-3.1352,-3.2141,-3.2593,-3.2593,-3.2593,-3.2593,-3.2593,-3.2593,-3.2593,-3.2593,-3.2593,-3.2593,-3.2593,-3.2713,-3.2713,-3.2593,-3.2713,-3.2713,-3.2593,-3.2593,-3.2664,-3.2749,-3.2749,-3.2713,-3.2593,-3.2593,-3.2749,-3.2925,-3.2925,-3.2925,-3.2856,-3.2381,-3.178,-3.1132,-3.0564,-2.9949,-2.9369,-2.93,-2.9286,-2.9174,-2.8691,-2.8104,-2.7446,-2.6903,-2.6745,-2.6703,-2.663,-2.6616,-2.6616,-2.6616,-2.5637,-2.4725,-2.4646,-2.4244,-2.3846,-2.3721,-2.3745,-2.4095,-2.5067,-2.5202,-2.5202,-2.5202,-2.5259,-2.5297,-2.5297,-2.5335,-2.558,-2.6104,-2.6888,-2.738,-2.738,-2.7692,-2.7897,-2.7897,-2.7897,-2.828,-2.9071,-2.9824,-3.0603,-3.1397,-3.2128,-3.2501,-3.2501,-3.2501,-3.255,-2.0791,-2.1172,-2.1396,0.0,-2.1045,-2.1311,-2.172,-2.1887,-2.232,-2.3556,-2.3676,-2.375,-2.4394,-2.5052,-2.5504,0.0,-2.6058,-2.6637,-2.7128,-2.7168,-2.7331,-2.7799,-2.841,-2.9067,-2.9753,-3.0139,-3.0381,-3.0381,-3.0746,-3.0959,-3.0959,-3.0959,-3.0959,-3.0959,-3.0959,-3.0959,-3.0959,-3.0959,-3.0959,-3.0996,-3.1536,-3.1513,-3.0996,-3.1536,-3.1513,-3.0996,-3.1536,-3.1476,-3.102,-3.1536,-3.1476,-3.0959,-3.0959,-3.0959,-3.1095,-3.2177,-3.2407,-3.2111,-3.1896,-3.1175,-3.0297,-3.0081,-2.9564,-2.9002,-2.9002,-2.9002,-2.8878,-2.8363,-2.7723,-2.7098,-2.6548,-2.6134,-2.5864,-2.5864,-2.5864,-2.5766,-2.5413,-2.4614,-2.3872,-2.3522,-2.2963,-2.2513,-2.2498,-2.2478,-2.2645,-2.3098,-2.3788,-2.4266,-2.4266,-2.4552,-2.4835,-2.5163,-2.5202,-2.5297,-2.5521,-2.5859,-2.6074,-2.6074,-2.625,-2.6336,-2.6336,-2.6336,-2.6487,-2.6824,-2.7931,-2.8686,-2.9026,-3.0143,-3.0694,-3.0694,-3.0694,-3.0694,-2.0527,-2.0801,0.0,-2.0683,-2.0898,-2.122,-2.1346,-2.1982,-2.2549,-2.2656,-2.2886,-2.3091,-2.3091,-2.3757,-2.4339,-2.4339,-2.501,-2.5683,-2.5975,-2.6016,-2.6141,-2.6472,-2.7209,-2.7988,-2.8791,-2.9456,-2.9663,-2.9365,-2.9624,-2.9663,-2.9365,-2.9624,-2.9792,-2.9792,-2.9495,-2.9326,-2.9326,-2.904,-2.904,-2.9353,-3.0024,-3.0152,-2.983,-3.0482,-3.0279,-2.9353,-3.005,-2.9782,-2.8949,-2.9602,-2.9666,-2.9275,-2.8868,-2.8897,-2.9311,-3.0498,-3.0949,-3.0969,-3.0667,-3.0004,-2.9214,-2.9085,-2.8714,-2.8298,-2.8298,-2.8177,-2.7966,-2.7404,-2.6823,-2.6199,-2.5621,-2.5305,-2.5091,-2.5091,-2.5091,-2.4927,-2.4327,-2.358,-2.2893,-2.2474,-2.1885,-2.1496,-2.1673,-2.1697,-2.1697,-2.1697,-2.2478,-2.3069,-2.3069,-2.3593,-2.4085,-2.448,-2.4796,-2.4973,-2.4973,-2.5125,-2.5202,-2.5202,-2.5202,-2.5202,-2.5202,-2.5202,-2.5202,-2.5202,-2.6574,-2.7294,-2.7294,-2.8718,-2.9406,-2.9406,-2.9406,-2.9406,-2.0323,-2.0615,-2.0625,-2.0605,-2.0898,-2.1307,-2.1768,-2.2197,-2.2627,-2.2994,-2.3081,-2.3091,-2.3091,-2.3135,-2.3135,-2.3135,-2.3178,-2.3594,-2.4713,-2.483,-2.5252,-2.6359,-2.6524,-2.6554,0.0,-2.8542,-2.9326,-2.8215,-2.9197,-2.9326,-2.8215,-2.9197,-2.9792,-2.9792,-2.8727,-2.8136,-2.8136,-2.7128,-2.7128,-2.8136,-2.8176,-2.8767,-2.9792,-2.983,-2.9223,-2.8164,-2.8164,-2.7602,-2.6607,-2.6637,-2.7238,-2.7996,-2.6508,-2.6602,-2.7493,-2.698,-2.7703,-2.8849,-2.7803,-2.7412,-2.7299,-2.6791,-2.6602,-2.6589,-2.6589,-2.6164,-2.5577,-2.5048,-2.4507,-2.3941,-2.3362,-2.375,-2.4321,-2.4321,-2.4321,-2.4178,-2.357,-2.245,-2.1593,-2.1616,-2.1191,-2.1004,-2.1615,-2.1697,-2.1697,-2.1697,-2.172,-2.1767,-2.1767,-2.2346,-2.2762,-2.2762,-2.3749,-2.443,-2.443,-2.4894,-2.5202,-2.5202,-2.5202,-2.5202,-2.5202,-2.5202,-2.5202,-2.5202,-2.6574,-2.7294,-2.7294,-2.8718,-2.9406,-2.9406,-2.9406,-2.9406,-1.8301,-1.8421,-1.8421,-1.8421,-1.8871,-1.9589,-2.0531,-2.1256,-2.1961,-2.2921,-2.3091,-2.3091,-2.3091,-2.3091,-2.3091,-2.3091,-2.3091,-2.3222,-2.3637,-2.3681,-2.38,-2.4188,-2.4925,0.0,0.0,0.0,0.0,-2.7087,-2.7383,-2.7424,-2.7046,-2.7383,-2.7597,-2.7597,-2.7261,-2.7046,-2.7046,-2.6678,-2.6678,-2.7046,-2.7046,-2.7261,-2.7597,-2.7597,-2.7383,-2.7046,-2.7046,-2.6842,-2.6524,-2.6524,-2.6526,-2.652,-2.5989,-2.5859,-2.5908,-2.5291,-2.5399,-2.6005,-2.6952,-2.6629,-2.5754,-2.5572,-2.5063,-2.4446,-2.419,-2.3956,-2.364,-2.2786,-2.2423,-2.2145,-2.1588,-2.1655,-2.1849,-2.1849,-2.1618,-2.1242,-2.0676,-2.0015,-1.9394,-1.9032,-1.881,-1.8732,-1.8933,-1.9389,-1.9876,-2.0357,-2.1159,-2.1697,-2.1697,-2.1899,-2.2053,-2.2053,-2.2381,-2.2616,-2.2616,-2.2767,-2.2878,-2.2878,-2.2878,-2.3069,-2.352,-2.3541,-2.3939,-2.4784,-2.5693,-2.6405,-2.6849,-2.7754,-2.8222,-2.8222,-2.8222,-2.8222,-1.7482,-1.7597,-1.7597,-1.7597,-1.8083,-1.8736,-1.9505,-2.021,-2.089,-2.1632,-2.2183,-2.2448,-2.2448,-2.2818,-2.3091,-2.3091,-2.3091,-2.3091,-2.3091,-2.3091,-2.3091,-2.3091,-2.3757,-2.4168,0.0,0.0,0.0,-2.5839,-2.6265,-2.6307,-2.5922,-2.6265,-2.6524,-2.6524,-2.6099,-2.588,-2.588,-2.5473,-2.5473,-2.5891,-2.6307,-2.6524,-2.6524,-2.6524,-2.6265,-2.588,-2.588,-2.5585,-2.5069,-2.5069,-2.5027,-2.4923,-2.4371,-2.4241,-2.4305,-2.3683,-2.3497,-2.3723,-2.5371,-2.5302,-2.4445,-2.4445,-2.3921,-2.3248,-2.2969,-2.2667,-2.224,-2.1565,-2.1261,-2.1015,-2.0701,-2.059,-2.059,-2.059,-2.0241,-1.9736,-1.9213,-1.8789,-1.8323,-1.7734,-1.7605,-1.7605,-1.7605,-1.7977,-1.8474,-1.8927,-1.9698,-2.0442,-2.0951,-2.1232,-2.139,-2.139,-2.1568,-2.1697,-2.1697,-2.1697,-2.1697,-2.1697,-2.1697,-2.1899,-2.2323,-2.2346,-2.283,-2.388,-2.4543,-2.5184,-2.581,-2.6491,-2.6811,-2.6811,-2.6811,-2.6811,-1.7679,-1.8035,-1.8035,-1.8035,-1.8337,-1.8633,-1.8677,-1.9097,-1.9451,-1.9497,-2.0395,-2.1203,0.0,0.0,-2.296,-2.3003,-2.3003,-2.3047,-2.3091,-2.3091,-2.3091,0.0,0.0,0.0,0.0,0.0,0.0,-2.4628,0.0,-2.5839,-2.4787,-2.5724,-2.6318,-2.6318,-2.5294,-2.4702,-2.4702,-2.3637,-2.3637,-2.4745,-2.5808,-2.6318,-2.6318,-2.6318,-2.5703,-2.4671,-2.4671,-2.3849,-2.248,-2.248,-2.2813,-2.3229,-2.177,-2.1868,-2.2696,-2.2129,-2.1924,-2.2065,-2.3036,-2.3368,-2.3404,-2.3404,-2.3128,-2.2726,-2.2739,-2.2023,-2.1252,-2.123,-2.0851,-2.0462,-2.0462,-2.0462,-2.0451,-2.0429,-2.0082,-1.958,-1.9059,-1.8639,-1.8187,-1.7584,-1.7495,-1.7495,-1.755,-1.755,-1.755,-1.7594,-1.7605,-1.8124,-1.9501,-2.0245,-2.0646,-2.0646,-2.1159,-2.1493,-2.1493,-2.1493,-2.1493,-2.1493,-2.1493,-2.153,-2.1643,-2.1643,-2.1959,-2.2683,-2.3315,-2.3894,-2.4447,-2.508,-2.5398,-2.5398,-2.5398,-2.5398,-1.5718,-1.5835,-1.5835,-1.5835,-1.6062,-1.6502,-1.7387,-1.788,-1.8411,-1.9314,-1.9716,-1.9943,0.0,0.0,0.0,-2.1623,-2.1756,0.0,-2.296,-2.3091,0.0,-2.1845,0.0,-2.2775,-2.1845,-2.258,0.0,0.0,-2.38,-2.3854,-2.3551,-2.381,-2.3973,-2.3973,-2.3681,-2.3551,-2.3551,-2.3266,-2.3266,-2.3551,-2.3844,-2.3973,-2.3973,-2.3973,-2.3629,-2.3073,-2.3073,-2.2676,-2.2041,-2.2041,-2.1942,-2.177,-2.135,-2.1174,-2.1171,-2.1012,-2.0972,-2.1011,-2.1231,-2.1821,-2.2366,-2.2366,-2.1611,-2.0616,-2.0327,-1.9793,-1.9241,-1.8951,-1.8778,-1.8654,-1.8654,-1.8654,-1.8572,-1.8281,-1.7865,-1.7398,-1.6972,-1.6514,-1.6139,-1.5989,-1.5968,-1.614,-1.668,-1.6793,-1.6978,-1.7523,-1.7605,-1.7743,-1.8124,-1.8328,-1.8424,-1.8424,-1.8561,-1.8655,-1.8655,-1.8655,-1.8655,-1.8655,-1.8655,-1.93,-2.0746,-2.081,-2.1786,-2.3897,-2.4102,-2.4515,-2.5163,-2.5315,-2.5398,-2.5398,-2.5398,-2.5398,-1.5311,-1.5344,-1.5344,-1.5344,-1.5464,-1.5765,-1.6433,-1.6714,-1.7084,-1.7762,-1.8311,0.0,-1.8726,-1.9131,0.0,0.0,0.0,0.0,-2.14,-2.1498,-2.1266,0.0,-2.1123,0.0,-2.0576,-2.1123,-2.1498,0.0,-2.2501,-2.2862,-2.235,-2.2306,-2.2085,-2.1543,-2.1498,-2.1498,-2.1498,-2.2041,-2.2031,-2.1543,-2.2041,-2.1991,-2.1332,-2.1332,-2.1156,-2.0781,0.0,-2.0552,-2.0195,-2.0195,-1.9907,-1.9502,-1.9502,-1.9356,-1.9146,-1.9146,-1.9146,-1.9146,-1.9146,-1.944,-1.9908,-2.0795,-2.0412,-1.9487,-1.8649,-1.8069,-1.7577,-1.6961,-1.6759,-1.6862,-1.7285,-1.7389,-1.7285,-1.6911,-1.6495,-1.5942,-1.517,-1.4675,-1.4362,-1.4362,-1.4362,-1.4471,-1.4895,-1.4953,-1.509,-1.5524,-1.5582,-1.5697,-1.6061,-1.6974,-1.7605,-1.7605,-1.7605,-1.7605,-1.7605,-1.7605,-1.7605,-1.7605,-1.7779,-1.8395,-1.9495,-1.9694,-2.0609,-2.2293,-2.2334,-2.2655,-2.3297,-2.3297,-2.3297,-2.3297,-2.3297,-2.3297,-1.5758,-1.5784,-1.5784,-1.5784,-1.5784,-1.5784,-1.5784,-1.5784,-1.5784,-1.5784,0.0,-1.7458,-1.7458,-1.8319,-1.9077,-1.9222,0.0,-1.9314,-1.9497,-1.9497,-1.9451,-1.9268,-1.9405,-1.9451,-1.9268,-1.9405,-1.9497,-1.9497,-2.1445,-2.2173,-2.1114,-2.1069,-2.0576,-1.9534,-1.9497,-1.9497,-1.9497,-2.0531,-2.0531,-1.9488,-2.0523,-2.0332,-1.9093,-1.9043,-1.8862,-1.8512,0.0,0.0,-1.7896,-1.7896,-1.7664,-1.7302,-1.7302,-1.7302,-1.7302,-1.7302,-1.7302,-1.7285,-1.7244,-1.7085,-1.7203,-1.8927,-1.9199,-1.8604,-1.7388,-1.6741,-1.6245,-1.5446,-1.5199,-1.5376,-1.621,-1.6419,-1.6312,-1.5932,-1.5564,-1.4971,-1.3775,-1.3254,-1.3009,-1.3009,-1.3009,-1.3009,-1.3009,-1.3009,-1.3009,-1.3009,-1.3009,-1.3243,-1.3936,-1.5861,-1.718,-1.7291,-1.7302,-1.7302,-1.7302,-1.7357,-1.7401,-1.7401,-1.7834,-1.8159,-1.8331,-1.8669,-1.9152,-1.9825,-1.9836,-2.008,-2.059,-2.059,-2.059,-2.059,-2.059,-2.059,-1.5764,-1.5784,-1.5784,-1.5784,-1.5784,-1.5784,-1.5784,-1.5784,0.0,0.0,-1.5967,-1.6109,-1.6109,-1.6292,-1.6796,-1.7824,-1.8002,-1.8365,0.0,0.0,-1.9131,0.0,0.0,0.0,0.0,0.0,0.0,0.0,0.0,-2.0042,-1.9807,-1.9807,-1.9716,-1.9497,-1.9497,-1.9497,-1.9497,-1.9724,-1.9724,-1.9488,-1.9505,-1.9329,-1.9085,-1.8821,-1.8487,-1.8104,-1.8104,0.0,-1.7433,-1.7433,-1.7359,-1.7302,-1.7302,-1.7302,-1.7302,-1.7302,-1.7302,-1.7252,-1.7058,-1.694,-1.696,-1.732,-1.6973,-1.637,-1.6119,-1.5768,-1.5411,-1.5234,-1.5199,-1.5234,-1.5411,-1.5446,-1.527,-1.4605,-1.4387,-1.4127,-1.3271,-1.305,-1.3009,-1.3009,-1.3009,-1.3009,-1.3009,-1.3009,-1.3009,-1.3009,-1.3009,-1.3039,-1.3183,-1.4127,-1.5051,-1.5709,-1.5767,-1.5767,-1.5767,-1.6147,-1.6357,-1.6357,-1.6747,-1.746,-1.85,-1.8617,-1.9231,-2.0413,-2.0424,-2.0501,-2.059,-2.059,-2.059,-2.059,-2.059,-2.059,-1.5784,-1.5784,-1.5784,-1.5784,-1.5784,-1.5784,-1.5784,0.0,0.0,0.0,-1.5784,-1.5784,-1.5784,-1.5784,0.0,-1.6622,-1.6716,-1.6897,-1.7483,0.0,0.0,0.0,0.0,0.0,0.0,0.0,0.0,0.0,0.0,-1.7848,-1.8549,-1.794,-1.7569,-1.7569,-1.7569,-1.7569,-1.7569,-1.8226,-1.818,-1.7362,-1.7869,-1.7613,-1.6712,-1.6554,-1.6299,-1.5958,-1.5958,0.0,-1.5636,-1.5636,-1.5636,-1.5636,-1.5636,-1.5636,-1.5636,-1.5636,-1.5524,-1.5353,-1.523,-1.4978,-1.4764,-1.4764,-1.5229,-1.5658,-1.4932,-1.4584,-1.4314,-1.3846,-1.3702,-1.381,-1.4271,-1.4414,-1.4289,-1.3787,-1.319,-1.2602,-1.2225,-1.2158,-1.2158,-1.2158,-1.2158,-1.2158,-1.2158,-1.2158,-1.2158,-1.2158,-1.2158,-1.2328,-1.2779,-1.3188,-1.3653,-1.4285,-1.4506,-1.4631,-1.4631,-1.484,-1.4948,-1.4948,-1.5322,-1.5839,-1.6434,-1.6715,-1.736,-1.8506,-1.8516,-1.877,-1.9243,-1.9243,-1.9243,-1.9243,-1.9243,-1.9243,-1.5784,-1.5784,-1.5784,-1.5784,-1.5784,-1.5784,-1.5784,-1.5784,0.0,-1.5784,-1.5784,-1.5784,-1.5784,-1.5784,-1.5784,0.0,-1.5784,-1.5784,-1.5784,0.0,0.0,0.0,0.0,0.0,0.0,0.0,0.0,0.0,0.0,0.0,-1.7225,-1.6339,-1.5784,-1.5784,-1.5784,-1.5784,-1.5784,-1.6739,-1.659,-1.5398,-1.623,-1.5866,-1.4516,-1.4456,-1.4302,-1.4088,-1.4088,0.0,0.0,-1.4088,-1.4088,-1.4088,-1.3822,-1.3688,-1.3724,-1.3665,-1.3454,-1.3246,-1.3372,-1.314,-1.2732,-1.2475,-1.3597,-1.4833,-1.3747,-1.3382,-1.3237,-1.2519,-1.2305,-1.2482,-1.32,-1.3382,-1.3338,-1.306,-1.2013,-1.1073,-1.1073,-1.0895,-1.0757,-1.0757,-1.0757,-1.0757,-1.0757,-1.0757,-1.0757,-1.0757,-1.0757,-1.1067,-1.1989,-1.2147,-1.2429,-1.3029,-1.3565,-1.3892,-1.3892,-1.399,-1.4039,-1.4039,-1.4434,-1.4665,-1.4665,-1.5006,-1.5552,-1.6289,-1.628,-1.668,-1.7407,-1.7407,-1.7407,-1.7407,-1.7407,-1.7407,-1.5784,-1.5784,-1.5784,-1.5784,-1.5784,-1.5784,-1.5784,0.0,-1.5784,-1.5784,-1.5784,-1.5784,-1.5784,-1.5784,-1.5784,-1.5784,-1.5784,-1.5784,-1.5784,0.0,0.0,0.0,0.0,0.0,0.0,0.0,0.0,0.0,0.0,0.0,-1.5967,-1.5872,-1.5784,-1.5784,-1.5784,-1.5784,-1.5784,-1.5658,-1.5556,-1.5391,-1.4939,-1.4657,-1.4466,-1.4249,-1.4115,-1.4088,-1.4088,0.0,0.0,-1.4088,-1.4088,-1.3997,-1.2899,-1.2456,-1.2426,-1.2195,-1.2094,-1.2128,-1.2687,-1.2831,-1.2585,-1.1396,-1.1726,-1.259,-1.2452,-1.2445,-1.2409,-1.2335,-1.2305,-1.2335,-1.2409,-1.2445,-1.2371,-1.208,-1.1023,-1.0048,-1.0048,-0.9313,-0.8684,-0.8684,-0.8684,-0.8684,-0.8684,-0.8684,-0.8684,-0.8684,-0.8684,-0.9034,-1.0048,-1.0437,-1.0974,-1.1925,-1.3153,-1.3892,-1.3892,-1.4244,-1.4432,-1.4432,-1.4872,-1.5149,-1.5149,-1.5182,-1.5234,-1.534,-1.534,-1.5376,-1.5446,-1.5446,-1.5446,-1.5446,-1.5446,-1.5446,-1.4657,-1.4657,-1.4657,-1.4657,-1.4657,-1.4657,-1.4657,0.0,-1.5784,-1.5784,-1.5784,-1.5784,-1.5784,-1.5784,-1.5784,-1.5784,-1.5784,-1.5784,-1.5784,0.0,0.0,0.0,0.0,0.0,0.0,0.0,0.0,0.0,0.0,0.0,-1.3451,-1.422,-1.4657,-1.4657,-1.3884,-1.3425,-1.3318,-1.3215,-1.3061,-1.2801,-1.2555,-1.2338,-1.214,-1.2043,-1.1997,-1.1997,-1.1997,0.0,0.0,-1.1997,-1.1997,-1.1955,-1.1472,-1.1295,-1.1268,-1.1073,-1.0889,-1.0722,-1.0875,-1.0814,-1.0595,-1.0078,-1.0158,-1.0496,-1.0496,-1.0496,-1.0496,-1.0496,-1.0496,-1.0496,-1.0496,-1.0496,-1.0473,-1.0376,-0.9943,-0.9542,-0.9542,-0.9207,-0.895,-0.895,-0.895,-0.895,-0.895,-0.895,-0.895,-0.895,-0.895,-0.9102,-0.9505,-0.9659,-0.9903,-1.0279,-1.1889,-1.2933,-1.2933,-1.3078,-1.3186,-1.3186,-1.3338,-1.3448,-1.3448,-1.3448,-1.3738,-1.4279,-1.4314,-1.4593,-1.5199,-1.5199,-1.5199,-1.5199,-1.5199,-1.5199,-1.3295,-1.3295,-1.3295,-1.3295,-1.3295,-1.3392,0.0,0.0,-1.5337,-1.573,-1.5784,-1.5784,-1.5784,-1.5784,-1.5784,-1.5784,-1.5486,-1.5242,-1.5242,-1.4902,0.0,0.0,0.0,0.0,0.0,0.0,0.0,0.0,0.0,0.0,0.0,-1.2425,-1.2909,-1.3295,-1.2382,-1.1839,-1.1706,-1.164,-1.141,-1.1122,-1.1011,-1.085,-1.0611,-1.0611,-1.0611,-1.0611,0.0,0.0,0.0,-1.0611,-1.0611,-1.0567,-1.0226,-1.0058,-1.0014,-0.9801,-0.9584,-0.9372,-0.9521,-0.9466,-0.9258,-0.8955,-0.8846,-0.8803,-0.8504,-0.8846,-0.9296,-0.9296,-0.9296,-0.9296,-0.9296,-0.9296,-0.9296,-0.9296,-0.9069,-0.8846,-0.8846,-0.8618,-0.8428,-0.8428,-0.8428,-0.8428,-0.8428,-0.8428,-0.8428,-0.8428,-0.8428,-0.8504,-0.8808,-0.8846,-0.896,-0.9258,-1.0576,-1.1403,-1.1403,-1.1403,-1.1403,-1.1403,-1.1403,-1.1403,-1.1403,-1.1403,-1.1724,-1.2375,-1.2675,-1.3172,-1.3881,-1.4191,-1.4343,-1.4343,-1.4343,-1.4343,-1.1896,-1.1896,-1.1896,-1.1896,-1.1896,-1.2285,-1.3584,-1.3926,-1.4268,-1.5534,-1.5784,-1.5784,-1.5784,-1.5784,-1.5784,-1.5784,-1.4752,-1.392,-1.392,-1.277,0.0,0.0,0.0,0.0,0.0,0.0,0.0,0.0,0.0,0.0,0.0,-1.073,-1.0632,-1.1896,-1.1901,-1.1839,-1.1706,-1.144,-1.1263,-1.1117,-1.076,-1.0611,-1.0611,-1.0611,-1.0611,0.0,0.0,0.0,0.0,-1.0611,-1.0611,-1.0481,-0.9366,-0.8819,-0.867,-0.8358,-0.8133,-0.8142,-0.899,-0.9301,-0.9145,-0.8122,-0.7821,-0.7633,-0.6644,-0.7706,-0.9296,-0.9296,-0.9296,-0.9296,-0.9296,-0.9296,-0.9296,-0.9296,-0.8542,-0.7821,-0.7821,-0.7022,-0.6338,-0.6338,-0.6338,-0.6338,-0.6338,-0.6338,-0.6338,-0.6338,-0.6338,-0.6683,-0.7706,-0.7821,-0.8199,-0.9183,-0.9334,-0.9334,-0.9334,-0.9334,-0.9334,-0.9334,-0.9334,-0.9334,-0.9334,-0.9334,-0.9334,-0.9334,-1.0303,-1.082,-1.0858,-1.1842,-1.2342,-1.2342,-1.2342,-1.2342,-1.0583,-1.0583,-1.0583,-1.0583,-1.0583,-1.073,-1.1165,-1.1891,-1.2673,-1.306,-1.3108,-1.3108,-1.3108,-1.3108,-1.3108,-1.3108,-1.2818,-1.2528,0.0,0.0,0.0,0.0,0.0,0.0,0.0,0.0,0.0,0.0,0.0,0.0,0.0,-0.8871,-0.9217,-1.0583,-0.9632,-0.9052,-0.8883,-0.8706,-0.8529,-0.8351,-0.8252,-0.8229,-0.8229,-0.8229,0.0,0.0,0.0,0.0,0.0,-0.8229,-0.8229,-0.8173,-0.7722,-0.7522,-0.7442,-0.7167,-0.7031,-0.7001,-0.7192,-0.7253,-0.7215,-0.6872,-0.6756,-0.6718,-0.6412,-0.6756,-0.7253,-0.7253,-0.7253,-0.7253,-0.7253,-0.7253,-0.7253,-0.7253,-0.7022,-0.6756,-0.6756,-0.6528,-0.63,-0.63,-0.63,-0.63,-0.63,-0.63,-0.63,-0.63,-0.63,-0.6416,-0.6718,-0.6756,-0.6911,-0.7215,-0.7253,-0.7821,-0.9183,-0.9296,-0.9296,-0.9296,-0.9296,-0.9296,-0.9296,-0.9296,-0.9296,-0.9296,-0.9599,-0.9782,-0.9782,-1.0083,-1.0239,-1.0239,-1.0239,-1.0239,-0.9266,-0.9266,-0.9266,-0.9266,-0.9266,0.0,-0.9899,-1.0632,-1.1312,-1.1804,-1.1896,-1.1896,-1.1896,-1.1896,-1.1896,-1.1896,-1.1512,-1.117,0.0,0.0,0.0,0.0,0.0,0.0,0.0,0.0,0.0,0.0,0.0,0.0,0.0,-0.7988,-0.8354,-0.9168,-0.8292,-0.7743,-0.76,-0.7448,-0.7292,-0.7095,-0.7095,-0.7095,-0.7095,-0.7095,0.0,0.0,0.0,0.0,0.0,-0.7095,-0.7095,-0.7082,-0.694,-0.6852,-0.6814,-0.6563,-0.6477,-0.6419,-0.633,-0.6025,-0.5709,-0.5709,-0.5431,-0.5079,-0.5079,-0.567,-0.63,-0.63,-0.63,-0.63,-0.63,-0.63,-0.63,-0.63,-0.63,-0.63,-0.63,-0.5983,-0.5709,-0.5709,-0.5354,-0.5079,-0.5079,-0.5079,-0.5079,-0.5079,-0.5079,-0.5079,-0.5079,-0.5079,-0.5079,-0.5079,-0.5079,-0.5613,-0.6866,-0.7685,-0.8161,-0.8161,-0.8161,-0.8161,-0.8161,-0.8161,-0.8161,-0.8161,-0.8542,-0.8732,-0.8732,-0.9107,-0.9296,-0.9296,-0.9296,-0.9296,0.0,-0.7988,-0.7988,-0.7988,-0.7988,-0.8333,-0.9558,-0.9854,0.0,-1.1365,-1.1604,-1.1604,-1.1604,-1.1604,-1.1604,-1.1604,-1.0632,-0.9854,0.0,0.0,0.0,0.0,0.0,0.0,0.0,0.0,0.0,0.0,0.0,0.0,0.0,-0.7988,-0.7921,-0.7818,-0.7801,-0.7729,-0.7587,-0.7431,-0.7282,-0.7095,-0.7095,-0.7095,-0.7095,-0.7095,0.0,0.0,0.0,0.0,0.0,-0.7007,-0.6962,-0.6946,-0.6711,-0.6567,-0.643,-0.631,-0.6172,-0.6064,-0.6064,-0.5434,-0.4569,-0.4569,-0.3904,-0.3085,-0.3085,-0.4491,-0.6064,-0.6064,-0.6064,-0.6064,-0.6064,-0.6064,-0.6064,-0.6064,-0.6064,-0.6064,-0.6064,-0.5276,-0.4569,-0.4569,-0.3787,-0.3085,-0.3085,-0.3085,-0.3085,-0.3085,-0.3085,-0.3085,-0.3085,-0.3085,-0.3085,-0.3085,-0.3085,-0.3085,-0.3085,-0.4924,-0.6064,-0.6064,-0.6064,-0.6103,-0.618,-0.618,-0.6219,-0.63,-0.7215,-0.7706,-0.7706,-0.8618,-0.9074,-0.9074,-0.9074,-0.9074,-0.7988,0.0,-0.7988,-0.7988,-0.7988,-0.8088,0.0,-0.8482,-0.8577,-0.8871,-0.892,-0.892,-0.892,-0.892,-0.892,-0.892,-0.8676,-0.8482,0.0,0.0,0.0,0.0,0.0,0.0,0.0,0.0,0.0,0.0,0.0,0.0,0.0,-0.7988,-0.7921,-0.7818,-0.7706,-0.7577,-0.7424,-0.7272,-0.7132,-0.7095,-0.7095,-0.7095,-0.7095,-0.7095,0.0,0.0,0.0,0.0,-0.7051,-0.616,-0.5802,-0.5692,-0.4583,-0.4164,-0.4165,-0.3958,-0.3884,-0.3865,-0.3865,-0.3671,-0.3474,-0.3474,-0.3318,-0.3085,-0.3085,-0.3435,-0.3865,-0.3865,-0.3865,-0.3865,-0.3865,-0.3865,-0.3865,-0.3865,-0.3865,-0.3865,-0.3865,-0.3671,-0.3474,-0.3474,-0.3279,-0.3085,-0.3085,-0.3085,-0.3085,-0.3085,-0.3085,-0.3085,-0.3085,-0.3085,-0.3085,-0.3085,-0.3085,-0.3085,-0.3085,-0.3552,-0.3865,-0.3865,-0.3865,-0.4217,-0.504,-0.5079,-0.5473,-0.63,-0.6528,-0.6644,-0.6644,-0.6907,-0.7022,-0.7022,-0.7022,-0.7022,-0.7988,-0.7988,-0.7988,-0.7988,-0.7988,-0.7988,-0.7988,-0.7988,-0.7988,-0.7988,-0.7988,-0.7988,-0.7988,-0.7988,-0.7988,0.0,-0.7988,0.0,0.0,0.0,0.0,0.0,0.0,0.0,0.0,0.0,0.0,0.0,0.0,0.0,0.0,-0.6174,-0.6098,-0.5979,-0.5916,-0.6345,-0.7373,-0.7217,-0.7095,-0.7095,-0.7095,-0.7095,-0.7095,-0.6561,-0.6337,0.0,0.0,0.0,-0.544,-0.4819,-0.4554,-0.4488,-0.3665,-0.335,-0.3333,-0.318,-0.3085,-0.3085,-0.3085,-0.2812,-0.2347,-0.1839,-0.1682,-0.1682,-0.1682,-0.1682,-0.1877,-0.2851,-0.3085,-0.3085,-0.3085,-0.3085,-0.3085,-0.3085,-0.3085,-0.3085,-0.3085,-0.2735,-0.2425,-0.2425,-0.1995,-0.1682,-0.1682,-0.1682,-0.1682,-0.1682,-0.1682,-0.1682,-0.1682,-0.1682,-0.1682,-0.1682,-0.1682,-0.1682,-0.1682,-0.1682,-0.2072,-0.3046,-0.3085,-0.3357,-0.3943,-0.3984,-0.4256,-0.4805,-0.4838,-0.4838,-0.4838,-0.4833,-0.4993,-0.5354,-0.5354,-0.5673,-0.7988,-0.7988,-0.7988,-0.7988,-0.7988,-0.7988,-0.7988,-0.7988,-0.7988,-0.7988,-0.7988,-0.7988,-0.7988,-0.7988,0.0,0.0,0.0,0.0,0.0,0.0,0.0,0.0,0.0,0.0,0.0,0.0,0.0,0.0,0.0,0.0,0.0,-0.4016,-0.3948,-0.3801,-0.3798,-0.4786,-0.6784,-0.6662,-0.6558,-0.6558,-0.6558,-0.6558,-0.6514,-0.5578,-0.5134,0.0,0.0,0.0,-0.357,-0.3392,-0.3303,-0.3291,-0.2995,-0.2859,-0.2792,-0.2676,-0.2626,-0.2617,-0.2617,-0.2073,-0.1215,-0.0314,0.0,0.0,0.0,0.0,-0.0353,-0.215,-0.2617,-0.2617,-0.2617,-0.2617,-0.2617,-0.2617,-0.2617,-0.2617,-0.2617,-0.1957,-0.1372,-0.1372,-0.0628,0.0,0.0,0.0,0.0,0.0,0.0,0.0,0.0,0.0,0.0,0.0,0.0,0.0,0.0,0.0,-0.0745,-0.25,-0.2617,-0.2695,-0.2851,-0.3005,-0.3083,-0.3083,-0.3119,-0.3117,-0.3117,-0.323,-0.3581,-0.4178,-0.3979,-0.4574,-0.7988,-0.7988,-0.7988,-0.7988,-0.7988,-0.7988,-0.7988,-0.7988,-0.7988,-0.7988,-0.7988,-0.7988,-0.7988,-0.7988,-0.7988,0.0,0.0,0.0,0.0,0.0,0.0,0.0,0.0,0.0,0.0,0.0,0.0,0.0,0.0,0.0,0.0,0.0,-0.3948,-0.3801,-0.3798,-0.3916,-0.4172,-0.4156,-0.4148,-0.4148,-0.4148,-0.4148,-0.4148,-0.3972,-0.3881,0.0,0.0,-0.3614,-0.3525,-0.2503,-0.2057,-0.1963,-0.0917,-0.0513,-0.0503,-0.049,-0.0479,-0.0471,-0.0471,-0.0392,-0.0236,-0.0039,0.0,0.0,0.0,0.0,-0.0079,-0.0392,-0.0471,-0.0471,-0.0471,-0.0471,-0.0471,-0.0471,-0.0471,-0.0471,-0.0471,-0.0353,-0.0235,-0.0235,-0.0118,0.0,0.0,0.0,0.0,0.0,0.0,0.0,0.0,0.0,0.0,0.0,0.0,0.0,0.0,0.0,-0.0118,-0.0471,-0.0471,-0.0902,-0.1802,-0.2653,-0.3117,-0.3117,-0.3081,-0.3083,-0.3083,-0.3715,-0.4075,-0.4155,-0.2968,-0.2848,-0.7988,-0.7988,-0.7988,-0.7988,-0.7988,-0.7988,-0.7988,-0.7988,-0.7988,-0.7988,-0.7988,-0.7988,0.0,0.0,-0.6681,0.0,0.0,0.0,0.0,0.0,0.0,0.0,0.0,0.0,0.0,0.0,0.0,0.0,0.0,0.0,0.0,0.0,-0.1831,-0.1761,-0.1759,-0.1726,-0.1657,-0.1657,-0.2324,-0.3614,-0.3614,-0.3614,-0.357,-0.2903,-0.2637,-0.2592,0.0,-0.1657,-0.1612,-0.1076,-0.0807,-0.0761,-0.0219,0.0,0.0,0.0,0.0,0.0,0.0,0.0,0.0,0.0,0.0,0.0,0.0,0.0,0.0,0.0,0.0,0.0,0.0,0.0,0.0,0.0,0.0,0.0,0.0,0.0,0.0,0.0,0.0,0.0,0.0,0.0,0.0,0.0,0.0,0.0,0.0,0.0,0.0,0.0,0.0,0.0,0.0,0.0,0.0,0.0,0.0,-0.0236,-0.0706,-0.1175,-0.1407,-0.1407,-0.1409,-0.1409,-0.1409,-0.1763,-0.1921,-0.1921,-0.1253,-0.1135,-0.7988,-0.7988,-0.7988,-0.7988,-0.7988,-0.7988,-0.7988,-0.7736,-0.7537,-0.7537,-0.7282,0.0,0.0,-0.6226,0.0,0.0,0.0,0.0,0.0,0.0,0.0,0.0,0.0,0.0,0.0,0.0,0.0,0.0,0.0,0.0,0.0,0.0,0.0,0.0,0.0,0.0,0.0,0.0,-0.0942,-0.2769,-0.2769,-0.2769,-0.2726,-0.179,-0.1389,-0.1344,-0.0404,0.0,0.0,0.0,0.0,0.0,0.0,0.0,0.0,0.0,0.0,0.0,0.0,0.0,0.0,0.0,0.0,0.0,0.0,0.0,0.0,0.0,0.0,0.0,0.0,0.0,0.0,0.0,0.0,0.0,0.0,0.0,0.0,0.0,0.0,0.0,0.0,0.0,0.0,0.0,0.0,0.0,0.0,0.0,0.0,0.0,0.0,0.0,0.0,0.0,0.0,0.0,0.0,0.0,0.0,0.0,0.0,0.0,0.0,0.0,0.0,0.0,0.0,0.0,0.0,0.0,-0.7988,-0.7988,-0.7988,-0.7988,-0.7988,-0.7988,-0.7988,-0.7033,-0.6129,-0.6129,-0.5172,0.0,0.0,-0.4216,0.0,0.0,0.0,0.0,0.0,0.0,0.0,0.0,0.0,0.0,0.0,0.0,0.0,0.0,0.0,0.0,0.0,0.0,0.0,0.0,0.0,0.0,0.0,0.0,-0.009,-0.0269,-0.0269,-0.0269,-0.0269,-0.018,-0.0135,-0.0135,-0.0045,0.0,0.0,0.0,0.0,0.0,0.0,0.0,0.0,0.0,0.0,0.0,0.0,0.0,0.0,0.0,0.0,0.0,0.0,0.0,0.0,0.0,0.0,0.0,0.0,0.0,0.0,0.0,0.0,0.0,0.0,0.0,0.0,0.0,0.0,0.0,0.0,0.0,0.0,0.0,0.0,0.0,0.0,0.0,0.0,0.0,0.0,0.0,0.0,0.0,0.0,0.0,0.0,0.0,0.0,0.0,0.0,0.0,0.0,0.0,0.0,0.0,0.0,0.0,0.0,0.0,-0.6983,-0.6731,-0.6578,-0.5722,-0.552,-0.5722,-0.6578,-0.6379,-0.5746,-0.4944,-0.4353,0.0,0.0,0.0,0.0,0.0,0.0,0.0,0.0,0.0,0.0,0.0,0.0,0.0,0.0,0.0,0.0,0.0,0.0,0.0,0.0,0.0,0.0,0.0,0.0,0.0,0.0,0.0,0.0,0.0,0.0,0.0,0.0,0.0,0.0,0.0,0.0,0.0,0.0,0.0,0.0,0.0,0.0,0.0,0.0,0.0,0.0,0.0,0.0,0.0,0.0,0.0,0.0492,0.1102,0.1007,0.1522,0.2073,0.1963,0.1916,0.1643,0.0353,0.0,0.0157,0.0824,0.098,0.1176,0.18,0.1449,0.098,0.098,0.098,0.098,0.098,0.1527,0.1916,0.1916,0.1916,0.1721,0.1058,0.1527,0.1683,0.1058,0.098,0.0706,0.0039,0.0,0.0,0.0,0.0,0.0,0.0,0.0,0.0,0.0,0.0,0.0,0.0,0.0,0.0,0.0,0.0,0.0,-0.5625,-0.5375,-0.5172,-0.4218,-0.4016,-0.4117,-0.4622,-0.4722,-0.4487,-0.3574,-0.3056,-0.2481,-0.1563,0.0,0.0,0.0,0.0,0.0,0.0,0.0,0.0,0.0,0.0,0.0,0.0,0.0,0.0,0.0,0.0,0.0,0.0,0.0,0.0,0.0,0.0,0.0,0.0,0.0,0.0,0.0,0.0,0.0,0.0,0.0,0.0,0.0,0.0,0.0,0.0,0.0,0.0,0.0,0.0,0.0,0.0044,0.0439,0.0563,0.0637,0.1019,0.1141,0.1135,0.1135,0.1678,0.2341,0.2265,0.2826,0.3426,0.3291,0.3275,0.2916,0.1522,0.107,0.1177,0.1976,0.2138,0.2339,0.311,0.272,0.2242,0.2242,0.2242,0.2242,0.2242,0.2798,0.3275,0.3275,0.3275,0.2997,0.2322,0.2839,0.2997,0.2322,0.2242,0.1923,0.1202,0.0922,0.0767,0.0738,0.0283,0.0,0.0,0.0,0.0,0.0,0.0,0.0,0.0,0.0,0.0,0.0,0.0,0.0,-0.3966,-0.3966,-0.3966,-0.3966,-0.3966,-0.3615,-0.2264,-0.2013,-0.2013,-0.1963,-0.0921,0.0,0.0,0.0,0.0,0.0,0.0,0.0,0.0,0.0,0.0,0.0,0.0,0.0,0.0,0.0,0.0,0.0,0.0,0.0,0.0,0.0,0.0,0.0,0.0,0.0,0.0,0.0,0.0,0.0,0.0,0.0,0.0,0.0,0.0,0.0,0.0,0.0,0.0,0.0,0.0,0.0,0.0,0.0,0.018,0.1344,0.181,0.1994,0.3206,0.3589,0.3606,0.3606,0.3606,0.3606,0.3604,0.3604,0.3646,0.3646,0.3646,0.3646,0.3646,0.3401,0.3183,0.3383,0.3361,0.3382,0.3586,0.3604,0.3604,0.3604,0.3604,0.3604,0.3604,0.3604,0.3646,0.3646,0.3646,0.3646,0.3646,0.3604,0.3604,0.3604,0.3604,0.3604,0.3604,0.2846,0.2385,0.2427,0.0878,0.0,0.0,0.0041,0.0041,0.0042,0.0042,0.0,0.0,0.0,0.0,0.0,0.0,0.0,-0.2865,-0.2614,-0.2363,-0.1411,-0.1209,-0.1058,-0.0706,-0.1323,-0.1745,-0.0771,-0.0258,0.0,0.0,0.0,0.0,0.0,0.0,0.0,0.0,0.0,0.0,0.0,0.0,0.0,0.0,0.0,0.0,0.0,0.0,0.0,0.0,0.0,0.0,0.0,0.0,0.0,0.0,0.0,0.0,0.0,0.0,0.0,0.0,0.0,0.0,0.0,0.0,0.0,0.0,0.0,0.0,0.0,0.0,0.0539,0.1299,0.1656,0.2315,0.3096,0.3495,0.3612,0.3592,0.3592,0.4164,0.485,0.4689,0.5227,0.5896,0.5802,0.5779,0.5779,0.5779,0.572,0.5464,0.4755,0.4596,0.477,0.5601,0.5189,0.4643,0.4643,0.4643,0.4643,0.4643,0.5272,0.5779,0.5779,0.5779,0.5779,0.5779,0.5105,0.4643,0.4643,0.4643,0.4353,0.3644,0.2846,0.2654,0.3213,0.1198,0.0,0.0,0.321,0.4226,0.2558,0.196,0.1554,0.1263,0.0397,0.0,0.0,0.0,0.0,-0.1411,-0.1209,-0.1008,-0.0202,0.0,0.0,0.0,0.0,0.0,0.0,0.0,0.0,0.0,0.0,0.0,0.0,0.0,0.0,0.0,0.0,0.0,0.0,0.0,0.0,0.0,0.0,0.0,0.0,0.0,0.0,0.0,0.0,0.0,0.0,0.0,0.0,0.0,0.0,0.0,0.0,0.0,0.0,0.0,0.0,0.0,0.0,0.0,0.0,0.0,0.0,0.0,0.0,0.0,0.0449,0.121,0.2147,0.2992,0.3748,0.4683,0.4994,0.4994,0.4994,0.5487,0.6057,0.5932,0.6393,0.695,0.6902,0.6875,0.6875,0.6875,0.6875,0.6688,0.599,0.581,0.5993,0.6691,0.6354,0.588,0.588,0.588,0.588,0.588,0.6443,0.6875,0.6875,0.6875,0.6875,0.6875,0.6312,0.588,0.588,0.588,0.5667,0.5027,0.4549,0.4488,0.4947,0.3627,0.2821,0.2827,0.5561,0.6441,0.4999,0.3925,0.3066,0.2532,0.1776,0.1433,0.1433,0.1434,0.1435,0.0,0.0,0.0,0.0,0.0,0.0,0.0,0.0,0.0,0.0,0.0,0.0,0.0,0.0,0.0,0.0,0.0,0.0,0.0,0.0,0.0,0.0,0.0,0.0,0.0,0.0,0.0,0.0,0.0,0.0,0.0,0.0,0.0,0.0,0.0,0.0,0.0,0.0,0.0,0.0,0.0,0.0,0.0,0.0,0.0,0.0,0.0,0.0,0.0,0.0,0.0045,0.018,0.018,0.0314,0.0763,0.2949,0.3837,0.4239,0.6378,0.7095,0.7095,0.7095,0.7095,0.7095,0.7095,0.7095,0.7095,0.7095,0.7095,0.7095,0.7095,0.7095,0.7065,0.6933,0.6906,0.694,0.7068,0.7095,0.7095,0.7095,0.7095,0.7095,0.7095,0.7095,0.7095,0.7095,0.7095,0.7095,0.7095,0.7095,0.7095,0.7095,0.7095,0.7095,0.7095,0.7095,0.7095,0.7095,0.7095,0.7095,0.7095,0.7081,0.7098,0.7098,0.573,0.4648,0.3927,0.3705,0.3659,0.3705,0.3621,0.3578,0.0,0.0,0.0,0.0,0.0,0.0,0.0,0.0,0.0,0.0,0.0,0.0,0.0,0.0,0.0,0.0,0.0,0.0,0.0,0.0,0.0,0.0,0.0,0.0,0.0,0.0,0.0,0.0,0.0,0.0,0.0,0.0,0.0,0.0,0.0,0.0,0.0,0.0,0.0,0.0,0.0,0.0,0.0,0.0,0.0,0.0,0.0,0.0,0.0,0.0,0.0539,0.1433,0.1433,0.255,0.4289,0.4821,0.5578,0.6425,0.6918,0.7095,0.7095,0.7095,0.7095,0.7095,0.7095,0.7095,0.7095,0.7095,0.7095,0.7095,0.7095,0.7095,0.7088,0.7058,0.7051,0.7058,0.7088,0.7095,0.7095,0.7095,0.7095,0.7095,0.7095,0.7095,0.7095,0.7095,0.7095,0.7095,0.7095,0.7095,0.7095,0.7095,0.7095,0.7095,0.7095,0.7095,0.7095,0.7095,0.7095,0.7095,0.7095,0.7102,0.7105,0.7105,0.6761,0.6539,0.6358,0.451,0.3931,0.4523,0.3892,0.3621,0.0,0.0,0.0,0.0,0.0,0.0,0.0,0.0,0.0,0.0,0.0,0.0,0.0,0.0,0.0,0.0,0.0,0.0,0.0,0.0,0.0,0.0,0.0,0.0,0.0,0.0,0.0,0.0,0.0,0.0,0.0,0.0,0.0,0.0,0.0,0.0,0.0,0.0,0.0,0.0,0.0,0.0,0.0,0.0,0.0,0.0045,0.0628,0.0852,0.0897,0.1478,0.2102,0.2681,0.2681,0.3438,0.4596,0.5179,0.5761,0.6384,0.6918,0.7095,0.7095,0.7095,0.7095,0.7095,0.7095,0.7095,0.7095,0.7095,0.7095,0.7095,0.7095,0.7095,0.7095,0.7095,0.7095,0.7095,0.7095,0.7095,0.7095,0.7095,0.7095,0.7095,0.7095,0.7095,0.7095,0.7095,0.7095,0.7095,0.7095,0.7095,0.7095,0.7095,0.7095,0.7095,0.7095,0.7095,0.7095,0.7095,0.7095,0.7095,0.7095,0.7095,0.7095,0.7095,0.7109,0.7112,0.7112,0.5891,0.5489,0.5902,0.545,0.5267,0.0,0.0,0.0,0.0,0.0,0.0,0.0,0.0,0.0,0.0,0.0,0.0,0.0,0.0,0.0,0.0,0.0,0.0,0.0,0.0,0.0,0.0,0.0,0.0,0.0,0.0,0.0,0.0,0.0,0.0,0.0,0.0,0.0,0.0,0.0,0.0,0.0,0.0,0.0098,0.0335,0.0563,0.0691,0.068,0.0678,0.054,0.0359,0.1567,0.2102,0.2191,0.317,0.3703,0.3927,0.3927,0.4016,0.4328,0.5312,0.5672,0.5849,0.6782,0.7095,0.7095,0.7095,0.7095,0.7095,0.7095,0.7095,0.7095,0.7095,0.7095,0.7095,0.7095,0.7095,0.7095,0.7095,0.7095,0.7095,0.7095,0.7095,0.7095,0.7095,0.7095,0.7095,0.7095,0.7095,0.7095,0.7095,0.7095,0.7095,0.7095,0.7095,0.7095,0.7095,0.7095,0.7095,0.7095,0.7095,0.7095,0.7095,0.7095,0.7095,0.7095,0.7095,0.7095,0.7095,0.7095,0.7095,0.7095,0.7095,0.7095,0.7095,0.7095,0.7095,0.0,0.0,0.0,0.0,0.0,0.0,0.0,0.0,0.0,0.0,0.0,0.0,0.0,0.0,0.0,0.0,0.0,0.0,0.0,0.0,0.0,0.0,0.0,0.0,0.0,0.0,0.0,0.0,0.0,0.0,0.0,0.0,0.0,0.0,0.0,0.0,0.0,0.0,0.0597,0.1754,0.2913,0.3448,0.3485,0.3331,0.2638,0.1612,0.2814,0.3349,0.3393,0.3525,0.4196,0.5179,0.5179,0.5758,0.6647,0.6827,0.6874,0.6915,0.7051,0.7095,0.7095,0.7095,0.7095,0.7095,0.7095,0.7095,0.7095,0.7095,0.7095,0.7095,0.7095,0.7095,0.7095,0.7095,0.7095,0.7095,0.7095,0.7095,0.7095,0.7095,0.7095,0.7095,0.7095,0.7095,0.7095,0.7095,0.7095,0.7095,0.7095,0.7095,0.7095,0.7095,0.7095,0.7095,0.7095,0.7095,0.7095,0.7095,0.7095,0.7095,0.7095,0.7095,0.7095,0.7095,0.7095,0.7095,0.7095,0.7095,0.7095,0.7095,0.7095,0.7095,0.0907,0.1109,0.131,0.2063,0.2264,0.2264,0.2264,0.0,0.0,0.0,0.0,0.0,0.0,0.0,0.0,0.0,0.0,0.0,0.0,0.0,0.0,0.0,0.0,0.0,0.0,0.0,0.0,0.0,0.0,0.0,0.0,0.0,0.0,0.0,0.0,0.0353,0.1109,0.1109,0.1796,0.3128,0.3733,0.3982,0.4034,0.4654,0.4168,0.2998,0.4129,0.4596,0.4641,0.5307,0.5888,0.634,0.634,0.665,0.7095,0.7095,0.7095,0.7095,0.7095,0.7095,0.7095,0.7095,0.7095,0.7095,0.7095,0.7095,0.7095,0.7095,0.7095,0.7095,0.7095,0.7204,0.7272,0.7272,0.7336,0.7397,0.7397,0.7216,0.7095,0.7095,0.7095,0.7095,0.7095,0.7095,0.7125,0.7255,0.7272,0.7299,0.7387,0.7397,0.7397,0.7397,0.7397,0.7397,0.7397,0.7305,0.7305,0.7351,0.7397,0.7351,0.7256,0.7351,0.7397,0.7397,0.7183,0.7095,0.7095,0.7095,0.7095,0.7095,0.7095,0.7095,0.1712,0.2264,0.2765,0.3765,0.4016,0.4016,0.0,0.0,0.0,0.0,0.0,0.0,0.0,0.0,0.0,0.0,0.0,0.0,0.0,0.0,0.0,0.0,0.0,0.0,0.0,0.0,0.0,0.0,0.0,0.0,0.0,0.0303,0.0353,0.0,0.0656,0.131,0.2013,0.2666,0.3494,0.453,0.4873,0.503,0.5056,0.5889,0.5779,0.4853,0.5596,0.5897,0.5983,0.6754,0.7095,0.7095,0.7095,0.7095,0.7095,0.7095,0.7095,0.7095,0.7095,0.7095,0.7095,0.7095,0.7095,0.7095,0.7095,0.7122,0.7156,0.7156,0.7183,0.7213,0.7213,0.7343,0.7431,0.7431,0.7516,0.76,0.76,0.7421,0.7213,0.7213,0.7213,0.7213,0.7213,0.7213,0.7295,0.7411,0.7431,0.7472,0.7587,0.76,0.76,0.76,0.76,0.76,0.76,0.7503,0.7503,0.76,0.76,0.7553,0.7453,0.755,0.76,0.76,0.7351,0.7223,0.7262,0.7244,0.7213,0.7213,0.7237,0.7247,0.1962,0.2914,0.3915,0.3966,0.4016,0.4016,0.0,0.0,0.0,0.0,0.0,0.0,0.0,0.0,0.0,0.0,0.0,0.0,0.0,0.0,0.0,0.0,0.0,0.0,0.0,0.0,0.0,0.0,0.0,0.0,0.0,0.1209,0.131,0.0051,0.2464,0.3215,0.2013,0.4522,0.5824,0.5919,0.7173,0.7773,0.7809,0.7719,0.7649,0.7578,0.7389,0.7311,0.7301,0.7156,0.7095,0.7095,0.7095,0.7095,0.7095,0.7095,0.7095,0.7095,0.7095,0.7095,0.7095,0.7095,0.7095,0.7095,0.7095,0.7244,0.7405,0.7405,0.7465,0.7573,0.7573,0.7584,0.7587,0.7587,0.7594,0.76,0.76,0.7587,0.7573,0.7573,0.7573,0.7573,0.7573,0.7573,0.758,0.7587,0.7587,0.759,0.7597,0.76,0.76,0.76,0.76,0.76,0.76,0.7647,0.7647,0.76,0.7647,0.7647,0.76,0.76,0.76,0.76,0.7573,0.7614,0.7661,0.7622,0.7573,0.7577,0.757,0.7563,0.3065,0.427,0.5475,0.6376,0.6575,0.6575,0.6575,0.0,0.0,0.0,0.0,0.0,0.0,0.0,0.0,0.0,0.0,0.0,0.0,0.0,0.0,0.0,0.0,0.0,0.0,0.0,0.0,0.0,0.0,0.0,0.131,0.2564,0.3065,0.2564,0.3515,0.4168,0.4572,0.6379,0.7285,0.7285,0.7786,0.7988,0.7988,0.7934,0.7907,0.7897,0.7743,0.76,0.7512,0.7458,0.7434,0.7434,0.7434,0.7434,0.7434,0.7434,0.7434,0.7434,0.7434,0.7434,0.7434,0.7434,0.7434,0.7434,0.7434,0.7475,0.7516,0.7516,0.7556,0.76,0.76,0.7665,0.776,0.7858,0.7882,0.7882,0.7882,0.7733,0.76,0.76,0.76,0.76,0.76,0.76,0.7631,0.7723,0.7736,0.777,0.7868,0.7882,0.7882,0.7882,0.7882,0.7882,0.7882,0.7882,0.7882,0.7882,0.7882,0.7882,0.7882,0.7882,0.7882,0.7882,0.7864,0.7804,0.764,0.7594,0.7611,0.76,0.7587,0.7601,0.3765,0.0,0.0,0.0,0.7988,0.7988,0.7988,0.0,0.0,0.0,0.0,0.0,0.0,0.0,0.0,0.0,0.0,0.0,0.0,0.0,0.0,0.0,0.0,0.0,0.0,0.0,0.0,0.0,0.0,0.0,0.2715,0.3967,0.487,0.532,0.4918,0.5322,0.6681,0.7537,0.7988,0.7988,0.7988,0.7988,0.7988,0.7988,0.7988,0.7985,0.7884,0.7804,0.7665,0.7617,0.76,0.76,0.76,0.76,0.76,0.76,0.76,0.76,0.76,0.76,0.76,0.76,0.76,0.76,0.76,0.7634,0.7672,0.7672,0.7706,0.7746,0.7746,0.7818,0.7913,0.7965,0.7988,0.7988,0.7988,0.7837,0.7746,0.7746,0.7746,0.7746,0.7746,0.7746,0.778,0.7875,0.7889,0.7877,0.7978,0.7988,0.7988,0.7988,0.7988,0.7988,0.7988,0.7988,0.7988,0.7988,0.7988,0.7988,0.7988,0.7988,0.7988,0.7988,0.7988,0.7894,0.7746,0.7711,0.7711,0.7746,0.7746,0.7746,0.0,0.0,0.0,0.0,0.0,0.0,0.7988,0.0,0.0,0.0,0.0,0.0,0.0,0.0,0.0,0.0,0.0,0.0,0.0,0.0,0.0,0.0,0.0,0.0,0.0,0.0,0.0,0.0,0.0,0.4116,0.4066,0.5322,0.6631,0.7939,0.6734,0.6681,0.7988,0.7988,0.7988,0.7988,0.7988,0.7988,0.7988,0.7988,0.7988,0.7988,0.7988,0.7907,0.7807,0.7672,0.7611,0.7611,0.7611,0.7611,0.7611,0.7611,0.7611,0.7611,0.7611,0.7611,0.7611,0.7611,0.7611,0.7611,0.7611,0.7709,0.7818,0.7818,0.7877,0.7988,0.7988,0.7988,0.7988,0.7988,0.7988,0.7988,0.7988,0.7988,0.7988,0.7988,0.7988,0.7988,0.7988,0.7988,0.7988,0.7988,0.7988,0.7988,0.7988,0.7988,0.7988,0.7988,0.7988,0.7988,0.7988,0.7988,0.7988,0.7988,0.7988,0.7988,0.7988,0.7988,0.7988,0.7988,0.7988,0.7988,0.7988,0.7988,0.7988,0.7988,0.7988,0.7988,0.3715,0.0,0.0,0.0,0.0,0.0,0.0,0.0,0.0,0.0,0.0,0.0,0.0,0.0,0.0,0.0,0.0,0.0,0.0,0.0,0.0,0.0,0.0,0.0,0.0,0.0,0.0,0.0,0.6326,0.6478,0.5475,0.6731,0.7637,0.7988,0.7637,0.7637,0.7988,0.7988,0.7988,0.7988,0.7988,0.7988,0.7988,0.7988,0.7988,0.7988,0.7988,0.7965,0.7924,0.7884,0.787,0.787,0.787,0.787,0.787,0.787,0.787,0.787,0.787,0.787,0.787,0.787,0.787,0.787,0.787,0.7894,0.7928,0.7928,0.7958,0.7988,0.7988,0.7988,0.7988,0.7988,0.7988,0.7988,0.7988,0.7988,0.7988,0.7988,0.7988,0.7988,0.7988,0.7988,0.7988,0.7988,0.7988,0.7988,0.7988,0.7988,0.7988,0.7988,0.7988,0.7988,0.7988,0.7988,0.7988,0.7988,0.7988,0.7988,0.7988,0.7988,0.7988,0.7988,0.7988,0.7988,0.7988,0.7988,0.7988,0.7988,0.7988,0.7988,0.0,0.0,0.0,0.0,0.0,0.0,0.7988,0.7988,0.0,0.0,0.0,0.0,0.0,0.0,0.0,0.0,0.0,0.0,0.0,0.0,0.0,0.0,0.0,0.0,0.0,0.0,0.0,0.6883,0.7537,0.7637,0.6883,0.7587,0.7988,0.7988,0.7988,0.7988,0.7988,0.7988,0.7988,0.7988,0.7988,0.7988,0.7988,0.7988,0.7988,0.7988,0.7988,0.7988,0.7988,0.7988,0.7988,0.7988,0.7988,0.7988,0.7988,0.7988,0.7988,0.7988,0.7988,0.7988,0.7988,0.7988,0.7988,0.7988,0.7988,0.7988,0.7988,0.7988,0.7988,0.7988,0.7988,0.7988,0.7988,0.7988,0.7988,0.7988,0.7988,0.7988,0.7988,0.7988,0.7988,0.7988,0.7988,0.7988,0.7988,0.7988,0.7988,0.7988,0.7988,0.7988,0.7988,0.7988,0.7988,0.7988,0.7988,0.7988,0.7988,0.7988,0.7988,0.7988,0.7988,0.7988,0.7988,0.7988,0.7988,0.7988,0.7988,0.7988,0.7988,0.7988,0.7988,0.7988,0.0,0.0,0.0,0.0,0.0,0.0,0.7988,0.7988,0.7988,0.0,0.0,0.0,0.0,0.0,0.0,0.0,0.0,0.0,0.0,0.0,0.0,0.0,0.0,0.0,0.0,0.7988,0.7988,0.7988,0.7988,0.7988,0.7988,0.7988,0.7988,0.7988,0.7988,0.7988,0.7988,0.7988,0.7988,0.7988,0.7988,0.7988,0.7988,0.7988,0.7988,0.7988,0.7988,0.7988,0.7988,0.7988,0.7988,0.7988,0.7988,0.7988,0.7988,0.7988,0.7988,0.7988,0.7988,0.7988,0.7988,0.7988,0.7988,0.7988,0.7988,0.7988,0.7988,0.7988,0.7988,0.7988,0.7988,0.7988,0.7988,0.7988,0.7988,0.7988,0.7988,0.7988,0.7988,0.7988,0.7988,0.7988,0.7988,0.7988,0.7988,0.7988,0.7988,0.7988,0.7988,0.7988,0.7988,0.7988,0.7988,0.7988,0.7988,0.7988,0.7988,0.7988,0.7988,0.7988,0.7988,0.7988,0.7988,0.7988,0.7988,0.7988,0.7988,0.7988,0.7988,0.7988,0.7988,0.7988,0.0,0.0,0.0,0.0,0.0,0.0,0.7736,0.7988,0.7988,0.0,0.0,0.0,0.0,0.0,0.0,0.0,0.0,0.0,0.0,0.0,0.0,0.0,0.0,0.0,0.0,0.7988,0.7988,0.7988,0.7988,0.7988,0.7988,0.7988,0.7988,0.7988,0.7988,0.7988,0.7988,0.7988,0.7988,0.7988,0.7988,0.7988,0.7988,0.7988,0.7988,0.7988,0.7988,0.7988,0.7988,0.7988,0.7988,0.7988,0.7988,0.7988,0.7988,0.7988,0.7988,0.7988,0.7988,0.7988,0.7988,0.7988,0.7988,0.7988,0.7988,0.7988,0.7988,0.7988,0.7988,0.7988,0.7988,0.7988,0.7988,0.7988,0.7988,0.7988,0.7988,0.7988,0.7988,0.7988,0.7988,0.7988,0.7988,0.7988,0.7988,0.7988,0.7988,0.7988,0.7988,0.7988,0.7988,0.7988,0.7988,0.7988,0.7988,0.7988,0.7988,0.7988,0.7988,0.7988,0.7988,0.7988,0.7988,0.7988,0.7988,0.7988,0.7988,0.7988,0.7988,0.7988,0.7988,0.7988,0.0,0.0,0.0,0.3668,0.0,0.0,0.0,0.7537,0.7988,0.7988,0.0,0.0,0.0,0.0,0.0,0.0,0.0,0.0,0.0,0.0,0.0,0.0,0.0,0.0,0.0,0.7988,0.7988,0.7988,0.7988,0.7988,0.7988,0.7988,0.7988,0.7988,0.7988,0.7988,0.7988,0.7988,0.7988,0.7988,0.7988,0.7988,0.7988,0.7988,0.7988,0.7988,0.7988,0.7988,0.7988,0.7988,0.7988,0.7988,0.7988,0.7988,0.7988,0.7988,0.7988,0.7988,0.7988,0.7988,0.7988,0.7988,0.7988,0.7988,0.7988,0.7988,0.7988,0.7988,0.7988,0.7988,0.7988,0.7988,0.7988,0.7988,0.7988,0.7988,0.7988,0.7988,0.7988,0.7988,0.7988,0.7988,0.7988,0.7988,0.7988,0.7988,0.7988,0.7988,0.7988,0.7988,0.7988,0.7988,0.7988,0.7988,0.7988,0.7988,0.7988,0.7988,0.7988,0.7988,0.7988,0.7988,0.7988,0.7988,0.7988,0.7988,0.7988,0.7988,0.7988,0.7988,0.7988,0.7988,0.0,0.0,0.0,0.0,0.0,0.5377,0.0,0.0,0.0,0.7939,0.0,0.0,0.0,0.0,0.0,0.0,0.0,0.0,0.0,0.0,0.0,0.0,0.0,0.0,0.0,0.7988,0.7988,0.7988,0.7988,0.7988,0.7988,0.7988,0.7988,0.7988,0.7988,0.7988,0.7988,0.7988,0.7988,0.7988,0.7988,0.7988,0.7988,0.7988,0.7988,0.7988,0.7988,0.7988,0.7988,0.7988,0.7988,0.7988,0.7988,0.7988,0.7988,0.7988,0.7988,0.7988,0.7988,0.7988,0.7988,0.7988,0.7988,0.7988,0.7988,0.7988,0.7988,0.7988,0.7988,0.7988,0.7988,0.7988,0.7988,0.7988,0.7988,0.7988,0.7988,0.7988,0.7988,0.7988,0.7988,0.7988,0.7988,0.7988,0.7988,0.7988,0.7988,0.7988,0.7988,0.7988,0.7988,0.7988,0.7988,0.7988,0.7988,0.7988,0.7988,0.7988,0.7988,0.7988,0.7988,0.7988,0.7988,0.7988,0.7988,0.7988,0.7988,0.7988,0.7988,0.7988,0.7988,0.7988,0.0,0.0,0.0,0.0,0.2213,0.0,0.0,0.0,0.6581,0.7736,0.0,0.0,0.0,0.0,0.0,0.0,0.0,0.0,0.0,0.0,0.0,0.0,0.0,0.0,0.0,0.0,0.7988,0.7988,0.7988,0.7988,0.7988,0.7988,0.7988,0.7988,0.7988,0.7988,0.7988,0.7988,0.7988,0.7988,0.7988,0.7988,0.7988,0.7988,0.7988,0.7988,0.7988,0.7988,0.7988,0.7988,0.7988,0.7988,0.7988,0.7988,0.7988,0.7988,0.7988,0.7988,0.7988,0.7988,0.7988,0.7988,0.7988,0.7988,0.7988,0.7988,0.7988,0.7988,0.7988,0.7988,0.7988,0.7988,0.7988,0.7988,0.7988,0.7988,0.7988,0.7988,0.7988,0.7988,0.7988,0.7988,0.7988,0.7988,0.7988,0.7988,0.7988,0.7988,0.7988,0.7988,0.7988,0.7988,0.7988,0.7988,0.7988,0.7988,0.7988,0.7988,0.7988,0.7988,0.7988,0.7988,0.7988,0.7988,0.7988,0.7988,0.7988,0.7988,0.7988,0.7988,0.7988,0.7988,0.0,0.0,0.0,0.0,0.0,0.0,0.0,0.0,0.5222,0.0,0.0,0.0,0.0,0.0,0.0,0.0,0.0,0.0,0.0,0.0,0.0,0.0,0.0,0.0,0.0,0.0,0.0,0.0,0.0,0.7988,0.7988,0.7988,0.7988,0.7988,0.7988,0.7988,0.7988,0.7988,0.7988,0.7988,0.7988,0.7988,0.7988,0.7988,0.7988,0.7988,0.7988,0.7988,0.7988,0.7988,0.7988,0.7988,0.7988,0.7988,0.7988,0.7988,0.7988,0.7988,0.7988,0.7988,0.7988,0.7988,0.7988,0.7988,0.7988,0.7988,0.7988,0.7988,0.7988,0.7988,0.7988,0.7988,0.7988,0.7988,0.7988,0.7988,0.7988,0.7988,0.7988,0.7988,0.7988,0.7988,0.7988,0.7988,0.7988,0.7988,0.7988,0.7988,0.7988,0.7988,0.7988,0.7988,0.7988,0.7988,0.7988,0.7988,0.7988,0.7988,0.7988,0.7988,0.7988,0.7988,0.7988,0.7988,0.7988,0.7988,0.7988,0.7988,0.7988,0.7988,0.7988,0.7988,-0.0656,0.0,0.0,0.0,0.0,0.0,0.0,0.0,0.0,0.0,0.0,0.0,0.0,0.0,0.0,0.0,0.0,0.0,0.0,0.0,0.0,0.0,0.0,0.0,0.0,0.0,0.0,0.7988,0.7988,0.7988,0.7988,0.7988,0.7988,0.7988,0.7988,0.7988,0.7988,0.7988,0.7988,0.7988,0.7988,0.7988,0.7988,0.7988,0.7988,0.7988,0.7988,0.7988,0.7988,0.7988,0.7988,0.7988,0.7988,0.7988,0.7988,0.7988,0.7988,0.7988,0.7988,0.7988,0.7988,0.7988,0.7988,0.7988,0.7988,0.7988,0.7988,0.7988,0.7988,0.7988,0.7988,0.7988,0.7988,0.7988,0.7988,0.7988,0.7988,0.7988,0.7988,0.7988,0.7988,0.7988,0.7988,0.7988,0.7988,0.7988,0.7988,0.7988,0.7988,0.7988,0.7988,0.7988,0.7988,0.7988,0.7988,0.7988,0.7988,0.7988,0.7988,0.7988,0.7988,0.7988,0.7988,0.7988,0.7988,0.7988,0.7988,0.7988,0.7988,0.7988,0.7988,0.7988,0.0,0.0,0.0,-0.0303,0.0,0.0,0.0,0.0,0.2465,0.0,0.0,0.0,0.0,0.0,0.0,0.0,0.0,0.0,0.0,0.0,0.0,0.0,0.0,0.0,0.0,0.0,0.0,0.7988,0.7988,0.7988,0.7988,0.7988,0.7988,0.7988,0.7988,0.7988,0.7988,0.7988,0.7988,0.7988,0.7988,0.7988,0.7988,0.7988,0.7988,0.7988,0.7988,0.7988,0.7988,0.7988,0.7988,0.7988,0.7988,0.7988,0.7988,0.7988,0.7988,0.7988,0.7988,0.7988,0.7988,0.7988,0.7988,0.7988,0.7988,0.7988,0.7988,0.7988,0.7988,0.7988,0.7988,0.7988,0.7988,0.7988,0.7988,0.7988,0.7988,0.7988,0.7988,0.7988,0.7988,0.7988,0.7988,0.7988,0.7988,0.7988,0.7988,0.7988,0.7988,0.7988,0.7988,0.7988,0.7988,0.7988,0.7988,0.7988,0.7988,0.7988,0.7988,0.7988,0.7988,0.7988,0.7988,0.7988,0.7988,0.7988,0.7988,0.7988,0.7988,0.7988,0.7988,0.7988,0.0,0.0,-0.3015,-0.1661,0.0,0.0,0.0,0.0,0.0,0.0,0.0,0.0,0.0,0.0,0.0,0.0,0.0,0.0,0.0,0.0,0.0,0.0,0.0,0.0,0.0,0.0,0.0,0.7988,0.7988,0.7988,0.7988,0.7988,0.7988,0.7988,0.7988,0.7988,0.7988,0.7988,0.7988,0.7988,0.7988,0.7988,0.7988,0.7988,0.7988,0.7988,0.7988,0.7988,0.7988,0.7988,0.7988,0.7988,0.7988,0.7988,0.7988,0.7988,0.7988,0.7988,0.7988,0.7988,0.7988,0.7988,0.7988,0.7988,0.7988,0.7988,0.7988,0.7988,0.7988,0.7988,0.7988,0.7988,0.7988,0.7988,0.7988,0.7988,0.7988,0.7988,0.7988,0.7988,0.7988,0.7988,0.7988,0.7988,0.7988,0.7988,0.7988,0.7988,0.7988,0.7988,0.7988,0.7988,0.7988,0.7988,0.7988,0.7988,0.7988,0.7988,0.7988,0.7988,0.7988,0.7988,0.7988,0.7988,0.7988,0.7988,0.7988,0.7988,0.7988,0.7988,0.7988,0.7988,-0.482,-0.4718,0.0,-0.3065,-0.2363,0.0,-0.0907,0.0,0.0,0.0,0.0,0.0,0.0,0.0,0.0,0.0,0.0,0.0,0.0,0.7988,0.0,0.0,0.0,0.0,0.0,0.0,0.7988,0.7988,0.7988,0.7988,0.0,0.0,0.7988,0.7988,0.7988,0.7988,0.7988,0.7988,0.7988,0.7988,0.7988,0.7988,0.7988,0.7988,0.7988,0.7988,0.7988,0.7988,0.7988,0.7988,0.7988,0.7988,0.7988,0.7988,0.7988,0.7988,0.7988,0.7988,0.7988,0.7988,0.7988,0.7988,0.7988,0.7988,0.7988,0.7988,0.7988,0.7988,0.7988,0.7988,0.7988,0.7988,0.7988,0.7988,0.7988,0.7988,0.7988,0.7988,0.7988,0.7988,0.7988,0.7988,0.7988,0.7988,0.7988,0.7988,0.7988,0.7988,0.7988,0.7988,0.7988,0.7988,0.7988,0.7988,0.7988,0.7988,0.7988,0.7988,0.7988,0.7988,0.7988,0.7988,0.7988,0.7988,0.7988,0.7988,0.7988,0.7988,0.7988,0.7988,0.7988,0.7988]},{"header":{"parameterUnit":"m.s-1","parameterCategory":1,"la1":30.6,"la2":29.2853,"lo1":-89.7004,"lo2":-87.6739,"dy":0.0162,"dx":0.0183,"nx":112,"ny":82,"refTime":"2023-09-01T06:00:00:Z","depth":0,"parameterNumber":3,"parameterNumberName":"V-component_of_WINDS"},"data":[0.0,0.0,0.0,0.0,0.0,0.0,0.0,0.0,0.0,0.0,0.0,0.0,0.0,0.0,0.0,0.0,0.0,0.0,0.0,0.0,0.0,0.0,0.0,0.0,0.0,0.0,0.0,0.0,0.0,0.0,0.0,0.0,0.0,0.0,0.0,0.0,0.0,0.0,0.0,0.0,0.0,0.0,0.0,0.0,0.0,0.0,0.0,0.0,0.0,0.0,0.0,0.0,0.0,0.0,0.0,0.0,0.0,0.0,0.0,0.0,0.0,0.0,0.0,0.0,0.0,0.0,0.0,0.0,0.0,0.0,0.0,0.0,0.0,0.0,0.0,0.0,0.0,0.0,0.0,0.0,0.0,0.0,0.0,0.0,0.0,0.0,0.0,0.0,0.0,0.0,0.0,0.4683,0.2738,0.1176,0.0079,0.0,-0.051,-0.1762,0.0,0.0,0.0,0.0,0.0,0.0,0.0,0.0,0.0,0.0,0.0,0.0,0.0,0.0,0.0,0.0,0.0,0.0,0.0,0.0,0.0,0.0,0.0,0.0,0.0,0.0,0.0,0.0,0.0,0.0,0.0,0.0,0.0,0.0,0.0,0.0,0.0,0.0,0.0,0.0,0.0,0.0,0.0,0.0,0.0,0.0,0.0,0.0,0.0,0.0,0.0,0.0,0.0,0.0,0.0,0.0,0.0,0.0,0.0,0.0,0.0,0.0,0.0,0.0,0.0,0.0,0.0,0.0,0.0,0.0,0.0,0.0,0.0,0.0,0.0,0.0,0.0,0.0,0.0,0.0,0.0,0.0,0.0,0.0,0.0,0.0,0.0,0.0,0.0,0.0,0.0,0.0,0.0,0.0,0.0,0.0,0.0,0.0,0.0,0.0,0.0,0.0,0.0,0.0,0.5702,0.3552,0.2308,0.1176,0.0079,0.0,-0.0823,-0.2734,0.0,0.0,0.0,0.0,0.0,0.0,0.0,0.0,0.0,0.0,0.0,0.0,0.0,0.0,0.0,0.0,0.0,0.0,0.0,0.0,0.0,0.0,0.0,0.0,0.0,0.0,0.0,0.0,0.0,0.0,0.0,0.0,0.0,0.0,0.0,0.0,0.0,0.0,0.0,0.0,0.0,0.0,0.0,0.0,0.0,0.0,0.0,0.0,0.0,0.0,0.0,0.0,0.0,0.0,0.0,0.0,0.0,0.0,0.0,0.0,0.0,0.0,0.0,0.0,0.0,0.0,0.0,0.0,0.0,0.0,0.0,0.0,0.0,0.0,0.0,0.0,0.0,0.0,0.0,0.0,0.0,0.0,0.0,0.0,0.0,0.0,0.0,0.0,0.0,0.0,0.0,0.0,0.0,0.0,0.0,0.0,0.0,0.0,0.0,0.0,0.0,0.0,0.0,0.5229,0.3984,0.2464,0.1371,0.0549,0.0039,0.0,-0.0667,-0.219,-0.2812,0.0,0.0,0.0,0.0,0.0,0.0,0.0,0.0,0.0,0.0,0.0,0.0,0.0,0.0,0.0,0.0,0.0,0.0,0.0,0.0,0.0,0.0,0.0,0.0,0.0,0.0,0.0,0.0,0.0,0.0,0.0,0.0,0.0,0.0,0.0,0.0,0.0,0.0,0.0,0.0,0.0,0.0,0.0,0.0,0.0,0.0,0.0,0.0,0.0,0.0,0.0,0.0,0.0,0.0,0.0,0.0,0.0,0.0,0.0,0.0,0.0,0.0,0.0,0.0,0.0,0.0,0.0,0.0,0.0,0.0,0.0,0.0,0.0,0.0,0.0,0.0,0.0,0.0,0.0,0.0,0.0,0.0,0.0,0.0,0.0,0.0,0.0,0.0,0.0,0.0,0.0,0.0,0.0,0.0,0.0,0.0,0.0,0.0,0.0,0.0,0.0,0.0,0.3748,0.2696,0.1724,0.0628,0.0,0.0,0.0,-0.0549,-0.188,-0.2657,0.0,0.0,0.0,0.0,0.0,0.0,0.0,0.0,0.0,0.0,0.0,0.0,0.0,0.0,0.0,0.0,0.0,0.0,0.0,0.0,0.0,0.0,0.0,0.0,0.0,0.0,0.0,0.0,0.0,0.0,0.0,0.0,0.0,0.0,0.0,0.0,0.0,0.0,0.0,0.0,0.0,0.0,0.0,0.0,0.0,0.0,0.0,0.0,0.0,0.0,0.0,0.0,0.0,0.0,0.0,0.0,0.0,0.0,0.0,0.0,0.0,0.0,0.0,0.0,0.0,0.0,0.0,0.0,0.0,0.0,0.0,0.0,0.0,0.0,0.0,0.0,0.0,0.0,0.0,0.0,0.0,0.0,0.0,0.0,0.0,0.0,0.0,0.0,0.0,0.0,0.0,0.0,0.0,0.0,0.0,0.0,0.0,0.0,0.0,0.0,0.0,0.0,0.3748,0.2696,0.1724,0.0628,0.0,0.0,0.0,-0.0862,-0.2851,-0.3046,0.0,0.0,0.0,0.0,0.0,0.0,0.0,0.0,0.0,0.0,0.0,0.0,0.0,0.0,0.0,0.0,0.0,0.0,0.0,0.0,0.0,0.0,0.0,0.0,0.0,0.0,0.0,0.0,0.0,0.0,0.0,0.0,0.0,0.0,0.0,0.0,0.0,0.0,0.0,0.0,0.0,0.0,0.0,0.0,0.0,0.0,0.0,0.0,0.0,0.0,0.0,0.0,0.0,0.0,0.0,0.0,0.0,0.0,0.0,0.0,0.0,0.0,0.0,0.0,0.0,0.0,0.0,0.0,0.0,0.0,0.0,0.0,0.0,0.0,0.0,0.0,0.0,0.0,0.0,0.0,0.0,0.0,0.0,0.0,0.0,0.0,0.0,0.0,0.0,0.0,0.0,0.0,0.0,0.0,0.0,0.0,0.0,0.0,0.0,0.0,0.0,0.0,0.3357,0.2462,0.0,0.0235,0.0,0.0,0.0,-0.0353,-0.1135,0.0,0.0,0.0,0.0,0.0,0.0,0.0,0.0,0.0,0.0,0.0,0.0,0.0,0.0,0.0,0.0,0.0,0.0,0.0,0.0,0.0,0.0,0.0,0.0,0.0,0.0,0.0,0.0,0.0,0.0,0.0,0.0,0.0,0.0,0.0,0.0,0.0,0.0,0.0,0.0,0.0,0.0,0.0,0.0,0.0,0.0,0.0,0.0,0.0,0.0,0.0,0.0,0.0,0.0,0.0,0.0,0.0,0.0,0.0,0.0,0.0,0.0,0.0,0.0,0.0,0.0,0.0,0.0,0.0,0.0,0.0,0.0,0.0,0.0,0.0,0.0,0.0,0.0,0.0,0.0,0.0,0.0,0.0,0.0,0.0,0.0,0.0,0.0,0.0,0.0,0.0,0.0,0.0,0.0,0.0,0.0,0.0,0.0,0.0,0.0,0.0,0.0,0.3357,0.3085,0.2306,0.0,0.0,0.0,0.0,0.0,-0.0157,-0.0471,0.0,0.0,0.0,0.0,0.0,0.0,0.0,0.0,0.0,0.0,0.0,0.0,0.0,0.0,0.0,0.0,0.0,0.0,0.0,0.0,0.0,0.0,0.0,0.0,0.0,0.0,0.0,0.0,0.0,0.0,0.0,0.0,0.0,0.0,0.0,0.0,0.0,0.0,0.0,0.0,0.0,0.0,0.0,0.0,0.0,0.0,0.0,0.0,0.0,0.0,0.0,0.0,0.0,0.0,0.0,0.0,0.0,0.0,0.0,0.0,0.0,0.0,0.0,0.0,0.0,0.0,0.0,0.0,0.0,0.0,0.0,0.0,0.0,0.0,0.0,0.0,0.0,0.0,0.0,0.0,0.0,0.0,0.0,0.0,0.0,0.0,0.0,0.0,0.0,0.0,0.0,0.0,0.0,0.0,0.0,0.0,0.0,0.0,0.0,0.0,0.0,0.0,0.3357,0.3085,0.2306,0.0235,0.0,0.0,0.0,0.0,-0.0471,0.0,0.0,0.0,0.0,0.0,0.0,0.0,0.0,0.0,0.0,0.0,0.0,0.0,0.0,0.0,0.0,0.0,0.0,0.0,0.0,0.0,0.0,0.0,0.0,0.0,0.0,0.0,0.0,0.0,0.0,0.0,0.0,0.0,0.0,0.0,0.0,0.0,0.0,0.0,0.0,0.0,0.0,0.0,0.0,0.0,0.0,0.0,0.0,0.0,0.0,0.0,0.0,0.0,0.0,0.0,0.0,0.0,0.0,0.0,0.0,0.0,0.0,0.0,0.0,0.0,0.0,0.0,0.0,0.0,0.0,0.0,0.0,0.0,0.0,0.0,0.0,0.0,0.0,0.0,0.0,0.0,0.0,0.0,0.0,0.0,0.0,0.0,0.0,0.0,0.0,0.0,0.0,0.0,0.0,0.0,0.0,0.0,0.0,0.0,0.0,0.0,0.0,0.0,0.3357,0.3085,0.2306,0.0235,0.0,0.0,0.0,0.0,-0.0118,-0.0471,0.0,0.0,0.0,0.0,0.0,0.0,0.0,0.0,0.0,0.0,0.0,0.0,0.0,0.0,0.0,0.0,0.0,0.0,0.0,0.0,0.0,0.0,0.0,0.0,0.0,0.0,0.0,0.0,0.0,0.0,0.0,0.0,0.0,0.0,0.0,0.0,0.0,0.0,0.0,0.0,0.0,0.0,0.0,0.0,0.0,0.0,0.0,0.0,0.0,0.0,0.0,0.0,0.0,0.0,0.0,0.0,0.0,0.0,0.0,0.0,0.0,0.0,0.0,0.0,0.0,0.0,0.0,0.0,0.0,0.0,0.0,0.0,0.0,0.0,0.0,0.0,0.0,0.0,0.0,0.0,0.0,0.0,0.0,0.0,0.0,0.0,0.0,0.0,0.0,0.0,0.0,0.0,0.0,0.0,0.0,0.0,0.0,0.0,0.0,0.0,0.0,0.0,0.3357,0.3085,0.2306,0.0235,0.0,0.0,0.0,0.0,0.0,0.0,0.0,0.0,0.0,0.0,0.0,0.0,0.0,0.0,0.0,0.0,0.0,0.0,0.0,0.0,0.0,0.0,0.0,0.0,0.0,0.0,0.0,0.0,0.0,0.0,0.0,0.0,0.0,0.0,0.0,0.0,0.0,0.0,0.0,0.0,0.0,0.0,0.0,0.0,0.0,0.0,0.0,0.0,0.0,0.0,0.0,0.0,0.0,0.0,0.0,0.0,0.0,0.0,0.0,0.0,0.0,0.0,0.0,0.0,0.0,0.0,0.0,0.0,0.0,0.0,0.0,0.0,0.0,0.0,0.0,0.0,0.0,0.0,0.0,0.0,0.0,0.0,0.0,0.0,0.0,0.0,0.0,0.0,0.0,0.0,0.0,0.0,0.0,0.0,0.0,0.0,0.0,0.0,0.0,0.0,0.0,0.0,0.0,0.0,0.0,0.0,0.0,0.0,0.3513,0.324,0.2462,0.0353,0.0157,0.0118,0.0,0.0,0.0,0.0,0.0,0.0,0.0,0.0,0.0,0.0,0.0,0.0,0.0,0.0,0.0,0.0,0.0,0.0,0.0,0.0,0.0,0.0,0.0,0.0,0.0,0.0,0.0,0.0,0.0,0.0,0.0,0.0,0.0,0.0,0.0,0.0,0.0,0.0,0.0,0.0,0.0,0.0,0.0,0.0,0.0,0.0,0.0,0.0,0.0,0.0,0.0,0.0,0.0,0.0,0.0,0.0,0.0,0.0,0.0,0.0,0.0,0.0,0.0,0.0,1.9204,0.0,0.0,0.0,0.0,0.0,0.0,0.0,0.0,0.0,0.0,0.0,0.0,0.0,0.0,0.0,0.0,0.0,0.0,0.0,0.0,0.0,0.0,0.0,0.0,0.0,0.0,0.0,0.0,0.0,0.0,0.0,0.0,0.0,0.0,0.0,0.0,0.0,0.0,0.0,0.0,0.0,0.453,0.4373,0.3556,0.1489,0.1254,0.0902,0.0079,0.0,0.0,0.0,0.0,0.0,0.0,0.0,0.0,0.0,0.0,0.0,0.0,0.0,0.0,0.0,0.0,0.0,0.0,0.0,0.0,0.0,0.0,0.0,0.0,0.0,0.0,0.0,0.0,0.0,0.0,0.0,0.0,0.0,0.0,0.0,0.0,0.0,0.0,0.0,0.0,0.0,0.0,0.0,0.0,0.0,0.0,0.0,0.0,0.0,0.0,0.0,0.0,0.0,0.0,0.0,0.0,0.0,0.0,0.0,0.0,0.0,0.0,0.0,0.0,1.8715,0.0,0.0,0.0,0.0,0.0,0.0,0.0,0.0,0.0,0.0,0.0,0.0,0.0,0.0,0.0,0.0,0.0,0.0,0.0,0.0,0.0,0.0,0.0,0.0,0.0,0.0,0.0,0.0,0.0,0.0,0.0,0.0,0.0,0.0,0.0,0.0,0.0,0.0,0.0,0.0,0.4844,0.4688,0.41,0.2503,0.188,0.1372,0.0824,0.0314,0.0,0.0,0.0,0.0,0.0,0.0,0.0,0.0,0.0,0.0,0.0,0.0,0.0,0.0,0.0,0.0,0.0,0.0,0.0,0.0,0.0,0.0,0.0,0.0,0.0,0.0,0.0,0.0,0.0,0.0,0.0,0.0,0.0,0.0,0.0,0.0,0.0,0.0,0.0,0.0,0.0,0.0,0.0,0.0,0.0,0.0,0.0,0.0,0.0,0.0,0.0,0.0,0.0,0.0,0.0,0.0,2.3091,2.3091,2.3091,2.3091,2.2906,2.2508,2.0855,1.9966,1.9605,0.0,0.0,0.0,0.0,0.0,0.0,0.0,0.0,0.0,0.0,0.0,0.0,0.0,0.0,0.0,0.0,0.0,0.0,0.0,0.0,0.0,0.0,0.0,0.0,0.0,1.6289,1.6358,0.0,0.0,0.0,0.0,0.0,0.0,0.0,0.0,0.0,0.0,0.0,0.0,0.5079,0.496,0.4569,0.3476,0.262,0.2075,0.188,0.0902,0.0275,0.0275,0.0275,0.0275,0.0,0.0,0.0,0.0,0.0,0.0,0.0,0.0,0.0,0.0,0.0,0.0,0.0,0.0,0.0,0.0,0.0,0.0,0.0,0.0,0.0,0.0,0.0,0.0,0.0,0.0,0.0,0.0,0.0,0.0,0.0,0.0,2.6293,2.5669,0.0,0.0,0.0,0.0,0.0,0.0,0.0,0.0,0.0,0.0,0.0,0.0,0.0,2.3091,2.3091,2.3091,2.3091,2.3091,2.3091,2.3091,2.3091,2.3091,2.3062,2.3013,2.2755,0.0,2.009,1.9894,0.0,0.0,0.0,0.0,0.0,0.0,0.0,0.0,0.0,0.0,0.0,0.0,0.0,0.0,0.0,0.0,0.0,0.0,0.0,0.0,0.0,0.0,1.794,1.7691,1.7725,1.7501,0.0,1.4906,1.3673,1.3528,0.0,0.0,0.0,0.0,0.0,0.0,0.0,0.0,0.6103,0.6103,0.567,0.4608,0.4375,0.3906,0.2968,0.1957,0.1372,0.1372,0.1372,0.1372,0.1372,0.2229,0.0,0.0,0.0,0.0,0.0,0.0,0.0,0.0,0.0,0.0,0.0,0.0,0.0,0.0,0.0,0.0,0.0,0.0,0.0,0.0,0.0,0.0,0.0,0.0,0.0,0.0,0.0,0.0,0.0,2.6499,2.6514,2.6539,2.608,2.578,0.0,0.0,0.0,0.0,0.0,0.0,0.0,0.0,0.0,2.3091,2.3091,2.3091,2.3091,2.3091,2.3091,2.3091,2.3091,2.3091,2.3091,2.3091,2.3091,2.3091,2.3091,2.2606,2.1768,2.1092,2.0302,1.946,0.0,0.0,0.0,0.0,1.9297,1.9752,1.9292,1.9481,0.0,0.0,0.0,0.0,0.0,0.0,0.0,0.0,0.0,0.0,0.0,0.0,0.0,1.8008,1.8008,1.7906,1.7467,1.6289,1.5013,0.0,1.2952,1.1959,1.0969,0.0,0.0,0.0,0.0,0.0,0.7138,0.6644,0.6103,0.5667,0.5079,0.4491,0.4021,0.3047,0.2425,0.2425,0.2425,0.2425,0.2425,0.2851,0.289,0.0,0.0,0.0,0.0,0.0,0.0,0.0,0.0,0.0,0.0,0.0,0.0,0.0,0.0,0.0,0.0,0.0,0.0,0.0,0.0,0.0,0.0,0.0,0.0,0.0,0.0,0.0,0.0,2.67,2.6901,2.7431,2.7015,2.6868,0.0,0.0,0.0,0.0,0.0,0.0,2.483,2.4006,2.3387,2.3091,2.3091,2.3091,2.3091,2.3091,2.3091,2.3091,2.3091,2.3091,2.3091,2.3091,2.3091,2.3091,2.3091,2.3091,2.3047,2.212,2.145,2.0891,2.0359,2.0471,2.0893,2.0504,2.0869,2.1444,2.0928,2.0732,2.0742,2.0469,0.0,1.9756,1.9756,0.0,0.0,0.0,0.0,1.8144,1.8037,1.8008,1.8008,1.8008,1.8008,1.8008,1.8008,1.7251,1.6105,0.0,1.331,1.2321,1.1354,0.0,0.0,0.0,0.0,0.8199,0.8199,0.7518,0.6984,0.6718,0.5938,0.5295,0.5071,0.4,0.3373,0.3373,0.343,0.3442,0.3442,0.3736,0.3787,0.3513,0.0,0.0,0.0,0.0,0.0,0.0,0.0,0.0,0.0,0.0,0.0,0.0,0.0,0.0,0.0,0.0,0.0,0.0,0.0,0.0,0.0,0.0,0.0,0.0,0.0,0.0,0.0,0.0,0.0,2.7996,2.76,0.0,0.0,0.0,0.0,2.6524,2.6431,2.5922,2.4872,2.4745,2.4211,2.3135,2.3091,2.3091,2.3091,2.3091,2.3091,2.3091,2.3091,2.3091,2.3091,2.3091,2.3091,2.3091,2.3091,2.3091,2.3091,2.3047,2.2974,2.2935,2.2921,2.2911,2.2887,2.2512,2.2399,2.2324,2.1453,2.1161,2.1025,2.0215,1.9668,1.9316,1.9316,1.9287,0.0,0.0,1.8568,1.8481,1.8115,1.8008,1.8008,1.8008,1.8008,1.8008,1.8008,1.7251,1.6324,0.0,1.4314,1.331,1.2409,0.0,1.0783,1.0746,0.9857,0.9221,0.9221,0.9183,0.877,0.7821,0.7505,0.6957,0.6,0.484,0.4155,0.4155,0.4318,0.4448,0.4448,0.5519,0.567,0.4647,0.5628,0.0,0.0,0.0,0.0,0.0,0.0,0.0,0.0,0.0,0.0,0.0,0.0,0.0,0.0,0.0,0.0,0.0,0.0,0.0,0.0,0.0,0.0,0.0,0.0,0.0,0.0,0.0,0.0,2.8524,2.8449,0.0,2.8864,2.876,2.8633,2.8633,2.7947,2.736,2.6942,2.6284,2.5724,2.5305,2.5274,2.5274,2.5274,2.4553,2.4168,2.4168,2.4168,2.4168,2.4211,2.4935,2.5274,2.5274,2.451,2.4168,2.4125,2.3387,2.3091,2.3091,2.3091,2.3091,2.3042,2.2666,2.251,2.2432,2.1855,2.1434,2.1213,2.1219,2.1131,2.0984,2.0745,2.0196,1.96,1.918,1.8822,1.8568,1.8422,1.8178,1.8008,1.8008,1.8008,1.8008,1.8008,1.7759,1.7217,1.6289,1.4799,1.36,1.3273,1.2395,1.1768,1.1768,1.0901,1.0265,1.0265,0.9532,0.8847,0.8477,0.8215,0.7704,0.678,0.6327,0.5825,0.5258,0.5301,0.5368,0.5458,0.589,0.6003,0.5744,0.6103,0.6103,0.0,0.0,0.0,0.0,0.0,0.0,0.0,0.0,0.0,0.0,0.0,0.0,0.0,0.0,0.0,0.0,0.0,0.0,0.0,0.0,0.0,0.0,0.0,0.0,0.0,0.0,2.856,2.9152,2.9176,2.9365,2.9754,2.9792,2.9792,2.9792,2.9106,2.8518,2.8136,2.7452,2.6883,2.6513,2.6524,2.6524,2.6524,2.5755,2.5378,2.5378,2.5378,2.5378,2.542,2.6141,2.6524,2.6483,2.5714,2.5378,2.5294,2.4553,2.4264,2.4221,2.38,2.3681,2.3684,2.3819,2.3622,2.3233,2.2802,2.2494,2.2319,2.2668,2.2644,2.2462,2.2187,2.1401,2.0509,2.0116,1.9532,1.8968,1.8676,1.8393,1.8184,1.8047,1.8008,1.8008,1.8008,1.8008,1.7828,1.7182,1.579,1.4593,1.4279,1.3419,1.2769,1.2769,1.1868,1.1181,1.1181,1.028,0.9548,0.9226,0.8985,0.8473,0.7543,0.7168,0.6857,0.6545,0.6324,0.6335,0.6733,0.6507,0.6466,0.6627,0.6765,0.6795,0.6795,0.0,0.0,0.0,0.0,0.0,0.0,0.0,0.0,0.0,0.0,0.0,0.0,0.0,0.0,0.0,0.0,0.0,0.0,0.0,0.0,0.0,0.0,0.0,2.9538,3.0028,3.027,2.9871,2.983,2.9792,2.9792,2.9792,2.9792,2.9792,2.9792,2.9326,2.8215,2.8136,2.7695,2.6648,2.6607,2.6607,2.6607,2.6565,2.6554,2.6554,2.6554,2.6554,2.6554,2.6607,2.6607,2.6607,2.6565,2.6554,2.6554,2.6513,2.6524,2.6389,2.5294,2.483,2.4999,2.6099,2.5797,2.4809,2.4397,2.4317,2.4401,2.4378,2.4003,2.3573,2.3562,2.285,2.1981,2.1576,2.0751,1.9791,1.8938,1.8713,1.8595,1.814,1.8042,1.8042,1.8008,1.8008,1.8008,1.8008,1.7285,1.6358,1.5411,1.4406,1.3723,1.3723,1.2713,0.0,1.1964,1.1666,1.1088,1.0071,0.9852,0.9365,0.8324,0.7357,0.7144,0.7962,0.733,0.7303,0.8165,0.7499,0.7189,0.7331,0.7681,0.7859,0.7859,0.0,0.0,0.0,0.0,0.0,0.0,0.0,0.0,0.0,0.0,0.0,0.0,0.0,0.0,0.0,0.0,0.0,0.0,0.0,0.0,0.0,0.0,3.276,3.133,3.0695,3.05,3.0768,3.0216,2.9792,2.9792,2.9792,2.9792,2.9792,2.9792,2.9663,2.9365,2.9326,2.9197,2.8882,2.8882,2.8882,2.8882,2.8068,2.7643,2.7643,2.7643,2.7643,2.7683,2.8542,2.8882,2.8831,2.8028,2.7643,2.7614,2.6801,2.6524,2.6483,2.6141,2.6016,2.6058,2.6389,2.6307,2.5992,2.5536,2.5859,2.637,2.5608,2.5269,2.5093,2.4705,2.3891,2.304,2.2956,2.2524,2.1941,2.1242,2.0831,2.0328,1.9214,1.8944,1.8754,1.8144,1.8008,1.8008,1.8008,1.7794,1.7329,1.6393,1.515,1.4282,1.4282,1.3755,0.0,1.3367,1.3065,1.2515,1.1657,1.1357,1.0603,0.9108,0.8754,0.842,0.8027,0.7821,0.7863,0.8194,0.8015,0.8039,0.8386,0.8726,0.8879,0.0,0.0,0.0,0.0,0.0,0.0,0.0,0.0,0.0,0.0,0.0,0.0,0.0,0.0,0.0,0.0,0.0,0.0,0.0,0.0,0.0,0.0,3.4264,3.4228,3.3465,3.2527,3.1881,3.1788,3.0945,3.0381,3.0381,3.0037,2.9792,2.9792,2.9792,2.9792,2.9792,2.9792,2.9792,2.9792,2.9792,2.9792,2.9792,2.9157,2.8806,2.8806,2.8806,2.8806,2.8846,2.9495,2.9792,0.0,2.9106,2.8806,2.8767,2.8119,2.7879,0.0,0.0,0.0,0.0,0.0,2.7464,2.7804,2.7024,2.7305,2.7857,2.7041,2.6615,2.6334,2.5775,2.4921,2.412,2.412,2.365,2.2979,2.2191,2.1834,2.1353,2.014,1.9846,1.9726,1.921,1.9077,1.9015,1.8752,0.0,0.0,1.7234,1.5965,1.5036,1.4849,1.418,1.3697,1.3697,1.341,1.3064,1.2594,1.2414,1.1764,1.0465,1.0015,0.0,0.0,0.0,0.8582,0.8656,0.8714,0.0,0.0,0.0,0.983,0.9933,0.0,0.0,0.0,0.9221,0.9296,0.0,0.0,0.0,0.0,0.0,0.0,0.0,0.0,0.0,0.0,0.0,0.0,0.0,0.0,0.0,0.0,3.4623,3.4801,3.5415,3.4725,3.3808,3.289,3.1924,3.1352,3.1352,3.0533,2.9972,2.9972,2.9869,2.9792,2.9792,0.0,0.0,0.0,0.0,2.9792,2.9792,2.9792,2.9792,2.9792,2.9792,2.9792,2.9792,2.9792,2.9792,2.9792,2.9792,2.9792,2.9792,2.9792,2.9792,2.9714,2.8688,2.8307,2.8307,2.8307,2.8937,2.9663,2.8636,0.0,0.0,2.8285,2.7733,2.7216,2.6663,2.5886,2.5158,2.5158,2.4481,2.3512,2.2559,2.2275,2.1969,2.0976,2.0751,2.0719,2.0623,2.059,2.0402,1.9836,1.9186,1.8564,1.7955,1.6789,1.5818,1.5441,1.438,1.3637,1.3637,1.3414,1.3252,1.3161,0.0,0.0,1.2012,1.1214,1.0759,1.0744,0.9913,0.9434,0.9434,0.9574,0.9862,1.0239,1.0456,1.0713,1.0969,1.1848,1.1842,1.0938,1.0045,0.9636,0.0,0.0,0.0,0.0,0.0,0.0,0.0,0.0,0.0,0.0,0.0,0.0,0.0,0.0,0.0,3.519,3.531,3.5355,3.5489,3.5326,3.4839,3.3856,3.289,3.2321,3.2321,3.1462,3.0932,3.0932,3.0241,2.9792,2.9792,2.9792,0.0,2.9792,2.9792,2.9792,2.9792,2.9792,2.9792,2.9792,0.0,0.0,2.9792,2.9792,2.9792,2.9792,2.9792,2.9792,2.9792,2.9792,2.9792,2.9792,2.9585,2.9495,2.9495,2.9495,2.9624,2.9753,2.9534,2.9198,2.88,2.8285,2.7733,2.7216,2.6663,2.6349,0.0,2.6198,2.5726,2.5038,2.4423,2.3944,2.3281,2.1957,2.1647,2.1459,2.0751,2.059,2.0402,1.9836,1.9623,1.9296,1.8353,1.7001,1.6023,1.5977,1.5411,1.5016,1.5016,1.498,1.4688,1.4025,1.3974,1.3636,1.2848,1.2596,1.2258,1.1624,1.0793,1.0333,1.0333,1.0568,1.0855,1.1142,1.1464,1.1752,1.1996,1.2224,1.2187,1.1996,1.1811,1.1737,0.0,0.0,0.0,0.0,0.0,0.0,0.0,0.0,0.0,0.0,0.0,3.537,0.0,0.0,3.5643,3.6009,3.5718,3.5504,3.5504,3.5504,3.5311,3.4806,3.3891,3.331,3.331,3.2464,3.1888,3.1888,3.1476,3.1206,3.1206,3.1206,3.1206,3.1206,3.1206,3.1206,3.1206,3.1206,3.1206,3.1206,3.0733,3.0733,3.1206,3.0696,3.0771,3.1206,3.1206,3.0908,3.0482,3.0482,3.0771,3.1206,3.1206,3.0633,2.9792,2.9792,2.9792,2.9792,2.9792,2.9415,2.88,2.8285,2.7733,2.7216,2.6663,2.6499,2.6499,2.6499,2.6084,2.5473,2.4926,2.4406,2.376,2.2733,2.2506,2.2372,2.1959,2.1632,2.1276,2.0724,2.0112,1.9443,1.8631,1.758,1.6846,1.6846,1.6647,1.6489,1.6489,1.6169,1.5806,1.5381,1.5011,1.4481,1.3674,1.3213,1.2826,1.242,1.2027,1.1787,1.1787,1.1944,1.2119,1.2406,1.2807,1.3128,1.342,1.3655,1.373,1.373,1.373,1.323,0.0,0.0,0.0,0.0,0.0,0.0,0.0,0.0,3.5263,3.5807,3.6472,3.7154,3.7706,3.7279,3.6813,3.6813,3.6321,3.5878,3.5733,3.5701,3.5668,3.5537,3.4758,3.4279,3.4279,3.3429,3.289,3.289,3.2713,3.2593,3.2593,3.2593,3.2593,3.2593,3.2593,3.2593,3.2593,3.2593,3.2593,3.2593,3.1815,3.1852,3.2558,3.1815,3.1888,3.2593,3.2593,3.2177,3.1462,3.1462,3.1924,3.2593,3.2593,3.1696,3.0355,3.0355,3.0355,3.0343,3.0202,2.978,2.9191,2.8592,2.8078,2.7562,2.7114,2.7007,2.6947,2.6845,2.6363,2.5774,2.5218,2.4575,2.3961,2.3449,2.3335,2.3335,2.3335,2.3009,2.2521,2.1832,2.0784,1.9755,1.9049,1.8409,1.7934,1.7633,1.7605,1.7605,1.7605,1.709,1.6708,1.6708,1.6169,1.5507,1.4708,1.3786,1.3213,1.3213,1.31,1.3009,1.3009,1.3009,1.3112,1.3402,1.3868,1.423,1.4516,1.4981,1.5199,1.5199,1.5199,1.4343,3.6694,3.733,3.7594,3.6854,3.6662,3.6448,0.0,0.0,3.6586,3.6664,3.721,3.772,3.7809,3.7735,3.7661,3.7661,3.7589,3.7279,3.66,3.6477,3.6228,3.5587,3.5392,3.5326,3.5326,3.4442,3.3842,3.3842,3.3066,3.2593,3.2593,3.2593,3.2593,3.2593,3.2593,3.2593,3.2593,3.2593,3.2593,3.2593,3.25,3.25,3.2593,3.25,3.25,3.2593,3.2593,3.2522,3.2464,3.2464,3.25,3.2593,3.2593,3.2464,3.2285,3.2285,3.2285,3.2217,3.1613,3.1026,3.046,2.9839,2.9239,2.8798,2.873,2.8716,2.8607,2.8011,2.7438,2.6854,2.6208,2.5159,2.4255,2.4189,2.4176,2.4176,2.4176,2.417,2.3825,2.2683,2.1878,2.1004,1.986,1.9618,1.9123,1.7797,1.7605,1.7605,1.7605,1.7523,1.7468,1.7468,1.7413,1.7052,1.6312,1.4904,1.4064,1.4064,1.3394,1.3009,1.3009,1.3009,1.3112,1.3402,1.3868,1.423,1.4516,1.4981,1.5199,1.5199,1.5199,1.5092,3.6011,3.6671,3.706,0.0,3.6451,3.6726,3.6417,3.7249,3.8082,3.8066,3.8635,3.9139,3.9133,3.8761,3.8442,0.0,3.8092,3.769,3.7338,3.7308,3.7189,3.689,3.6446,3.5975,3.5537,3.5133,3.4872,3.4872,3.4524,3.4308,3.4308,3.4308,3.4308,3.4308,3.4308,3.4308,3.4308,3.4308,3.4308,3.4274,3.3671,3.3719,3.4274,3.3671,3.3719,3.4274,3.3671,3.3754,3.4225,3.3671,3.3754,3.4308,3.4308,3.4308,3.4158,3.3031,3.2337,3.1971,3.1688,3.0972,3.0165,2.9885,2.9435,2.9002,2.9002,2.9002,2.8878,2.8178,2.7602,2.7039,2.6374,2.557,2.4922,2.4922,2.4922,2.4828,2.4434,2.4135,2.3664,2.2765,2.2079,2.1504,2.0979,2.0915,2.0705,2.0079,1.9349,1.8874,1.8874,1.8501,1.8085,1.766,1.7605,1.7468,1.7174,1.6553,1.6175,1.6175,1.585,1.5668,1.5668,1.5668,1.5719,1.584,1.6617,1.7066,1.7183,1.7978,1.8352,1.8352,1.8352,1.8352,3.5644,3.6028,0.0,3.5735,3.6197,3.6846,3.7066,3.8075,3.9056,3.9242,3.974,4.0096,4.0096,3.9636,3.9236,3.9236,3.8789,3.8346,3.8149,3.8121,3.8035,3.7806,3.7279,3.6722,3.6196,3.5733,3.5587,3.5782,3.5619,3.5587,3.5782,3.5619,3.5504,3.5504,3.5701,3.5814,3.5814,3.6022,3.6022,3.5767,3.5077,3.4993,3.5472,3.4758,3.4909,3.5767,3.5029,3.5257,3.607,3.5357,3.5355,3.5831,3.5809,3.5685,3.5321,3.3723,3.2828,3.2351,3.1965,3.1274,3.0517,3.0316,2.9995,2.969,2.969,2.9563,2.9278,2.8626,2.802,2.7428,2.6764,2.6147,2.5701,2.5701,2.5701,2.5533,2.4864,2.4418,2.3914,2.307,2.2416,2.1922,2.172,2.1697,2.1697,2.1697,2.0915,2.032,2.032,1.9709,1.9073,1.8531,1.814,1.7895,1.7895,1.7715,1.7605,1.7605,1.7605,1.7605,1.7605,1.7605,1.7605,1.7605,1.8608,1.9112,1.9112,2.0109,2.059,2.059,2.059,2.059,3.5739,3.5616,3.5633,3.56,3.6197,3.6998,3.7702,3.8447,3.9191,3.9926,4.0079,4.0096,4.0096,4.007,4.007,4.007,4.0045,3.9756,3.8978,3.8881,3.8608,3.7908,3.7793,3.7748,0.0,3.6368,3.5814,3.6523,3.5894,3.5814,3.6523,3.5894,3.5504,3.5504,3.6196,3.6584,3.6584,3.7338,3.7338,3.6584,3.6554,3.6165,3.5504,3.5472,3.5847,3.6538,3.6538,3.6964,3.7735,3.769,3.7233,3.6568,3.6653,3.6198,3.5427,3.4688,3.444,3.423,3.2915,3.2452,3.2318,3.1647,3.1424,3.1409,3.1409,3.0975,3.0347,2.9719,2.9077,2.8405,2.7718,2.7023,2.6484,2.6484,2.6484,2.627,2.5609,2.5487,2.5171,2.3902,2.3126,2.2475,2.1805,2.1697,2.1697,2.1697,2.1673,2.1625,2.1625,2.1113,2.0721,2.0721,1.949,1.8661,1.8661,1.8004,1.7605,1.7605,1.7605,1.7605,1.7605,1.7605,1.7605,1.7605,1.8608,1.9112,1.9112,2.0109,2.059,2.059,2.059,2.059,3.6706,3.6646,3.6646,3.6646,3.7644,3.855,3.8412,3.9353,4.0237,4.0103,4.0096,4.0096,4.0096,4.0096,4.0096,4.0096,4.0096,4.002,3.9731,3.9705,3.961,3.9375,3.8843,0.0,0.0,0.0,0.0,3.7368,3.7175,3.7145,3.7397,3.7175,3.7041,3.7041,3.7265,3.7397,3.7397,3.7661,3.7661,3.7397,3.7397,3.7265,3.7041,3.7041,3.7175,3.7397,3.7397,3.7544,3.7793,3.7793,3.7361,3.6669,3.6689,3.6253,3.5496,3.481,3.4561,3.4353,3.2987,3.252,3.2522,3.2293,3.2516,3.2812,3.2321,3.2008,3.1586,3.0445,2.996,2.9656,2.8975,2.8607,2.841,2.841,2.8046,2.7496,2.6824,2.6321,2.5737,2.4859,2.4513,2.4302,2.4071,2.3731,2.3375,2.301,2.2248,2.1697,2.1697,2.152,2.139,2.139,2.0962,2.0678,2.0678,2.0454,2.033,2.033,2.033,2.0142,1.9736,1.971,1.969,1.967,2.0346,2.0863,2.1214,2.1928,2.2249,2.2249,2.2249,2.2249,3.803,3.8062,3.8062,3.8062,3.9,3.9838,3.9445,4.0315,4.111,4.0791,4.0538,4.0392,4.0392,4.0229,4.0096,4.0096,4.0096,4.0096,4.0096,4.0096,4.0096,4.0096,3.9636,3.9342,0.0,0.0,0.0,3.8218,3.795,3.7921,3.8161,3.795,3.7793,3.7793,3.8064,3.8189,3.8189,3.8486,3.8486,3.8206,3.7921,3.7793,3.7793,3.7793,3.795,3.8189,3.8189,3.82,3.8237,3.8237,3.7633,3.6691,3.6733,3.6279,3.5529,3.4865,3.4591,3.4436,3.3289,3.29,3.296,3.296,3.3077,3.3125,3.2652,3.2148,3.1541,3.0655,3.0224,2.9943,2.9496,2.9406,2.9406,2.9406,2.884,2.8121,2.7438,2.6709,2.5987,2.5326,2.5202,2.5202,2.5202,2.4914,2.4572,2.4225,2.3475,2.2803,2.2418,2.2179,2.2053,2.2053,2.1852,2.1697,2.1697,2.1697,2.1697,2.1697,2.1697,2.152,2.1137,2.1113,2.1196,2.1407,2.1954,2.2527,2.3087,2.3644,2.393,2.393,2.393,2.393,3.9591,3.9688,3.9688,3.9688,4.0237,4.0768,4.0748,4.1307,4.1832,4.181,4.1358,4.0949,0.0,0.0,4.0171,4.0146,4.0146,4.0121,4.0096,4.0096,4.0096,0.0,0.0,0.0,0.0,0.0,0.0,3.9032,0.0,3.8218,3.8908,3.8318,3.7937,3.7937,3.858,3.8962,3.8962,3.9731,3.9731,3.8935,3.8262,3.7937,3.7937,3.7937,3.8286,3.8912,3.8912,3.8918,3.8937,3.8937,3.8062,3.6727,3.6774,3.6305,3.5539,3.4904,3.4664,3.4552,3.3912,3.3684,3.3659,3.3659,3.3185,3.2608,3.2551,3.1598,3.0493,3.0461,2.9987,2.9496,2.9496,2.9496,2.948,2.9448,2.888,2.8159,2.7474,2.6743,2.6034,2.5407,2.5278,2.5278,2.524,2.524,2.524,2.5186,2.5202,2.4831,2.3815,2.3187,2.283,2.283,2.2248,2.1871,2.1871,2.1871,2.1871,2.1871,2.1871,2.1862,2.1833,2.1833,2.2152,2.2782,2.3365,2.3946,2.4553,2.5135,2.5398,2.5398,2.5398,2.5398,4.0682,4.0721,4.0721,4.0721,4.1303,4.176,4.1336,4.1869,4.2342,4.1895,4.1686,4.1578,0.0,0.0,0.0,4.0774,4.0703,0.0,4.0171,4.0096,0.0,4.0655,0.0,4.0254,4.0655,4.0319,0.0,0.0,3.961,3.9601,3.9782,3.9627,3.9506,3.9506,3.9705,3.9782,3.9782,3.9995,3.9995,3.9782,3.9584,3.9506,3.9506,3.9506,3.9326,3.8975,3.8975,3.8688,3.8176,3.8176,3.7624,3.6774,3.6793,3.6308,3.5585,3.5406,3.5339,3.5316,3.5161,3.4752,3.4358,3.4358,3.4169,3.389,3.3334,3.2538,3.1708,3.1154,3.087,3.074,3.074,3.074,3.0606,3.0052,2.9368,2.86,2.7831,2.7081,2.6531,2.6349,2.6315,2.621,2.587,2.5797,2.5652,2.5259,2.5202,2.5105,2.4831,2.4657,2.4561,2.4561,2.4409,2.4312,2.4312,2.4312,2.4312,2.4312,2.4312,2.4155,2.3813,2.3782,2.3879,2.4054,2.4207,2.4568,2.5163,2.5315,2.5398,2.5398,2.5398,2.5398,4.2066,4.2158,4.2158,4.2158,4.2488,4.2732,4.2395,4.2705,4.2958,4.2619,4.2364,0.0,4.2183,4.1979,0.0,0.0,0.0,0.0,4.0891,4.0861,4.0961,0.0,4.1013,0.0,4.1268,4.1013,4.0861,0.0,4.0385,4.0204,4.0424,4.0449,4.057,4.0838,4.0861,4.0861,4.0861,4.0594,4.0577,4.0838,4.0594,4.0398,4.0331,4.0331,3.9894,3.9186,0.0,3.8755,3.8082,3.8082,3.7638,3.6968,3.6968,3.6692,3.6295,3.6295,3.6295,3.6295,3.6295,3.5805,3.5098,3.4694,3.4309,3.3922,3.3386,3.2681,3.2038,3.1816,3.1769,3.1714,3.1507,3.1451,3.1263,3.0509,2.9757,2.9059,2.8455,2.7745,2.7225,2.7225,2.7225,2.7145,2.6871,2.6838,2.6739,2.6421,2.6387,2.6319,2.6144,2.5584,2.5202,2.5202,2.5202,2.5202,2.5202,2.5202,2.5202,2.5202,2.5509,2.5552,2.5292,2.5608,2.5909,2.6217,2.6208,2.6525,2.7157,2.7157,2.7157,2.7157,2.7157,2.7157,4.3296,4.3515,4.3515,4.3515,4.3515,4.3515,4.3515,4.3515,4.3515,4.3515,0.0,4.2807,4.2807,4.2382,4.1982,4.1937,0.0,4.1895,4.181,4.181,4.1832,4.1916,4.1853,4.1832,4.1916,4.1853,4.181,4.181,4.0868,4.0521,4.0995,4.1018,4.1268,4.1771,4.181,4.181,4.181,4.1291,4.1291,4.1793,4.1163,4.0779,4.0598,4.0492,3.9994,3.9252,0.0,0.0,3.816,3.816,3.7773,3.7209,3.7209,3.7209,3.7209,3.7209,3.7209,3.7174,3.7085,3.6535,3.5765,3.495,3.4108,3.339,3.3137,3.2505,3.1969,3.2384,3.2501,3.2417,3.1986,3.188,3.1671,3.0768,3.0057,2.9461,2.8961,2.8343,2.7897,2.7897,2.7897,2.7897,2.7897,2.7897,2.7897,2.7897,2.7897,2.7765,2.7424,2.6266,2.547,2.5395,2.5411,2.5411,2.5411,2.5492,2.5556,2.5556,2.6254,2.667,2.6671,2.7292,2.7932,2.8511,2.8527,2.881,2.9406,2.9406,2.9406,2.9406,2.9406,2.9406,4.346,4.3515,4.3515,4.3515,4.3515,4.3515,4.3515,4.3515,0.0,0.0,4.3427,4.3375,4.3375,4.3286,4.3051,4.2635,4.2539,4.2362,0.0,0.0,4.1979,0.0,0.0,0.0,0.0,0.0,0.0,0.0,0.0,4.1552,4.1643,4.1643,4.1686,4.181,4.181,4.181,4.181,4.1703,4.1703,4.1793,4.1008,4.0637,4.058,3.9905,3.9199,3.8494,3.8494,0.0,3.7385,3.7385,3.7333,3.7209,3.7209,3.7209,3.7209,3.7209,3.7209,3.7103,3.6374,3.602,3.5859,3.5709,3.4704,3.3564,3.3512,3.2966,3.2401,3.2484,3.2501,3.2484,3.2401,3.2384,3.2013,3.0621,3.0162,2.9702,2.8378,2.7986,2.7897,2.7897,2.7897,2.7897,2.7897,2.7897,2.7897,2.7897,2.7897,2.7883,2.7794,2.7282,2.6806,2.6471,2.6436,2.6436,2.6436,2.7006,2.7358,2.7358,2.808,2.8562,2.8693,2.8804,2.8986,2.9221,2.9237,2.9278,2.9406,2.9406,2.9406,2.9406,2.9406,2.9406,4.3515,4.3515,4.3515,4.3515,4.3515,4.3515,4.3515,0.0,0.0,0.0,4.3515,4.3515,4.3515,4.3515,0.0,4.316,4.3124,4.3032,4.2734,0.0,0.0,0.0,0.0,0.0,0.0,0.0,0.0,0.0,0.0,4.2562,4.2282,4.2523,4.2678,4.2678,4.2678,4.2678,4.2678,4.2422,4.2187,4.2045,4.1343,4.0751,4.0221,3.9842,3.9229,3.8525,3.8525,0.0,3.7982,3.7982,3.7982,3.7982,3.7982,3.7982,3.7982,3.7982,3.7711,3.7295,3.6882,3.6161,3.5425,3.5425,3.461,3.3579,3.3439,3.3144,3.2921,3.3121,3.3181,3.3136,3.2919,3.2856,3.257,3.1425,3.0981,3.0613,2.9881,2.9718,2.9718,2.9718,2.9718,2.9718,2.9718,2.9718,2.9718,2.9718,2.9718,2.967,2.9478,2.9276,2.8868,2.8035,2.8317,2.856,2.856,2.8892,2.91,2.91,2.983,3.0266,3.0347,3.0706,3.084,3.0647,3.0664,3.0555,3.0351,3.0351,3.0351,3.0351,3.0351,3.0351,4.3515,4.3515,4.3515,4.3515,4.3515,4.3515,4.3515,4.3515,0.0,4.3515,4.3515,4.3515,4.3515,4.3515,4.3515,0.0,4.3515,4.3515,4.3515,0.0,0.0,0.0,0.0,0.0,0.0,0.0,0.0,0.0,0.0,0.0,4.2902,4.3268,4.3515,4.3515,4.3515,4.3515,4.3515,4.2905,4.2523,4.2304,4.1468,4.0667,3.9882,3.9717,3.9294,3.8707,3.8707,0.0,0.0,3.8707,3.8707,3.8707,3.8762,3.8788,3.8755,3.8589,3.8125,3.7536,3.7118,3.6101,3.4981,3.4866,3.4298,3.3611,3.3394,3.3332,3.339,3.3707,3.3807,3.3721,3.3404,3.3332,3.3118,3.2325,3.1811,3.1489,3.1489,3.153,3.1577,3.1577,3.1577,3.1577,3.1577,3.1577,3.1577,3.1577,3.1577,3.147,3.1131,3.1237,3.0957,2.9966,3.0113,3.0308,3.0308,3.0434,3.0541,3.0541,3.1219,3.1629,3.1629,3.2181,3.2333,3.1968,3.1951,3.1788,3.1485,3.1485,3.1485,3.1485,3.1485,3.1485,4.3515,4.3515,4.3515,4.3515,4.3515,4.3515,4.3515,0.0,4.3515,4.3515,4.3515,4.3515,4.3515,4.3515,4.3515,4.3515,4.3515,4.3515,4.3515,0.0,0.0,0.0,0.0,0.0,0.0,0.0,0.0,0.0,0.0,0.0,4.3427,4.3462,4.3515,4.3515,4.3515,4.3515,4.3515,4.2729,4.2309,4.2286,4.0767,3.9997,3.9879,3.9148,3.8781,3.8707,3.8707,0.0,0.0,3.8707,3.8707,3.8719,3.8975,3.9058,3.8965,3.8239,3.7923,3.7604,3.5828,3.5133,3.4931,3.4433,3.4053,3.3785,3.3753,3.3734,3.3748,3.3775,3.3807,3.3775,3.3748,3.3734,3.3533,3.2745,3.2126,3.1749,3.1749,3.1952,3.2128,3.2128,3.2128,3.2128,3.2128,3.2128,3.2128,3.2128,3.2128,3.2032,3.1749,3.2362,3.2679,3.2324,3.1081,3.0308,3.0308,3.0898,3.1306,3.1306,3.1985,3.2395,3.2395,3.2465,3.2484,3.2434,3.2434,3.2417,3.2384,3.2384,3.2384,3.2384,3.2384,3.2384,4.3804,4.3804,4.3804,4.3804,4.3804,4.3804,4.3804,0.0,4.3515,4.3515,4.3515,4.3515,4.3515,4.3515,4.3515,4.3515,4.3515,4.3515,4.3515,0.0,0.0,0.0,0.0,0.0,0.0,0.0,0.0,0.0,0.0,0.0,4.4169,4.3927,4.3804,4.3804,4.4035,4.3911,4.3393,4.3057,4.2389,4.1386,4.0746,4.02,3.9709,3.9391,3.9242,3.9242,3.9242,0.0,0.0,3.9242,3.9242,3.9255,3.9358,3.9389,3.9295,3.8457,3.7819,3.7237,3.5991,3.5233,3.479,3.4577,3.4431,3.433,3.433,3.433,3.433,3.433,3.433,3.433,3.433,3.433,3.4255,3.3938,3.3701,3.3552,3.3552,3.3626,3.3695,3.3695,3.3695,3.3695,3.3695,3.3695,3.3695,3.3695,3.3695,3.3674,3.3563,3.3824,3.3977,3.3885,3.3002,3.2418,3.2418,3.2675,3.2842,3.2842,3.3118,3.3284,3.3284,3.3284,3.3166,3.2937,3.2921,3.2777,3.2501,3.2501,3.2501,3.2501,3.2501,3.2501,4.4175,4.4175,4.4175,4.4175,4.4175,4.4146,0.0,0.0,4.3612,4.3513,4.3515,4.3515,4.3515,4.3515,4.3515,4.3515,4.358,4.3646,4.3646,4.3742,0.0,0.0,0.0,0.0,0.0,0.0,0.0,0.0,0.0,0.0,0.0,4.4428,4.429,4.4175,4.446,4.4183,4.3309,4.3064,4.2215,4.0796,4.0563,4.0141,3.9599,3.9599,3.9599,3.9599,0.0,0.0,0.0,3.9599,3.9599,3.9611,3.972,3.9602,3.925,3.8418,3.7566,3.6733,3.5847,3.5174,3.4704,3.4784,3.4832,3.4822,3.4917,3.4832,3.4694,3.4694,3.4694,3.4694,3.4694,3.4694,3.4694,3.4694,3.4754,3.4832,3.4832,3.4889,3.4935,3.4935,3.4935,3.4935,3.4935,3.4935,3.4935,3.4935,3.4935,3.4917,3.4841,3.4832,3.4803,3.4704,3.4325,3.408,3.408,3.408,3.408,3.408,3.408,3.408,3.408,3.408,3.393,3.3656,3.3565,3.3332,3.3,3.2932,3.2887,3.2887,3.2887,3.2887,4.4593,4.4593,4.4593,4.4593,4.4593,4.4487,4.4087,4.4001,4.3912,4.3563,4.3515,4.3515,4.3515,4.3515,4.3515,4.3515,4.3772,4.3982,4.3982,4.435,0.0,0.0,0.0,0.0,0.0,0.0,0.0,0.0,0.0,0.0,0.0,4.4908,4.4931,4.4593,4.4612,4.4183,4.3309,4.2511,4.1669,4.0777,3.9984,3.9599,3.9599,3.9599,3.9599,0.0,0.0,0.0,0.0,3.9599,3.9599,3.9634,3.9972,3.9576,3.8709,3.7898,3.7067,3.6165,3.5077,3.4713,3.4734,3.5008,3.5096,3.5157,3.5417,3.5122,3.4694,3.4694,3.4694,3.4694,3.4694,3.4694,3.4694,3.4694,3.4908,3.5096,3.5096,3.5304,3.5493,3.5493,3.5493,3.5493,3.5493,3.5493,3.5493,3.5493,3.5493,3.541,3.5122,3.5096,3.499,3.4724,3.4684,3.4684,3.4684,3.4684,3.4684,3.4684,3.4684,3.4684,3.4684,3.4684,3.4684,3.4684,3.4368,3.4188,3.4176,3.391,3.3793,3.3793,3.3793,3.3793,4.4943,4.4943,4.4943,4.4943,4.4943,4.4908,4.4781,4.4574,4.4378,4.4266,4.4252,4.4252,4.4252,4.4252,4.4252,4.4252,4.4337,4.4419,0.0,0.0,0.0,0.0,0.0,0.0,0.0,0.0,0.0,0.0,0.0,0.0,0.0,4.5371,4.5302,4.4943,4.4597,4.4,4.3178,4.2317,4.1456,4.0595,4.0336,4.0221,4.0221,4.0221,0.0,0.0,0.0,0.0,0.0,4.0221,4.0221,4.0173,3.9725,3.9386,3.8964,3.7525,3.6815,3.6443,3.5549,3.5258,3.5266,3.5354,3.5376,3.5383,3.546,3.5376,3.5258,3.5258,3.5258,3.5258,3.5258,3.5258,3.5258,3.5258,3.5304,3.5376,3.5376,3.5439,3.55,3.55,3.55,3.55,3.55,3.55,3.55,3.55,3.55,3.5479,3.5383,3.5376,3.5346,3.5266,3.5258,3.5096,3.4724,3.4694,3.4694,3.4694,3.4694,3.4694,3.4694,3.4694,3.4694,3.4694,3.4612,3.454,3.454,3.4453,3.4428,3.4428,3.4428,3.4428,4.5292,4.5292,4.5292,4.5292,4.5292,0.0,4.5118,4.4931,4.4745,4.4637,4.4593,4.4593,4.4593,4.4593,4.4593,4.4593,4.4714,4.48,0.0,0.0,0.0,0.0,0.0,0.0,0.0,0.0,0.0,0.0,0.0,0.0,0.0,4.5594,4.535,4.4814,4.4468,4.3912,4.3104,4.2239,4.1354,4.0496,4.0496,4.0496,4.0496,4.0496,0.0,0.0,0.0,0.0,0.0,4.0496,4.0496,4.0419,3.9611,3.9111,3.8642,3.7219,3.65,3.6173,3.5673,3.5528,3.554,3.554,3.5544,3.5577,3.5577,3.5547,3.55,3.55,3.55,3.55,3.55,3.55,3.55,3.55,3.55,3.55,3.55,3.5515,3.554,3.554,3.5556,3.5577,3.5577,3.5577,3.5577,3.5577,3.5577,3.5577,3.5577,3.5577,3.5577,3.5577,3.5577,3.5437,3.5116,3.5026,3.4999,3.4999,3.4999,3.4999,3.4999,3.4999,3.4999,3.4999,3.4908,3.486,3.486,3.4744,3.4694,3.4694,3.4694,3.4694,0.0,4.5594,4.5594,4.5594,4.5594,4.5513,4.5211,4.5148,0.0,4.4751,4.467,4.467,4.467,4.467,4.467,4.467,4.4931,4.5148,0.0,0.0,0.0,0.0,0.0,0.0,0.0,0.0,0.0,0.0,0.0,0.0,0.0,4.5594,4.521,4.4335,4.4239,4.3835,4.3028,4.2143,4.1296,4.0496,4.0496,4.0496,4.0496,4.0496,0.0,0.0,0.0,0.0,0.0,4.0512,4.0519,4.0423,3.9572,3.8724,3.7916,3.6965,3.6157,3.5521,3.5521,3.5564,3.5606,3.5606,3.5646,3.5707,3.5707,3.5616,3.5521,3.5521,3.5521,3.5521,3.5521,3.5521,3.5521,3.5521,3.5521,3.5521,3.5521,3.5568,3.5606,3.5606,3.5659,3.5707,3.5707,3.5707,3.5707,3.5707,3.5707,3.5707,3.5707,3.5707,3.5707,3.5707,3.5707,3.5707,3.5707,3.5599,3.5521,3.5521,3.5521,3.5515,3.5501,3.5501,3.5494,3.55,3.5266,3.5122,3.5122,3.4889,3.4773,3.4773,3.4773,3.4773,4.5594,0.0,4.5594,4.5594,4.5594,4.5577,0.0,4.5485,4.5448,4.5371,4.5362,4.5362,4.5362,4.5362,4.5362,4.5362,4.5429,4.5485,0.0,0.0,0.0,0.0,0.0,0.0,0.0,0.0,0.0,0.0,0.0,0.0,0.0,4.5594,4.521,4.4335,4.3701,4.297,4.2104,4.1239,4.0708,4.0496,4.0496,4.0496,4.0496,4.0496,0.0,0.0,0.0,0.0,4.0504,4.061,4.0642,4.05,3.9088,3.8408,3.8034,3.6505,3.5825,3.565,3.565,3.5671,3.5671,3.5671,3.5686,3.5707,3.5707,3.5675,3.565,3.565,3.565,3.565,3.565,3.565,3.565,3.565,3.565,3.565,3.565,3.5671,3.5671,3.5671,3.5689,3.5707,3.5707,3.5707,3.5707,3.5707,3.5707,3.5707,3.5707,3.5707,3.5707,3.5707,3.5707,3.5707,3.5707,3.5663,3.565,3.565,3.565,3.563,3.5582,3.5577,3.5558,3.55,3.5439,3.5417,3.5417,3.5327,3.5304,3.5304,3.5304,3.5304,4.5594,4.5594,4.5594,4.5594,4.5594,4.5594,4.5594,4.5594,4.5594,4.5594,4.5594,4.5594,4.5594,4.5594,4.5594,0.0,4.5594,0.0,0.0,0.0,0.0,0.0,0.0,0.0,0.0,0.0,0.0,0.0,0.0,0.0,0.0,4.5737,4.5176,4.3931,4.3466,4.2774,4.1816,4.0931,4.0496,4.0496,4.0496,4.0496,4.0496,4.0566,4.0582,0.0,0.0,0.0,4.0633,4.0712,4.0762,4.0573,3.8949,3.8291,3.8097,3.6345,3.5707,3.5707,3.5707,3.5729,3.5802,3.5832,3.5839,3.5839,3.5839,3.5839,3.581,3.5726,3.5707,3.5707,3.5707,3.5707,3.5707,3.5707,3.5707,3.5707,3.5707,3.5755,3.5797,3.5797,3.5823,3.5839,3.5839,3.5839,3.5839,3.5839,3.5839,3.5839,3.5839,3.5839,3.5839,3.5839,3.5839,3.5839,3.5839,3.5839,3.5799,3.571,3.5707,3.5682,3.5642,3.5657,3.5626,3.5595,3.5551,3.5551,3.5551,3.5512,3.553,3.5556,3.5556,3.5566,4.5594,4.5594,4.5594,4.5594,4.5594,4.5594,4.5594,4.5594,4.5594,4.5594,4.5594,4.5594,4.5594,4.5594,0.0,0.0,0.0,0.0,0.0,0.0,0.0,0.0,0.0,0.0,0.0,0.0,0.0,0.0,0.0,0.0,0.0,4.5899,4.5121,4.3447,4.3408,4.2839,4.1658,4.0906,4.0547,4.0547,4.0547,4.0547,4.0554,4.0654,4.0713,0.0,0.0,0.0,4.0801,4.0816,4.0824,4.0687,3.9143,3.8468,3.814,3.6543,3.5861,3.5744,3.5744,3.5819,3.5917,3.5975,3.5996,3.5996,3.5996,3.5996,3.5955,3.5795,3.5744,3.5744,3.5744,3.5744,3.5744,3.5744,3.5744,3.5744,3.5744,3.5845,3.5911,3.5911,3.5951,3.5996,3.5996,3.5996,3.5996,3.5996,3.5996,3.5996,3.5996,3.5996,3.5996,3.5996,3.5996,3.5996,3.5996,3.5996,3.593,3.5752,3.5744,3.5738,3.5726,3.5694,3.5687,3.5687,3.5645,3.5626,3.5626,3.5576,3.5562,3.5635,3.5618,3.5645,4.5594,4.5594,4.5594,4.5594,4.5594,4.5594,4.5594,4.5594,4.5594,4.5594,4.5594,4.5594,4.5594,4.5594,4.5594,0.0,0.0,0.0,0.0,0.0,0.0,0.0,0.0,0.0,0.0,0.0,0.0,0.0,0.0,0.0,0.0,0.0,4.5121,4.3447,4.3408,4.2613,4.098,4.0824,4.0746,4.0746,4.0746,4.0746,4.0746,4.0784,4.0773,0.0,0.0,4.0797,4.0805,4.092,4.0964,4.0871,4.0009,3.9196,3.8434,3.7438,3.6598,3.5954,3.5954,3.5974,3.5995,3.5996,3.5996,3.5996,3.5996,3.5996,3.5996,3.5955,3.5954,3.5954,3.5954,3.5954,3.5954,3.5954,3.5954,3.5954,3.5954,3.5975,3.5976,3.5976,3.5996,3.5996,3.5996,3.5996,3.5996,3.5996,3.5996,3.5996,3.5996,3.5996,3.5996,3.5996,3.5996,3.5996,3.5996,3.5996,3.5996,3.5954,3.5954,3.5926,3.5873,3.5702,3.5626,3.5626,3.5668,3.5687,3.5687,3.5725,3.5765,3.5775,3.5717,3.5687,4.5594,4.5594,4.5594,4.5594,4.5594,4.5594,4.5594,4.5594,4.5594,4.5594,4.5594,4.5594,0.0,0.0,4.5725,0.0,0.0,0.0,0.0,0.0,0.0,0.0,0.0,0.0,0.0,0.0,0.0,0.0,0.0,0.0,0.0,0.0,4.5334,4.3617,4.3558,4.2739,4.1021,4.1021,4.093,4.0797,4.0797,4.0797,4.0801,4.0874,4.0911,4.0914,0.0,4.1021,4.1023,4.108,4.1105,4.1028,4.0214,3.9668,3.9141,3.7793,3.6758,3.5996,3.5996,3.5996,3.5996,3.5996,3.5996,3.5996,3.5996,3.5996,3.5996,3.5996,3.5996,3.5996,3.5996,3.5996,3.5996,3.5996,3.5996,3.5996,3.5996,3.5996,3.5996,3.5996,3.5996,3.5996,3.5996,3.5996,3.5996,3.5996,3.5996,3.5996,3.5996,3.5996,3.5996,3.5996,3.5996,3.5996,3.5996,3.5996,3.5996,3.5996,3.5996,3.5995,3.597,3.5879,3.5812,3.5812,3.5851,3.5851,3.5851,3.5894,3.5906,3.5906,3.5876,3.5861,4.5594,4.5594,4.5594,4.5594,4.5594,4.5594,4.5594,4.5618,4.5651,4.5651,4.5653,0.0,0.0,4.575,0.0,0.0,0.0,0.0,0.0,0.0,0.0,0.0,0.0,0.0,0.0,0.0,0.0,0.0,0.0,0.0,0.0,0.0,4.5508,4.3769,4.3691,4.2891,4.1211,4.1191,4.1102,4.0883,4.0883,4.0883,4.0905,4.0996,4.1051,4.1052,4.115,4.1191,4.1191,4.1191,4.1191,4.1133,4.0469,4.0078,3.9707,3.8164,3.7051,3.6309,3.6309,3.6172,3.5996,3.5996,3.5996,3.5996,3.5996,3.5996,3.5996,3.5996,3.5996,3.5996,3.5996,3.5996,3.5996,3.5996,3.5996,3.5996,3.5996,3.5996,3.5996,3.5996,3.5996,3.5996,3.5996,3.5996,3.5996,3.5996,3.5996,3.5996,3.5996,3.5996,3.5996,3.5996,3.5996,3.5996,3.5996,3.5996,3.5996,3.5996,3.5996,3.5996,3.5996,3.5996,3.5996,3.5996,3.5996,3.5996,3.5996,3.5996,3.5996,3.5996,3.5996,3.5996,4.5594,4.5594,4.5594,4.5594,4.5594,4.5594,4.5594,4.5692,4.5783,4.5783,4.5842,0.0,0.0,4.5881,0.0,0.0,0.0,0.0,0.0,0.0,0.0,0.0,0.0,0.0,0.0,0.0,0.0,0.0,0.0,0.0,0.0,0.0,0.0,4.3769,4.3691,4.2891,4.1211,4.1191,4.1191,4.1171,4.1171,4.1171,4.1171,4.1171,4.1191,4.1191,4.1191,4.1191,4.1191,4.1191,4.1191,4.1191,4.1133,4.0605,3.9785,3.8848,3.7949,3.7207,3.7207,3.668,3.5996,3.5996,3.5996,3.5996,3.5996,3.5996,3.5996,3.5996,3.5996,3.5996,3.5996,3.5996,3.5996,3.5996,3.5996,3.5996,3.5996,3.5996,3.5996,3.5996,3.5996,3.5996,3.5996,3.5996,3.5996,3.5996,3.5996,3.5996,3.5996,3.5996,3.5996,3.5996,3.5996,3.5996,3.5996,3.5996,3.5996,3.5996,3.5996,3.5996,3.5996,3.5996,3.5996,3.5996,3.5996,3.5996,3.5996,3.5996,3.5996,3.5996,3.5996,3.5996,4.57,4.5718,4.572,4.5776,4.5782,4.5776,4.572,4.5749,4.597,4.6554,4.626,0.0,0.0,0.0,0.0,0.0,0.0,0.0,0.0,0.0,0.0,0.0,0.0,0.0,0.0,0.0,0.0,0.0,0.0,0.0,0.0,0.0,0.0,4.3769,4.3691,4.2891,4.1211,4.1191,4.1191,4.1191,4.1191,4.1191,4.1191,4.1191,4.1191,4.1191,4.1191,4.1191,4.1191,4.1191,4.1191,4.1191,4.1191,4.0664,3.9863,3.9531,3.8867,3.8105,3.8105,3.7891,3.7617,3.7617,3.7555,3.7406,3.69,3.6687,3.6504,3.5962,3.5808,3.5841,3.5975,3.5996,3.5996,3.5948,3.5944,3.5918,3.5834,3.5889,3.5944,3.5944,3.5944,3.5944,3.5944,3.5866,3.5808,3.5808,3.5808,3.5838,3.5922,3.5866,3.5859,3.5922,3.5944,3.595,3.5996,3.5996,3.623,3.6777,3.6309,3.5996,3.5996,3.5996,3.5996,3.5996,3.7051,3.707,3.5996,3.7422,3.7949,3.7617,3.7617,3.7617,4.5808,4.5838,4.5842,4.59,4.5899,4.5909,4.5901,4.589,4.6071,4.6719,4.6619,4.6379,4.6204,0.0,0.0,0.0,0.0,0.0,0.0,0.0,0.0,0.0,0.0,0.0,0.0,0.0,0.0,0.0,0.0,0.0,0.0,0.0,0.0,0.0,4.3848,4.3027,4.1582,4.1328,4.1191,4.1191,4.1191,4.1191,4.1191,4.1191,4.1191,4.1191,4.1191,4.1191,4.1191,4.1191,4.1191,4.1191,4.1191,4.084,4.0312,4.0251,3.9703,3.894,3.8912,3.8733,3.8518,3.8518,3.844,3.8268,3.7705,3.7472,3.7284,3.6689,3.6514,3.6544,3.6687,3.6312,3.5957,3.6196,3.6246,3.6292,3.6469,3.6598,3.665,3.665,3.665,3.665,3.665,3.6573,3.6514,3.6514,3.6514,3.6557,3.6645,3.6589,3.6557,3.6645,3.665,3.6688,3.6719,3.6727,3.6984,3.7571,3.7069,3.668,3.6543,3.6543,3.6621,3.6816,3.7988,3.8281,3.7637,3.8828,3.9219,3.8848,3.8672,3.8594,4.5903,4.5903,4.5903,4.5903,4.5903,4.5932,4.6077,4.6108,4.6108,4.611,4.6905,4.7324,4.6465,0.0,0.0,0.0,0.0,0.0,0.0,0.0,0.0,0.0,0.0,0.0,0.0,0.0,0.0,0.0,0.0,0.0,0.0,0.0,0.0,0.0,4.4141,4.3281,4.2402,4.1601,4.1191,4.1191,4.1191,4.1191,4.1191,4.1191,4.1191,4.1191,4.1191,4.1191,4.1191,4.1191,4.1191,4.1191,4.1191,4.1191,4.1171,4.1052,4.0448,3.9696,3.9636,3.9054,3.8327,3.8327,3.8327,3.8327,3.8307,3.8307,3.8303,3.8303,3.8303,3.8303,3.8303,3.7012,3.5933,3.6817,3.7016,3.7249,3.8113,3.8307,3.8307,3.8307,3.8307,3.8307,3.8307,3.8307,3.8303,3.8303,3.8303,3.8303,3.8303,3.8307,3.8307,3.8307,3.8307,3.8307,3.8307,3.8293,3.8305,3.8302,3.831,3.8125,3.7715,3.7715,3.7988,3.8594,3.8613,3.9453,4.1172,3.998,3.9414,3.9394,3.8867,3.8613,4.6024,4.6039,4.6053,4.617,4.6175,4.6199,4.6225,4.6641,4.7038,4.7142,4.7382,4.7324,4.6465,0.0,0.0,0.0,0.0,0.0,0.0,0.0,0.0,0.0,0.0,0.0,0.0,0.0,0.0,0.0,0.0,0.0,0.0,0.0,0.0,0.0,4.4141,4.3281,4.2402,4.1601,4.1191,4.1191,4.1191,4.1191,4.1191,4.1191,4.1191,4.1191,4.1191,4.1191,4.1191,4.1191,4.1191,4.1191,4.1191,4.1149,4.1054,4.1002,4.0774,4.0468,4.0455,4.0268,4.0054,4.0054,4.0038,3.9862,3.9252,3.9046,3.8872,3.8254,3.8099,3.8099,3.8099,3.7713,3.7396,3.7709,3.7768,3.7825,3.8047,3.8125,3.8156,3.8156,3.8156,3.8156,3.8156,3.8114,3.8099,3.8099,3.8099,3.8099,3.8099,3.8136,3.8156,3.8156,3.8156,3.821,3.8284,3.8293,3.8561,3.9185,3.92,3.8887,3.8144,3.8127,3.8204,3.8391,3.9033,3.9559,3.9921,4.0428,4.0664,4.0664,4.0508,4.043,4.617,4.6175,4.62,4.6289,4.6308,4.6387,4.6738,0.0,0.0,0.0,4.7363,4.7324,4.6465,0.0,0.0,0.0,0.0,0.0,0.0,0.0,0.0,0.0,0.0,0.0,0.0,0.0,0.0,0.0,0.0,0.0,0.0,0.0,0.0,0.0,4.4668,4.3808,4.293,4.209,4.1523,4.1191,4.1191,4.1191,4.1191,4.1191,4.1191,4.1191,4.1191,4.1191,4.1191,4.1191,4.1191,4.1191,4.1191,4.115,4.1076,4.0959,4.0867,4.0785,4.0708,4.0671,4.0671,4.0671,4.0647,4.0526,3.9992,3.9802,3.9669,3.9142,3.8988,3.8988,3.8988,3.8988,3.8922,3.864,3.8588,3.8659,3.8941,3.9017,3.9052,3.9052,3.9052,3.9052,3.9052,3.9022,3.8988,3.8988,3.8988,3.8988,3.8988,3.9024,3.9052,3.9052,3.9052,3.9083,3.9171,3.917,3.9393,3.9929,3.9953,3.9724,3.9195,3.9256,3.928,3.9293,3.9846,4.0078,3.9959,4.0684,4.1049,4.1049,4.1069,4.1088,4.6308,4.6308,4.6308,4.6308,4.6308,0.0,4.7305,4.6875,4.6328,4.6406,0.0,4.7246,0.0,0.0,0.0,0.0,0.0,0.0,0.0,0.0,0.0,0.0,0.0,0.0,0.0,0.0,0.0,0.0,0.0,0.0,0.0,0.0,0.0,0.0,4.5449,4.4629,4.3828,4.2949,4.2109,0.0,4.1308,4.1269,4.1191,4.1191,4.1191,4.1191,4.1191,4.1191,4.1191,4.1191,4.1191,4.1171,4.1171,4.1171,4.1126,4.089,4.0777,4.0757,4.0556,4.0496,4.0496,4.0496,4.0496,4.0496,4.0496,4.0496,4.0496,4.0496,4.0496,4.0496,4.0496,4.0496,4.0323,3.9573,3.9419,3.9611,4.0342,4.0496,4.0496,4.0496,4.0496,4.0496,4.0496,4.0496,4.0496,4.0496,4.0496,4.0496,4.0496,4.0496,4.0496,4.0496,4.0496,4.0496,4.0496,4.0496,4.0496,4.0496,4.0496,4.0496,4.0496,4.0677,4.0773,4.0773,4.0771,4.0791,4.0788,4.0809,4.0793,4.0809,4.0875,4.0898,4.6308,4.6308,4.6308,4.6308,4.6308,4.6348,4.6543,4.6426,4.6484,4.7187,4.6933,0.0,0.0,0.0,0.0,0.0,0.0,0.0,0.0,0.0,0.0,0.0,0.0,0.0,0.0,0.0,0.0,0.0,0.0,0.0,0.0,0.0,0.0,4.6308,4.5449,4.4902,4.4726,4.3867,4.2988,0.0,4.2148,4.1816,4.1191,4.1191,4.1191,4.1191,4.1191,4.1191,4.1191,4.1191,4.1149,4.103,4.103,4.0956,4.081,4.0731,4.0654,4.0568,4.0527,4.0496,4.0496,4.0496,4.0496,4.0496,4.0496,4.0496,4.0496,4.0496,4.0496,4.0496,4.0496,4.0496,4.0458,4.0285,4.0246,4.0285,4.0458,4.0496,4.0496,4.0496,4.0496,4.0496,4.0496,4.0496,4.0496,4.0496,4.0496,4.0496,4.0496,4.0496,4.0496,4.0496,4.0496,4.0496,4.0496,4.0496,4.0496,4.0496,4.0496,4.0496,4.0496,4.0535,4.0554,4.0554,4.0672,4.0709,4.0717,4.0767,4.0827,4.0883,4.0889,4.0875,4.6308,4.6308,4.6308,4.6308,0.0,4.6308,4.6308,4.6308,4.6426,4.6875,0.0,0.0,0.0,0.0,0.0,0.0,0.0,0.0,0.0,0.0,0.0,0.0,0.0,0.0,0.0,0.0,0.0,0.0,0.0,0.0,0.0,4.6308,4.6308,4.6308,4.5859,4.543,4.5,4.4551,4.3887,4.3027,4.2598,4.1973,4.1191,4.1191,4.1191,4.1191,4.1128,4.1104,4.1103,4.1028,4.0962,4.0908,4.0908,4.0832,4.0738,4.0707,4.0668,4.0595,4.0527,4.0496,4.0496,4.0496,4.0496,4.0496,4.0496,4.0496,4.0496,4.0496,4.0496,4.0496,4.0496,4.0496,4.0496,4.0496,4.0496,4.0496,4.0496,4.0496,4.0496,4.0496,4.0496,4.0496,4.0496,4.0496,4.0496,4.0496,4.0496,4.0496,4.0496,4.0496,4.0496,4.0496,4.0496,4.0496,4.0496,4.0496,4.0496,4.0496,4.0496,4.0496,4.0496,4.0496,4.0496,4.0496,4.0573,4.0593,4.0593,4.063,4.0666,4.0707,4.0711,4.0696,4.6308,4.6308,4.6308,4.6308,4.6308,0.0,4.6308,4.6308,4.6308,0.0,0.0,0.0,0.0,0.0,0.0,0.0,0.0,0.0,0.0,0.0,0.0,0.0,0.0,0.0,0.0,0.0,0.0,0.0,0.0,0.0,4.6308,4.6308,4.6308,4.6308,4.6308,4.5957,4.5234,4.5215,4.4785,4.3885,4.2984,4.2221,4.1576,4.142,4.1285,4.1151,4.1025,4.0962,4.0957,4.0854,4.0789,4.0788,4.0788,4.0779,4.0747,4.069,4.0681,4.0655,4.053,4.0496,4.0496,4.0496,4.0496,4.0496,4.0496,4.0496,4.0496,4.0496,4.0496,4.0496,4.0496,4.0496,4.0496,4.0496,4.0496,4.0496,4.0496,4.0496,4.0496,4.0496,4.0496,4.0496,4.0496,4.0496,4.0496,4.0496,4.0496,4.0496,4.0496,4.0496,4.0496,4.0496,4.0496,4.0496,4.0496,4.0496,4.0496,4.0496,4.0496,4.0496,4.0496,4.0496,4.0496,4.0496,4.0496,4.0496,4.0496,4.0496,4.0496,4.0496,4.0496,4.0496,4.6308,4.6308,4.6308,4.6308,4.6308,4.6308,0.0,0.0,4.6308,0.0,0.0,0.0,0.0,0.0,0.0,0.0,0.0,0.0,0.0,0.0,0.0,0.0,0.0,0.0,0.0,0.0,0.0,0.0,0.0,0.0,4.6308,4.6308,4.6308,4.6308,4.6308,4.623,4.6133,4.6133,4.5621,4.4633,4.3712,4.3202,4.3082,4.233,4.1635,4.1023,4.088,4.0839,4.0836,4.0805,4.0781,4.0707,4.0707,4.0649,4.0533,4.0523,4.0534,4.0508,4.0504,4.0496,4.0496,4.0496,4.0496,4.0496,4.0496,4.0496,4.0496,4.0496,4.0496,4.0496,4.0496,4.0496,4.0496,4.0496,4.0496,4.0496,4.0496,4.0496,4.0496,4.0496,4.0496,4.0496,4.0496,4.0496,4.0496,4.0496,4.0496,4.0496,4.0496,4.0496,4.0496,4.0496,4.0496,4.0496,4.0496,4.0496,4.0496,4.0496,4.0496,4.0496,4.0496,4.0496,4.0496,4.0496,4.0496,4.0496,4.0496,4.0496,4.0496,4.0496,4.0496,4.0496,4.6202,4.6198,4.6173,4.6087,4.6077,4.6077,4.6077,0.0,0.0,0.0,0.0,0.0,0.0,0.0,0.0,0.0,0.0,0.0,0.0,0.0,0.0,0.0,0.0,0.0,0.0,0.0,0.0,0.0,0.0,4.6308,4.6308,4.6308,4.6308,4.6308,4.6308,4.6268,4.6198,4.6198,4.5707,4.4734,4.4335,4.3862,4.3387,4.2932,4.2315,4.1572,4.1003,4.0738,4.0732,4.0651,4.061,4.0602,4.0602,4.0552,4.0496,4.0496,4.0496,4.0496,4.0496,4.0496,4.0496,4.0496,4.0496,4.0496,4.0496,4.0496,4.0496,4.0496,4.0496,4.0496,4.0496,4.0854,4.1239,4.1239,4.1604,4.195,4.195,4.1189,4.0496,4.0496,4.0496,4.0496,4.0496,4.0496,4.0669,4.1143,4.1239,4.1393,4.1893,4.195,4.195,4.195,4.195,4.195,4.195,4.1966,4.1966,4.1958,4.195,4.1958,4.1955,4.1958,4.195,4.195,4.0997,4.0496,4.0496,4.0496,4.0496,4.0496,4.0496,4.0496,4.614,4.6077,4.603,4.592,4.5899,4.5899,0.0,0.0,0.0,0.0,0.0,0.0,0.0,0.0,0.0,0.0,0.0,0.0,0.0,0.0,0.0,0.0,0.0,0.0,0.0,0.0,0.0,0.0,0.0,4.6308,4.6308,4.6268,4.6268,4.6308,4.6226,4.6173,4.6108,4.6056,4.5667,4.4987,4.4951,4.458,4.3948,4.3628,4.3169,4.2595,4.146,4.0984,4.0952,4.0634,4.0496,4.0496,4.0496,4.0496,4.0496,4.0496,4.0496,4.0496,4.0496,4.0496,4.0496,4.0496,4.0496,4.0496,4.0496,4.065,4.0843,4.0843,4.0997,4.117,4.117,4.1643,4.2143,4.2143,4.2624,4.3104,4.3104,4.2085,4.117,4.117,4.117,4.117,4.117,4.117,4.1373,4.2027,4.2143,4.2374,4.3028,4.3104,4.3104,4.3104,4.3104,4.3104,4.3104,4.3102,4.3102,4.3104,4.3104,4.3113,4.3091,4.3094,4.3104,4.3104,4.1958,4.1227,4.0923,4.1085,4.117,4.117,4.1304,4.1362,4.6091,4.6001,4.5907,4.5903,4.5899,4.5899,0.0,0.0,0.0,0.0,0.0,0.0,0.0,0.0,0.0,0.0,0.0,0.0,0.0,0.0,0.0,0.0,0.0,0.0,0.0,0.0,0.0,0.0,0.0,4.6308,4.6308,4.6175,4.6173,4.6308,4.6047,4.5981,4.6108,4.5911,4.5783,4.5732,4.5611,4.5533,4.5447,4.463,4.4226,4.41,4.2447,4.1728,4.167,4.0843,4.0496,4.0496,4.0496,4.0496,4.0496,4.0496,4.0496,4.0496,4.0496,4.0496,4.0496,4.0496,4.0496,4.0496,4.0496,4.1085,4.1731,4.1731,4.2335,4.2951,4.2951,4.3008,4.3028,4.3028,4.3066,4.3104,4.3104,4.3028,4.2951,4.2951,4.2951,4.2951,4.2951,4.2951,4.2989,4.3028,4.3028,4.3047,4.3085,4.3104,4.3104,4.3104,4.3104,4.3104,4.3104,4.3096,4.3096,4.3104,4.3096,4.3096,4.3104,4.3104,4.3104,4.3104,4.3506,4.3181,4.2102,4.2684,4.2951,4.297,4.3487,4.3726,4.5992,4.5915,4.5826,4.5729,4.5701,4.5701,4.5701,0.0,0.0,0.0,0.0,0.0,0.0,0.0,0.0,0.0,0.0,0.0,0.0,0.0,0.0,0.0,0.0,0.0,0.0,0.0,0.0,0.0,0.0,0.0,4.6173,4.6042,4.5992,4.6042,4.594,4.5905,4.5906,4.5749,4.5673,4.5673,4.561,4.5594,4.5594,4.5287,4.5133,4.5075,4.3912,4.3104,4.2604,4.2297,4.2162,4.2162,4.2162,4.2162,4.2162,4.2162,4.2162,4.2162,4.2162,4.2162,4.2162,4.2162,4.2162,4.2162,4.2162,4.2393,4.2624,4.2624,4.2854,4.3104,4.3104,4.347,4.4008,4.4566,4.4701,4.4701,4.4701,4.3855,4.3104,4.3104,4.3104,4.3104,4.3104,4.3104,4.3278,4.3797,4.3874,4.4066,4.4624,4.4701,4.4701,4.4701,4.4701,4.4701,4.4701,4.4701,4.4701,4.4701,4.4701,4.4701,4.4701,4.4701,4.4701,4.4701,4.4883,4.4259,4.278,4.3344,4.344,4.3104,4.3305,4.3382,4.592,0.0,0.0,0.0,4.5594,4.5594,4.5594,0.0,0.0,0.0,0.0,0.0,0.0,0.0,0.0,0.0,0.0,0.0,0.0,0.0,0.0,0.0,0.0,0.0,0.0,0.0,0.0,0.0,0.0,0.0,4.6033,4.5923,4.5855,4.5805,4.5831,4.5825,4.5725,4.5651,4.5594,4.5594,4.5594,4.5594,4.5594,4.5594,4.5594,4.5575,4.4998,4.4259,4.347,4.3201,4.3104,4.3104,4.3104,4.3104,4.3104,4.3104,4.3104,4.3104,4.3104,4.3104,4.3104,4.3104,4.3104,4.3104,4.3104,4.3297,4.3508,4.3508,4.3701,4.3932,4.3932,4.4335,4.4874,4.546,4.5594,4.5594,4.5594,4.4729,4.3932,4.3932,4.3932,4.3932,4.3932,4.3932,4.4124,4.4662,4.4739,4.496,4.5537,4.5594,4.5594,4.5594,4.5594,4.5594,4.5594,4.5594,4.5594,4.5594,4.5594,4.5594,4.5594,4.5594,4.5594,4.5594,4.5594,4.5056,4.3932,4.4295,4.4295,4.3932,4.3932,4.3932,0.0,0.0,0.0,0.0,0.0,0.0,4.5594,0.0,0.0,0.0,0.0,0.0,0.0,0.0,0.0,0.0,0.0,0.0,0.0,0.0,0.0,0.0,0.0,0.0,0.0,0.0,0.0,0.0,0.0,4.589,4.5894,4.5825,4.5733,4.5603,4.5737,4.5725,4.5594,4.5594,4.5594,4.5594,4.5594,4.5594,4.5594,4.5594,4.5594,4.5594,4.5594,4.5133,4.4278,4.3508,4.3162,4.3162,4.3162,4.3162,4.3162,4.3162,4.3162,4.3162,4.3162,4.3162,4.3162,4.3162,4.3162,4.3162,4.3162,4.372,4.4335,4.4335,4.496,4.5594,4.5594,4.5594,4.5594,4.5594,4.5594,4.5594,4.5594,4.5594,4.5594,4.5594,4.5594,4.5594,4.5594,4.5594,4.5594,4.5594,4.5594,4.5594,4.5594,4.5594,4.5594,4.5594,4.5594,4.5594,4.5594,4.5594,4.5594,4.5594,4.5594,4.5594,4.5594,4.5594,4.5594,4.5594,4.5594,4.5594,4.5594,4.5594,4.5594,4.5594,4.5594,4.5594,4.5924,0.0,0.0,0.0,0.0,0.0,0.0,0.0,0.0,0.0,0.0,0.0,0.0,0.0,0.0,0.0,0.0,0.0,0.0,0.0,0.0,0.0,0.0,0.0,0.0,0.0,0.0,0.0,4.5736,4.5735,4.5826,4.5718,4.5635,4.5594,4.5635,4.5635,4.5594,4.5594,4.5594,4.5594,4.5594,4.5594,4.5594,4.5594,4.5594,4.5594,4.5594,4.546,4.5229,4.4998,4.4921,4.4921,4.4921,4.4921,4.4921,4.4921,4.4921,4.4921,4.4921,4.4921,4.4921,4.4921,4.4921,4.4921,4.4921,4.5056,4.5248,4.5248,4.5421,4.5594,4.5594,4.5594,4.5594,4.5594,4.5594,4.5594,4.5594,4.5594,4.5594,4.5594,4.5594,4.5594,4.5594,4.5594,4.5594,4.5594,4.5594,4.5594,4.5594,4.5594,4.5594,4.5594,4.5594,4.5594,4.5594,4.5594,4.5594,4.5594,4.5594,4.5594,4.5594,4.5594,4.5594,4.5594,4.5594,4.5594,4.5594,4.5594,4.5594,4.5594,4.5594,4.5594,0.0,0.0,0.0,0.0,0.0,0.0,4.5594,4.5594,0.0,0.0,0.0,0.0,0.0,0.0,0.0,0.0,0.0,0.0,0.0,0.0,0.0,0.0,0.0,0.0,0.0,0.0,0.0,4.5715,4.5651,4.5635,4.5715,4.5643,4.5594,4.5594,4.5594,4.5594,4.5594,4.5594,4.5594,4.5594,4.5594,4.5594,4.5594,4.5594,4.5594,4.5594,4.5594,4.5594,4.5594,4.5594,4.5594,4.5594,4.5594,4.5594,4.5594,4.5594,4.5594,4.5594,4.5594,4.5594,4.5594,4.5594,4.5594,4.5594,4.5594,4.5594,4.5594,4.5594,4.5594,4.5594,4.5594,4.5594,4.5594,4.5594,4.5594,4.5594,4.5594,4.5594,4.5594,4.5594,4.5594,4.5594,4.5594,4.5594,4.5594,4.5594,4.5594,4.5594,4.5594,4.5594,4.5594,4.5594,4.5594,4.5594,4.5594,4.5594,4.5594,4.5594,4.5594,4.5594,4.5594,4.5594,4.5594,4.5594,4.5594,4.5594,4.5594,4.5594,4.5594,4.5594,4.5594,4.5594,0.0,0.0,0.0,0.0,0.0,0.0,4.5594,4.5594,4.5594,0.0,0.0,0.0,0.0,0.0,0.0,0.0,0.0,0.0,0.0,0.0,0.0,0.0,0.0,0.0,0.0,4.5594,4.5594,4.5594,4.5594,4.5594,4.5594,4.5594,4.5594,4.5594,4.5594,4.5594,4.5594,4.5594,4.5594,4.5594,4.5594,4.5594,4.5594,4.5594,4.5594,4.5594,4.5594,4.5594,4.5594,4.5594,4.5594,4.5594,4.5594,4.5594,4.5594,4.5594,4.5594,4.5594,4.5594,4.5594,4.5594,4.5594,4.5594,4.5594,4.5594,4.5594,4.5594,4.5594,4.5594,4.5594,4.5594,4.5594,4.5594,4.5594,4.5594,4.5594,4.5594,4.5594,4.5594,4.5594,4.5594,4.5594,4.5594,4.5594,4.5594,4.5594,4.5594,4.5594,4.5594,4.5594,4.5594,4.5594,4.5594,4.5594,4.5594,4.5594,4.5594,4.5594,4.5594,4.5594,4.5594,4.5594,4.5594,4.5594,4.5594,4.5594,4.5594,4.5594,4.5594,4.5594,4.5594,4.5594,0.0,0.0,0.0,0.0,0.0,0.0,4.5618,4.5594,4.5594,0.0,0.0,0.0,0.0,0.0,0.0,0.0,0.0,0.0,0.0,0.0,0.0,0.0,0.0,0.0,0.0,4.5594,4.5594,4.5594,4.5594,4.5594,4.5594,4.5594,4.5594,4.5594,4.5594,4.5594,4.5594,4.5594,4.5594,4.5594,4.5594,4.5594,4.5594,4.5594,4.5594,4.5594,4.5594,4.5594,4.5594,4.5594,4.5594,4.5594,4.5594,4.5594,4.5594,4.5594,4.5594,4.5594,4.5594,4.5594,4.5594,4.5594,4.5594,4.5594,4.5594,4.5594,4.5594,4.5594,4.5594,4.5594,4.5594,4.5594,4.5594,4.5594,4.5594,4.5594,4.5594,4.5594,4.5594,4.5594,4.5594,4.5594,4.5594,4.5594,4.5594,4.5594,4.5594,4.5594,4.5594,4.5594,4.5594,4.5594,4.5594,4.5594,4.5594,4.5594,4.5594,4.5594,4.5594,4.5594,4.5594,4.5594,4.5594,4.5594,4.5594,4.5594,4.5594,4.5594,4.5594,4.5594,4.5594,4.5594,0.0,0.0,0.0,4.5967,0.0,0.0,0.0,4.5651,4.5594,4.5594,0.0,0.0,0.0,0.0,0.0,0.0,0.0,0.0,0.0,0.0,0.0,0.0,0.0,0.0,0.0,4.5594,4.5594,4.5594,4.5594,4.5594,4.5594,4.5594,4.5594,4.5594,4.5594,4.5594,4.5594,4.5594,4.5594,4.5594,4.5594,4.5594,4.5594,4.5594,4.5594,4.5594,4.5594,4.5594,4.5594,4.5594,4.5594,4.5594,4.5594,4.5594,4.5594,4.5594,4.5594,4.5594,4.5594,4.5594,4.5594,4.5594,4.5594,4.5594,4.5594,4.5594,4.5594,4.5594,4.5594,4.5594,4.5594,4.5594,4.5594,4.5594,4.5594,4.5594,4.5594,4.5594,4.5594,4.5594,4.5594,4.5594,4.5594,4.5594,4.5594,4.5594,4.5594,4.5594,4.5594,4.5594,4.5594,4.5594,4.5594,4.5594,4.5594,4.5594,4.5594,4.5594,4.5594,4.5594,4.5594,4.5594,4.5594,4.5594,4.5594,4.5594,4.5594,4.5594,4.5594,4.5594,4.5594,4.5594,0.0,0.0,0.0,0.0,0.0,4.5858,0.0,0.0,0.0,4.5603,0.0,0.0,0.0,0.0,0.0,0.0,0.0,0.0,0.0,0.0,0.0,0.0,0.0,0.0,0.0,4.5594,4.5594,4.5594,4.5594,4.5594,4.5594,4.5594,4.5594,4.5594,4.5594,4.5594,4.5594,4.5594,4.5594,4.5594,4.5594,4.5594,4.5594,4.5594,4.5594,4.5594,4.5594,4.5594,4.5594,4.5594,4.5594,4.5594,4.5594,4.5594,4.5594,4.5594,4.5594,4.5594,4.5594,4.5594,4.5594,4.5594,4.5594,4.5594,4.5594,4.5594,4.5594,4.5594,4.5594,4.5594,4.5594,4.5594,4.5594,4.5594,4.5594,4.5594,4.5594,4.5594,4.5594,4.5594,4.5594,4.5594,4.5594,4.5594,4.5594,4.5594,4.5594,4.5594,4.5594,4.5594,4.5594,4.5594,4.5594,4.5594,4.5594,4.5594,4.5594,4.5594,4.5594,4.5594,4.5594,4.5594,4.5594,4.5594,4.5594,4.5594,4.5594,4.5594,4.5594,4.5594,4.5594,4.5594,0.0,0.0,0.0,0.0,4.608,0.0,0.0,0.0,4.574,4.5618,0.0,0.0,0.0,0.0,0.0,0.0,0.0,0.0,0.0,0.0,0.0,0.0,0.0,0.0,0.0,0.0,4.5594,4.5594,4.5594,4.5594,4.5594,4.5594,4.5594,4.5594,4.5594,4.5594,4.5594,4.5594,4.5594,4.5594,4.5594,4.5594,4.5594,4.5594,4.5594,4.5594,4.5594,4.5594,4.5594,4.5594,4.5594,4.5594,4.5594,4.5594,4.5594,4.5594,4.5594,4.5594,4.5594,4.5594,4.5594,4.5594,4.5594,4.5594,4.5594,4.5594,4.5594,4.5594,4.5594,4.5594,4.5594,4.5594,4.5594,4.5594,4.5594,4.5594,4.5594,4.5594,4.5594,4.5594,4.5594,4.5594,4.5594,4.5594,4.5594,4.5594,4.5594,4.5594,4.5594,4.5594,4.5594,4.5594,4.5594,4.5594,4.5594,4.5594,4.5594,4.5594,4.5594,4.5594,4.5594,4.5594,4.5594,4.5594,4.5594,4.5594,4.5594,4.5594,4.5594,4.5594,4.5594,4.5594,0.0,0.0,0.0,0.0,0.0,0.0,0.0,0.0,4.5836,0.0,0.0,0.0,0.0,0.0,0.0,0.0,0.0,0.0,0.0,0.0,0.0,0.0,0.0,0.0,0.0,0.0,0.0,0.0,0.0,4.5594,4.5594,4.5594,4.5594,4.5594,4.5594,4.5594,4.5594,4.5594,4.5594,4.5594,4.5594,4.5594,4.5594,4.5594,4.5594,4.5594,4.5594,4.5594,4.5594,4.5594,4.5594,4.5594,4.5594,4.5594,4.5594,4.5594,4.5594,4.5594,4.5594,4.5594,4.5594,4.5594,4.5594,4.5594,4.5594,4.5594,4.5594,4.5594,4.5594,4.5594,4.5594,4.5594,4.5594,4.5594,4.5594,4.5594,4.5594,4.5594,4.5594,4.5594,4.5594,4.5594,4.5594,4.5594,4.5594,4.5594,4.5594,4.5594,4.5594,4.5594,4.5594,4.5594,4.5594,4.5594,4.5594,4.5594,4.5594,4.5594,4.5594,4.5594,4.5594,4.5594,4.5594,4.5594,4.5594,4.5594,4.5594,4.5594,4.5594,4.5594,4.5594,4.5594,4.6245,0.0,0.0,0.0,0.0,0.0,0.0,0.0,0.0,0.0,0.0,0.0,0.0,0.0,0.0,0.0,0.0,0.0,0.0,0.0,0.0,0.0,0.0,0.0,0.0,0.0,0.0,4.5594,4.5594,4.5594,4.5594,4.5594,4.5594,4.5594,4.5594,4.5594,4.5594,4.5594,4.5594,4.5594,4.5594,4.5594,4.5594,4.5594,4.5594,4.5594,4.5594,4.5594,4.5594,4.5594,4.5594,4.5594,4.5594,4.5594,4.5594,4.5594,4.5594,4.5594,4.5594,4.5594,4.5594,4.5594,4.5594,4.5594,4.5594,4.5594,4.5594,4.5594,4.5594,4.5594,4.5594,4.5594,4.5594,4.5594,4.5594,4.5594,4.5594,4.5594,4.5594,4.5594,4.5594,4.5594,4.5594,4.5594,4.5594,4.5594,4.5594,4.5594,4.5594,4.5594,4.5594,4.5594,4.5594,4.5594,4.5594,4.5594,4.5594,4.5594,4.5594,4.5594,4.5594,4.5594,4.5594,4.5594,4.5594,4.5594,4.5594,4.5594,4.5594,4.5594,4.5594,4.5594,0.0,0.0,0.0,4.6268,0.0,0.0,0.0,0.0,4.6067,0.0,0.0,0.0,0.0,0.0,0.0,0.0,0.0,0.0,0.0,0.0,0.0,0.0,0.0,0.0,0.0,0.0,0.0,4.5594,4.5594,4.5594,4.5594,4.5594,4.5594,4.5594,4.5594,4.5594,4.5594,4.5594,4.5594,4.5594,4.5594,4.5594,4.5594,4.5594,4.5594,4.5594,4.5594,4.5594,4.5594,4.5594,4.5594,4.5594,4.5594,4.5594,4.5594,4.5594,4.5594,4.5594,4.5594,4.5594,4.5594,4.5594,4.5594,4.5594,4.5594,4.5594,4.5594,4.5594,4.5594,4.5594,4.5594,4.5594,4.5594,4.5594,4.5594,4.5594,4.5594,4.5594,4.5594,4.5594,4.5594,4.5594,4.5594,4.5594,4.5594,4.5594,4.5594,4.5594,4.5594,4.5594,4.5594,4.5594,4.5594,4.5594,4.5594,4.5594,4.5594,4.5594,4.5594,4.5594,4.5594,4.5594,4.5594,4.5594,4.5594,4.5594,4.5594,4.5594,4.5594,4.5594,4.5594,4.5594,0.0,0.0,4.5995,4.6122,0.0,0.0,0.0,0.0,0.0,0.0,0.0,0.0,0.0,0.0,0.0,0.0,0.0,0.0,0.0,0.0,0.0,0.0,0.0,0.0,0.0,0.0,0.0,4.5594,4.5594,4.5594,4.5594,4.5594,4.5594,4.5594,4.5594,4.5594,4.5594,4.5594,4.5594,4.5594,4.5594,4.5594,4.5594,4.5594,4.5594,4.5594,4.5594,4.5594,4.5594,4.5594,4.5594,4.5594,4.5594,4.5594,4.5594,4.5594,4.5594,4.5594,4.5594,4.5594,4.5594,4.5594,4.5594,4.5594,4.5594,4.5594,4.5594,4.5594,4.5594,4.5594,4.5594,4.5594,4.5594,4.5594,4.5594,4.5594,4.5594,4.5594,4.5594,4.5594,4.5594,4.5594,4.5594,4.5594,4.5594,4.5594,4.5594,4.5594,4.5594,4.5594,4.5594,4.5594,4.5594,4.5594,4.5594,4.5594,4.5594,4.5594,4.5594,4.5594,4.5594,4.5594,4.5594,4.5594,4.5594,4.5594,4.5594,4.5594,4.5594,4.5594,4.5594,4.5594,4.5861,4.5852,0.0,4.5992,4.6053,0.0,4.6202,0.0,0.0,0.0,0.0,0.0,0.0,0.0,0.0,0.0,0.0,0.0,0.0,4.5594,0.0,0.0,0.0,0.0,0.0,0.0,4.5594,4.5594,4.5594,4.5594,0.0,0.0,4.5594,4.5594,4.5594,4.5594,4.5594,4.5594,4.5594,4.5594,4.5594,4.5594,4.5594,4.5594,4.5594,4.5594,4.5594,4.5594,4.5594,4.5594,4.5594,4.5594,4.5594,4.5594,4.5594,4.5594,4.5594,4.5594,4.5594,4.5594,4.5594,4.5594,4.5594,4.5594,4.5594,4.5594,4.5594,4.5594,4.5594,4.5594,4.5594,4.5594,4.5594,4.5594,4.5594,4.5594,4.5594,4.5594,4.5594,4.5594,4.5594,4.5594,4.5594,4.5594,4.5594,4.5594,4.5594,4.5594,4.5594,4.5594,4.5594,4.5594,4.5594,4.5594,4.5594,4.5594,4.5594,4.5594,4.5594,4.5594,4.5594,4.5594,4.5594,4.5594,4.5594,4.5594,4.5594,4.5594,4.5594,4.5594,4.5594,4.5594]}]]